<?xml version="1.0" encoding="UTF-8"?><gpx version="1.0" creator="dbj" xmlns="http://www.topografix.com/GPX/1/0"><time>2020-03-01T08:58:40Z</time><bounds minlat="42.54355998" minlon="12.62881997" maxlat="42.56312996" maxlon="12.65100402"/><wpt lat="42.550072968" lon="12.634858964"><name>Start Lat:42.5501, Lon:12.6349</name><sym>Start</sym><ele>127</ele></wpt><trk><trkseg><trkpt lat="42.550072968" lon="12.634858964"><ele>127</ele><time>2020-03-01T08:58:40Z</time></trkpt>
<trkpt lat="42.550056037" lon="12.634874973"><ele>127</ele><time>2020-03-01T08:58:41Z</time></trkpt>
<trkpt lat="42.550036004" lon="12.634891989"><ele>127</ele><time>2020-03-01T08:58:42Z</time></trkpt>
<trkpt lat="42.550011026" lon="12.63491001"><ele>127</ele><time>2020-03-01T08:58:43Z</time></trkpt>
<trkpt lat="42.549982024" lon="12.634929037"><ele>127</ele><time>2020-03-01T08:58:44Z</time></trkpt>
<trkpt lat="42.549951011" lon="12.63494798"><ele>128</ele><time>2020-03-01T08:58:45Z</time></trkpt>
<trkpt lat="42.549916981" lon="12.634967007"><ele>128</ele><time>2020-03-01T08:58:46Z</time></trkpt>
<trkpt lat="42.549882028" lon="12.634987039"><ele>128</ele><time>2020-03-01T08:58:47Z</time></trkpt>
<trkpt lat="42.54984498" lon="12.635006988"><ele>128</ele><time>2020-03-01T08:58:48Z</time></trkpt>
<trkpt lat="42.549808016" lon="12.635027021"><ele>129</ele><time>2020-03-01T08:58:49Z</time></trkpt>
<trkpt lat="42.549769962" lon="12.63504697"><ele>129</ele><time>2020-03-01T08:58:50Z</time></trkpt>
<trkpt lat="42.549732998" lon="12.635067003"><ele>129</ele><time>2020-03-01T08:58:51Z</time></trkpt>
<trkpt lat="42.54969704" lon="12.635087036"><ele>130</ele><time>2020-03-01T08:58:52Z</time></trkpt>
<trkpt lat="42.549662003" lon="12.635106985"><ele>130</ele><time>2020-03-01T08:58:53Z</time></trkpt>
<trkpt lat="42.549626967" lon="12.635126011"><ele>130</ele><time>2020-03-01T08:58:54Z</time></trkpt>
<trkpt lat="42.549592014" lon="12.635143027"><ele>130</ele><time>2020-03-01T08:58:55Z</time></trkpt>
<trkpt lat="42.549554966" lon="12.635159036"><ele>131</ele><time>2020-03-01T08:58:56Z</time></trkpt>
<trkpt lat="42.549516996" lon="12.635166999"><ele>131</ele><time>2020-03-01T08:58:57Z</time></trkpt>
<trkpt lat="42.54948196" lon="12.635162976"><ele>131</ele><time>2020-03-01T08:58:58Z</time></trkpt>
<trkpt lat="42.549450025" lon="12.635143027"><ele>131</ele><time>2020-03-01T08:58:59Z</time></trkpt>
<trkpt lat="42.549424963" lon="12.635110002"><ele>132</ele><time>2020-03-01T08:59:00Z</time></trkpt>
<trkpt lat="42.549413983" lon="12.635068009"><ele>132</ele><time>2020-03-01T08:59:01Z</time></trkpt>
<trkpt lat="42.549418006" lon="12.635022998"><ele>132</ele><time>2020-03-01T08:59:02Z</time></trkpt>
<trkpt lat="42.54943301" lon="12.634975975"><ele>132</ele><time>2020-03-01T08:59:03Z</time></trkpt>
<trkpt lat="42.549453964" lon="12.634929037"><ele>132</ele><time>2020-03-01T08:59:04Z</time></trkpt>
<trkpt lat="42.549475003" lon="12.634882014"><ele>132</ele><time>2020-03-01T08:59:05Z</time></trkpt>
<trkpt lat="42.549496042" lon="12.634837003"><ele>132</ele><time>2020-03-01T08:59:06Z</time></trkpt>
<trkpt lat="42.549516996" lon="12.634791993"><ele>131</ele><time>2020-03-01T08:59:07Z</time></trkpt>
<trkpt lat="42.549537029" lon="12.634747988"><ele>131</ele><time>2020-03-01T08:59:08Z</time></trkpt>
<trkpt lat="42.549556978" lon="12.634704988"><ele>131</ele><time>2020-03-01T08:59:09Z</time></trkpt>
<trkpt lat="42.549576005" lon="12.634662995"><ele>131</ele><time>2020-03-01T08:59:10Z</time></trkpt>
<trkpt lat="42.549595032" lon="12.634621002"><ele>131</ele><time>2020-03-01T08:59:11Z</time></trkpt>
<trkpt lat="42.549612969" lon="12.634578003"><ele>131</ele><time>2020-03-01T08:59:12Z</time></trkpt>
<trkpt lat="42.54963099" lon="12.634536009"><ele>131</ele><time>2020-03-01T08:59:13Z</time></trkpt>
<trkpt lat="42.549648006" lon="12.634494016"><ele>131</ele><time>2020-03-01T08:59:14Z</time></trkpt>
<trkpt lat="42.549664015" lon="12.634451017"><ele>131</ele><time>2020-03-01T08:59:15Z</time></trkpt>
<trkpt lat="42.549680024" lon="12.634408018"><ele>131</ele><time>2020-03-01T08:59:16Z</time></trkpt>
<trkpt lat="42.549695028" lon="12.634364013"><ele>131</ele><time>2020-03-01T08:59:17Z</time></trkpt>
<trkpt lat="42.549709026" lon="12.634320008"><ele>131</ele><time>2020-03-01T08:59:18Z</time></trkpt>
<trkpt lat="42.549723024" lon="12.634274997"><ele>131</ele><time>2020-03-01T08:59:19Z</time></trkpt>
<trkpt lat="42.549736015" lon="12.63422898"><ele>131</ele><time>2020-03-01T08:59:20Z</time></trkpt>
<trkpt lat="42.549749007" lon="12.634183969"><ele>131</ele><time>2020-03-01T08:59:21Z</time></trkpt>
<trkpt lat="42.549760994" lon="12.634138037"><ele>131</ele><time>2020-03-01T08:59:22Z</time></trkpt>
<trkpt lat="42.54977298" lon="12.63409202"><ele>131</ele><time>2020-03-01T08:59:23Z</time></trkpt>
<trkpt lat="42.54978396" lon="12.634047009"><ele>131</ele><time>2020-03-01T08:59:24Z</time></trkpt>
<trkpt lat="42.549795024" lon="12.634000992"><ele>131</ele><time>2020-03-01T08:59:25Z</time></trkpt>
<trkpt lat="42.549804999" lon="12.633954976"><ele>131</ele><time>2020-03-01T08:59:26Z</time></trkpt>
<trkpt lat="42.549815979" lon="12.633909965"><ele>130</ele><time>2020-03-01T08:59:27Z</time></trkpt>
<trkpt lat="42.549826037" lon="12.63386596"><ele>130</ele><time>2020-03-01T08:59:28Z</time></trkpt>
<trkpt lat="42.549836012" lon="12.633821033"><ele>130</ele><time>2020-03-01T08:59:29Z</time></trkpt>
<trkpt lat="42.549845986" lon="12.633777028"><ele>130</ele><time>2020-03-01T08:59:30Z</time></trkpt>
<trkpt lat="42.549855961" lon="12.633734029"><ele>130</ele><time>2020-03-01T08:59:31Z</time></trkpt>
<trkpt lat="42.549867025" lon="12.633690024"><ele>130</ele><time>2020-03-01T08:59:32Z</time></trkpt>
<trkpt lat="42.549879011" lon="12.633647025"><ele>130</ele><time>2020-03-01T08:59:33Z</time></trkpt>
<trkpt lat="42.549923016" lon="12.63351501"><ele>129</ele><time>2020-03-01T08:59:36Z</time></trkpt>
<trkpt lat="42.549939025" lon="12.633471005"><ele>129</ele><time>2020-03-01T08:59:37Z</time></trkpt>
<trkpt lat="42.54995604" lon="12.633424988"><ele>129</ele><time>2020-03-01T08:59:38Z</time></trkpt>
<trkpt lat="42.550004991" lon="12.633281993"><ele>129</ele><time>2020-03-01T08:59:41Z</time></trkpt>
<trkpt lat="42.550021" lon="12.633232959"><ele>129</ele><time>2020-03-01T08:59:42Z</time></trkpt>
<trkpt lat="42.550036004" lon="12.633183002"><ele>129</ele><time>2020-03-01T08:59:43Z</time></trkpt>
<trkpt lat="42.550051007" lon="12.633132963"><ele>129</ele><time>2020-03-01T08:59:44Z</time></trkpt>
<trkpt lat="42.550067017" lon="12.633084012"><ele>129</ele><time>2020-03-01T08:59:45Z</time></trkpt>
<trkpt lat="42.550084032" lon="12.633035984"><ele>128</ele><time>2020-03-01T08:59:46Z</time></trkpt>
<trkpt lat="42.550101969" lon="12.632988961"><ele>128</ele><time>2020-03-01T08:59:47Z</time></trkpt>
<trkpt lat="42.550120996" lon="12.63294504"><ele>128</ele><time>2020-03-01T08:59:48Z</time></trkpt>
<trkpt lat="42.550142035" lon="12.632903969"><ele>128</ele><time>2020-03-01T08:59:49Z</time></trkpt>
<trkpt lat="42.550163995" lon="12.632864993"><ele>128</ele><time>2020-03-01T08:59:50Z</time></trkpt>
<trkpt lat="42.550187968" lon="12.632830041"><ele>128</ele><time>2020-03-01T08:59:51Z</time></trkpt>
<trkpt lat="42.550214035" lon="12.632798022"><ele>128</ele><time>2020-03-01T08:59:52Z</time></trkpt>
<trkpt lat="42.550242031" lon="12.632771032"><ele>128</ele><time>2020-03-01T08:59:53Z</time></trkpt>
<trkpt lat="42.550271032" lon="12.632748988"><ele>128</ele><time>2020-03-01T08:59:54Z</time></trkpt>
<trkpt lat="42.550301962" lon="12.632731972"><ele>128</ele><time>2020-03-01T08:59:55Z</time></trkpt>
<trkpt lat="42.55033398" lon="12.632719986"><ele>127</ele><time>2020-03-01T08:59:56Z</time></trkpt>
<trkpt lat="42.550368011" lon="12.632714035"><ele>127</ele><time>2020-03-01T08:59:57Z</time></trkpt>
<trkpt lat="42.550402964" lon="12.632714035"><ele>127</ele><time>2020-03-01T08:59:58Z</time></trkpt>
<trkpt lat="42.550438" lon="12.632719986"><ele>127</ele><time>2020-03-01T08:59:59Z</time></trkpt>
<trkpt lat="42.550473958" lon="12.632729039"><ele>127</ele><time>2020-03-01T09:00:00Z</time></trkpt>
<trkpt lat="42.550508995" lon="12.632737001"><ele>127</ele><time>2020-03-01T09:00:01Z</time></trkpt>
<trkpt lat="42.550543025" lon="12.632741025"><ele>127</ele><time>2020-03-01T09:00:02Z</time></trkpt>
<trkpt lat="42.55057496" lon="12.632743036"><ele>127</ele><time>2020-03-01T09:00:03Z</time></trkpt>
<trkpt lat="42.550605973" lon="12.63274597"><ele>127</ele><time>2020-03-01T09:00:04Z</time></trkpt>
<trkpt lat="42.550636986" lon="12.632749993"><ele>127</ele><time>2020-03-01T09:00:05Z</time></trkpt>
<trkpt lat="42.550666993" lon="12.632757034"><ele>127</ele><time>2020-03-01T09:00:06Z</time></trkpt>
<trkpt lat="42.550697001" lon="12.632767009"><ele>126</ele><time>2020-03-01T09:00:07Z</time></trkpt>
<trkpt lat="42.550728014" lon="12.632780001"><ele>126</ele><time>2020-03-01T09:00:08Z</time></trkpt>
<trkpt lat="42.550758021" lon="12.63279601"><ele>126</ele><time>2020-03-01T09:00:09Z</time></trkpt>
<trkpt lat="42.55079004" lon="12.632815037"><ele>126</ele><time>2020-03-01T09:00:10Z</time></trkpt>
<trkpt lat="42.550820969" lon="12.632836998"><ele>126</ele><time>2020-03-01T09:00:11Z</time></trkpt>
<trkpt lat="42.550852988" lon="12.632861976"><ele>126</ele><time>2020-03-01T09:00:12Z</time></trkpt>
<trkpt lat="42.550915014" lon="12.632919978"><ele>126</ele><time>2020-03-01T09:00:14Z</time></trkpt>
<trkpt lat="42.550945021" lon="12.632954009"><ele>126</ele><time>2020-03-01T09:00:15Z</time></trkpt>
<trkpt lat="42.550974023" lon="12.632989967"><ele>126</ele><time>2020-03-01T09:00:16Z</time></trkpt>
<trkpt lat="42.551000006" lon="12.633028021"><ele>126</ele><time>2020-03-01T09:00:17Z</time></trkpt>
<trkpt lat="42.551023979" lon="12.633069009"><ele>126</ele><time>2020-03-01T09:00:18Z</time></trkpt>
<trkpt lat="42.551047029" lon="12.633112008"><ele>126</ele><time>2020-03-01T09:00:19Z</time></trkpt>
<trkpt lat="42.551066978" lon="12.633157019"><ele>126</ele><time>2020-03-01T09:00:20Z</time></trkpt>
<trkpt lat="42.551086005" lon="12.633203035"><ele>126</ele><time>2020-03-01T09:00:21Z</time></trkpt>
<trkpt lat="42.55110302" lon="12.633249974"><ele>126</ele><time>2020-03-01T09:00:22Z</time></trkpt>
<trkpt lat="42.551117018" lon="12.633299008"><ele>126</ele><time>2020-03-01T09:00:23Z</time></trkpt>
<trkpt lat="42.55113001" lon="12.633347958"><ele>126</ele><time>2020-03-01T09:00:24Z</time></trkpt>
<trkpt lat="42.55114099" lon="12.633397998"><ele>126</ele><time>2020-03-01T09:00:25Z</time></trkpt>
<trkpt lat="42.551149959" lon="12.633447032"><ele>126</ele><time>2020-03-01T09:00:26Z</time></trkpt>
<trkpt lat="42.551158005" lon="12.633496989"><ele>126</ele><time>2020-03-01T09:00:27Z</time></trkpt>
<trkpt lat="42.551163035" lon="12.633547029"><ele>126</ele><time>2020-03-01T09:00:28Z</time></trkpt>
<trkpt lat="42.551166974" lon="12.633595979"><ele>126</ele><time>2020-03-01T09:00:29Z</time></trkpt>
<trkpt lat="42.551168986" lon="12.633645013"><ele>127</ele><time>2020-03-01T09:00:30Z</time></trkpt>
<trkpt lat="42.551164962" lon="12.633787002"><ele>127</ele><time>2020-03-01T09:00:33Z</time></trkpt>
<trkpt lat="42.551162029" lon="12.633834025"><ele>127</ele><time>2020-03-01T09:00:34Z</time></trkpt>
<trkpt lat="42.551158005" lon="12.633880042"><ele>127</ele><time>2020-03-01T09:00:35Z</time></trkpt>
<trkpt lat="42.55115197" lon="12.633924969"><ele>128</ele><time>2020-03-01T09:00:36Z</time></trkpt>
<trkpt lat="42.551147025" lon="12.633969979"><ele>128</ele><time>2020-03-01T09:00:37Z</time></trkpt>
<trkpt lat="42.551139984" lon="12.63401499"><ele>128</ele><time>2020-03-01T09:00:38Z</time></trkpt>
<trkpt lat="42.551133027" lon="12.634057989"><ele>128</ele><time>2020-03-01T09:00:39Z</time></trkpt>
<trkpt lat="42.551125987" lon="12.634101994"><ele>128</ele><time>2020-03-01T09:00:40Z</time></trkpt>
<trkpt lat="42.55111903" lon="12.634144993"><ele>128</ele><time>2020-03-01T09:00:41Z</time></trkpt>
<trkpt lat="42.551111989" lon="12.634186987"><ele>128</ele><time>2020-03-01T09:00:42Z</time></trkpt>
<trkpt lat="42.551105032" lon="12.634229986"><ele>128</ele><time>2020-03-01T09:00:43Z</time></trkpt>
<trkpt lat="42.551097991" lon="12.634272985"><ele>128</ele><time>2020-03-01T09:00:44Z</time></trkpt>
<trkpt lat="42.551090028" lon="12.634314978"><ele>128</ele><time>2020-03-01T09:00:45Z</time></trkpt>
<trkpt lat="42.551082987" lon="12.634358983"><ele>128</ele><time>2020-03-01T09:00:46Z</time></trkpt>
<trkpt lat="42.55107603" lon="12.634402988"><ele>128</ele><time>2020-03-01T09:00:47Z</time></trkpt>
<trkpt lat="42.551057003" lon="12.634536009"><ele>128</ele><time>2020-03-01T09:00:50Z</time></trkpt>
<trkpt lat="42.551051974" lon="12.634579008"><ele>128</ele><time>2020-03-01T09:00:51Z</time></trkpt>
<trkpt lat="42.551049041" lon="12.634622008"><ele>128</ele><time>2020-03-01T09:00:52Z</time></trkpt>
<trkpt lat="42.551047029" lon="12.634662995"><ele>128</ele><time>2020-03-01T09:00:53Z</time></trkpt>
<trkpt lat="42.551048035" lon="12.634701971"><ele>128</ele><time>2020-03-01T09:00:54Z</time></trkpt>
<trkpt lat="42.55106899" lon="12.63479501"><ele>128</ele><time>2020-03-01T09:00:57Z</time></trkpt>
<trkpt lat="42.551086005" lon="12.634814037"><ele>128</ele><time>2020-03-01T09:00:58Z</time></trkpt>
<trkpt lat="42.55110696" lon="12.634826023"><ele>128</ele><time>2020-03-01T09:00:59Z</time></trkpt>
<trkpt lat="42.551131016" lon="12.634837003"><ele>128</ele><time>2020-03-01T09:01:00Z</time></trkpt>
<trkpt lat="42.551152976" lon="12.634851001"><ele>128</ele><time>2020-03-01T09:01:01Z</time></trkpt>
<trkpt lat="42.551168986" lon="12.634873968"><ele>128</ele><time>2020-03-01T09:01:02Z</time></trkpt>
<trkpt lat="42.551180972" lon="12.634902969"><ele>128</ele><time>2020-03-01T09:01:03Z</time></trkpt>
<trkpt lat="42.551189018" lon="12.634937"><ele>128</ele><time>2020-03-01T09:01:04Z</time></trkpt>
<trkpt lat="42.551196981" lon="12.635053005"><ele>128</ele><time>2020-03-01T09:01:07Z</time></trkpt>
<trkpt lat="42.55119497" lon="12.635096004"><ele>128</ele><time>2020-03-01T09:01:08Z</time></trkpt>
<trkpt lat="42.55119103" lon="12.635139003"><ele>128</ele><time>2020-03-01T09:01:09Z</time></trkpt>
<trkpt lat="42.551173009" lon="12.635275042"><ele>128</ele><time>2020-03-01T09:01:12Z</time></trkpt>
<trkpt lat="42.551165968" lon="12.635320975"><ele>128</ele><time>2020-03-01T09:01:13Z</time></trkpt>
<trkpt lat="42.551158005" lon="12.635366991"><ele>128</ele><time>2020-03-01T09:01:14Z</time></trkpt>
<trkpt lat="42.551150965" lon="12.635413008"><ele>128</ele><time>2020-03-01T09:01:15Z</time></trkpt>
<trkpt lat="42.551145013" lon="12.635458019"><ele>128</ele><time>2020-03-01T09:01:16Z</time></trkpt>
<trkpt lat="42.551139984" lon="12.635503029"><ele>128</ele><time>2020-03-01T09:01:17Z</time></trkpt>
<trkpt lat="42.551135039" lon="12.635547034"><ele>128</ele><time>2020-03-01T09:01:18Z</time></trkpt>
<trkpt lat="42.551133027" lon="12.635591039"><ele>128</ele><time>2020-03-01T09:01:19Z</time></trkpt>
<trkpt lat="42.551132021" lon="12.635634039"><ele>128</ele><time>2020-03-01T09:01:20Z</time></trkpt>
<trkpt lat="42.551133027" lon="12.635677038"><ele>128</ele><time>2020-03-01T09:01:21Z</time></trkpt>
<trkpt lat="42.551136967" lon="12.635720037"><ele>128</ele><time>2020-03-01T09:01:22Z</time></trkpt>
<trkpt lat="42.551143002" lon="12.63576203"><ele>128</ele><time>2020-03-01T09:01:23Z</time></trkpt>
<trkpt lat="42.551152976" lon="12.635804024"><ele>128</ele><time>2020-03-01T09:01:24Z</time></trkpt>
<trkpt lat="42.551164962" lon="12.635845011"><ele>128</ele><time>2020-03-01T09:01:25Z</time></trkpt>
<trkpt lat="42.551179966" lon="12.635882981"><ele>128</ele><time>2020-03-01T09:01:26Z</time></trkpt>
<trkpt lat="42.551198993" lon="12.635920029"><ele>128</ele><time>2020-03-01T09:01:27Z</time></trkpt>
<trkpt lat="42.551221037" lon="12.635953976"><ele>128</ele><time>2020-03-01T09:01:28Z</time></trkpt>
<trkpt lat="42.551246015" lon="12.635983983"><ele>128</ele><time>2020-03-01T09:01:29Z</time></trkpt>
<trkpt lat="42.551274011" lon="12.636010973"><ele>128</ele><time>2020-03-01T09:01:30Z</time></trkpt>
<trkpt lat="42.551304018" lon="12.636034023"><ele>128</ele><time>2020-03-01T09:01:31Z</time></trkpt>
<trkpt lat="42.551336037" lon="12.636052966"><ele>128</ele><time>2020-03-01T09:01:32Z</time></trkpt>
<trkpt lat="42.551368978" lon="12.636066964"><ele>128</ele><time>2020-03-01T09:01:33Z</time></trkpt>
<trkpt lat="42.551403008" lon="12.636076016"><ele>128</ele><time>2020-03-01T09:01:34Z</time></trkpt>
<trkpt lat="42.551437961" lon="12.636080962"><ele>128</ele><time>2020-03-01T09:01:35Z</time></trkpt>
<trkpt lat="42.551472997" lon="12.636080962"><ele>128</ele><time>2020-03-01T09:01:36Z</time></trkpt>
<trkpt lat="42.551508034" lon="12.636078028"><ele>128</ele><time>2020-03-01T09:01:37Z</time></trkpt>
<trkpt lat="42.551542986" lon="12.636071993"><ele>128</ele><time>2020-03-01T09:01:38Z</time></trkpt>
<trkpt lat="42.551611969" lon="12.636055984"><ele>128</ele><time>2020-03-01T09:01:40Z</time></trkpt>
<trkpt lat="42.551647006" lon="12.636046009"><ele>128</ele><time>2020-03-01T09:01:41Z</time></trkpt>
<trkpt lat="42.551681036" lon="12.636037041"><ele>128</ele><time>2020-03-01T09:01:42Z</time></trkpt>
<trkpt lat="42.551714983" lon="12.636025976"><ele>128</ele><time>2020-03-01T09:01:43Z</time></trkpt>
<trkpt lat="42.551749013" lon="12.636016002"><ele>128</ele><time>2020-03-01T09:01:44Z</time></trkpt>
<trkpt lat="42.55178296" lon="12.636005022"><ele>128</ele><time>2020-03-01T09:01:45Z</time></trkpt>
<trkpt lat="42.551816991" lon="12.635994963"><ele>128</ele><time>2020-03-01T09:01:46Z</time></trkpt>
<trkpt lat="42.551851021" lon="12.635982977"><ele>128</ele><time>2020-03-01T09:01:47Z</time></trkpt>
<trkpt lat="42.551884968" lon="12.635971997"><ele>128</ele><time>2020-03-01T09:01:48Z</time></trkpt>
<trkpt lat="42.551918998" lon="12.635961017"><ele>128</ele><time>2020-03-01T09:01:49Z</time></trkpt>
<trkpt lat="42.551954035" lon="12.635949031"><ele>127</ele><time>2020-03-01T09:01:50Z</time></trkpt>
<trkpt lat="42.551988987" lon="12.635937966"><ele>127</ele><time>2020-03-01T09:01:51Z</time></trkpt>
<trkpt lat="42.552024024" lon="12.63592598"><ele>127</ele><time>2020-03-01T09:01:52Z</time></trkpt>
<trkpt lat="42.552059982" lon="12.635915"><ele>127</ele><time>2020-03-01T09:01:53Z</time></trkpt>
<trkpt lat="42.552095018" lon="12.635903014"><ele>127</ele><time>2020-03-01T09:01:54Z</time></trkpt>
<trkpt lat="42.552130977" lon="12.635892034"><ele>127</ele><time>2020-03-01T09:01:55Z</time></trkpt>
<trkpt lat="42.552168025" lon="12.635881975"><ele>127</ele><time>2020-03-01T09:01:56Z</time></trkpt>
<trkpt lat="42.552203983" lon="12.635872001"><ele>127</ele><time>2020-03-01T09:01:57Z</time></trkpt>
<trkpt lat="42.552241031" lon="12.635864038"><ele>127</ele><time>2020-03-01T09:01:58Z</time></trkpt>
<trkpt lat="42.552277995" lon="12.635855991"><ele>127</ele><time>2020-03-01T09:01:59Z</time></trkpt>
<trkpt lat="42.552314037" lon="12.635849034"><ele>127</ele><time>2020-03-01T09:02:00Z</time></trkpt>
<trkpt lat="42.552351002" lon="12.635844005"><ele>126</ele><time>2020-03-01T09:02:01Z</time></trkpt>
<trkpt lat="42.552387966" lon="12.635839982"><ele>126</ele><time>2020-03-01T09:02:02Z</time></trkpt>
<trkpt lat="42.552424008" lon="12.63583797"><ele>126</ele><time>2020-03-01T09:02:03Z</time></trkpt>
<trkpt lat="42.552460972" lon="12.63583797"><ele>126</ele><time>2020-03-01T09:02:04Z</time></trkpt>
<trkpt lat="42.552497014" lon="12.635838976"><ele>126</ele><time>2020-03-01T09:02:05Z</time></trkpt>
<trkpt lat="42.552532973" lon="12.635841994"><ele>126</ele><time>2020-03-01T09:02:06Z</time></trkpt>
<trkpt lat="42.552569015" lon="12.635846017"><ele>126</ele><time>2020-03-01T09:02:07Z</time></trkpt>
<trkpt lat="42.552603967" lon="12.635851968"><ele>126</ele><time>2020-03-01T09:02:08Z</time></trkpt>
<trkpt lat="42.552637998" lon="12.635859009"><ele>126</ele><time>2020-03-01T09:02:09Z</time></trkpt>
<trkpt lat="42.552671023" lon="12.635866972"><ele>126</ele><time>2020-03-01T09:02:10Z</time></trkpt>
<trkpt lat="42.552703964" lon="12.63587703"><ele>126</ele><time>2020-03-01T09:02:11Z</time></trkpt>
<trkpt lat="42.552735982" lon="12.63588801"><ele>126</ele><time>2020-03-01T09:02:12Z</time></trkpt>
<trkpt lat="42.552768001" lon="12.635901002"><ele>125</ele><time>2020-03-01T09:02:13Z</time></trkpt>
<trkpt lat="42.55280002" lon="12.635913994"><ele>125</ele><time>2020-03-01T09:02:14Z</time></trkpt>
<trkpt lat="42.552832961" lon="12.635930004"><ele>125</ele><time>2020-03-01T09:02:15Z</time></trkpt>
<trkpt lat="42.552866992" lon="12.635946013"><ele>125</ele><time>2020-03-01T09:02:16Z</time></trkpt>
<trkpt lat="42.552900016" lon="12.635964034"><ele>125</ele><time>2020-03-01T09:02:17Z</time></trkpt>
<trkpt lat="42.552934969" lon="12.635982977"><ele>125</ele><time>2020-03-01T09:02:18Z</time></trkpt>
<trkpt lat="42.552970005" lon="12.63600301"><ele>125</ele><time>2020-03-01T09:02:19Z</time></trkpt>
<trkpt lat="42.553004036" lon="12.636023965"><ele>125</ele><time>2020-03-01T09:02:20Z</time></trkpt>
<trkpt lat="42.553038988" lon="12.636046009"><ele>125</ele><time>2020-03-01T09:02:21Z</time></trkpt>
<trkpt lat="42.553074025" lon="12.636066964"><ele>125</ele><time>2020-03-01T09:02:22Z</time></trkpt>
<trkpt lat="42.553108977" lon="12.636090014"><ele>125</ele><time>2020-03-01T09:02:23Z</time></trkpt>
<trkpt lat="42.553143008" lon="12.636111975"><ele>125</ele><time>2020-03-01T09:02:24Z</time></trkpt>
<trkpt lat="42.553177038" lon="12.636134019"><ele>125</ele><time>2020-03-01T09:02:25Z</time></trkpt>
<trkpt lat="42.553209979" lon="12.63615598"><ele>125</ele><time>2020-03-01T09:02:26Z</time></trkpt>
<trkpt lat="42.553243004" lon="12.636178024"><ele>125</ele><time>2020-03-01T09:02:27Z</time></trkpt>
<trkpt lat="42.553275023" lon="12.636198979"><ele>125</ele><time>2020-03-01T09:02:28Z</time></trkpt>
<trkpt lat="42.553306036" lon="12.636220017"><ele>125</ele><time>2020-03-01T09:02:29Z</time></trkpt>
<trkpt lat="42.553336965" lon="12.636240972"><ele>125</ele><time>2020-03-01T09:02:30Z</time></trkpt>
<trkpt lat="42.553366972" lon="12.636261005"><ele>124</ele><time>2020-03-01T09:02:31Z</time></trkpt>
<trkpt lat="42.553397985" lon="12.636280032"><ele>124</ele><time>2020-03-01T09:02:32Z</time></trkpt>
<trkpt lat="42.553428998" lon="12.636299981"><ele>124</ele><time>2020-03-01T09:02:33Z</time></trkpt>
<trkpt lat="42.553461017" lon="12.636319008"><ele>124</ele><time>2020-03-01T09:02:34Z</time></trkpt>
<trkpt lat="42.553493036" lon="12.636338035"><ele>124</ele><time>2020-03-01T09:02:35Z</time></trkpt>
<trkpt lat="42.553524971" lon="12.636356978"><ele>124</ele><time>2020-03-01T09:02:36Z</time></trkpt>
<trkpt lat="42.55355699" lon="12.636376005"><ele>124</ele><time>2020-03-01T09:02:37Z</time></trkpt>
<trkpt lat="42.553589009" lon="12.636396037"><ele>124</ele><time>2020-03-01T09:02:38Z</time></trkpt>
<trkpt lat="42.553621028" lon="12.636414981"><ele>124</ele><time>2020-03-01T09:02:39Z</time></trkpt>
<trkpt lat="42.553652041" lon="12.636434007"><ele>124</ele><time>2020-03-01T09:02:40Z</time></trkpt>
<trkpt lat="42.55368297" lon="12.63645404"><ele>124</ele><time>2020-03-01T09:02:41Z</time></trkpt>
<trkpt lat="42.553713983" lon="12.636473989"><ele>124</ele><time>2020-03-01T09:02:42Z</time></trkpt>
<trkpt lat="42.55374399" lon="12.636493016"><ele>124</ele><time>2020-03-01T09:02:43Z</time></trkpt>
<trkpt lat="42.553773997" lon="12.636512965"><ele>124</ele><time>2020-03-01T09:02:44Z</time></trkpt>
<trkpt lat="42.553804005" lon="12.636532998"><ele>124</ele><time>2020-03-01T09:02:45Z</time></trkpt>
<trkpt lat="42.553834012" lon="12.636552025"><ele>124</ele><time>2020-03-01T09:02:46Z</time></trkpt>
<trkpt lat="42.553865025" lon="12.636570968"><ele>124</ele><time>2020-03-01T09:02:47Z</time></trkpt>
<trkpt lat="42.553895032" lon="12.636589995"><ele>124</ele><time>2020-03-01T09:02:48Z</time></trkpt>
<trkpt lat="42.553925039" lon="12.636609022"><ele>124</ele><time>2020-03-01T09:02:49Z</time></trkpt>
<trkpt lat="42.554019" lon="12.636664007"><ele>123</ele><time>2020-03-01T09:02:52Z</time></trkpt>
<trkpt lat="42.554051019" lon="12.636681022"><ele>123</ele><time>2020-03-01T09:02:53Z</time></trkpt>
<trkpt lat="42.554083038" lon="12.636698959"><ele>123</ele><time>2020-03-01T09:02:54Z</time></trkpt>
<trkpt lat="42.554182028" lon="12.636750005"><ele>123</ele><time>2020-03-01T09:02:57Z</time></trkpt>
<trkpt lat="42.554215975" lon="12.63676702"><ele>123</ele><time>2020-03-01T09:02:58Z</time></trkpt>
<trkpt lat="42.554249" lon="12.636784036"><ele>123</ele><time>2020-03-01T09:02:59Z</time></trkpt>
<trkpt lat="42.554282025" lon="12.636801973"><ele>123</ele><time>2020-03-01T09:03:00Z</time></trkpt>
<trkpt lat="42.554315971" lon="12.636819994"><ele>123</ele><time>2020-03-01T09:03:01Z</time></trkpt>
<trkpt lat="42.554348996" lon="12.636839021"><ele>123</ele><time>2020-03-01T09:03:02Z</time></trkpt>
<trkpt lat="42.554382021" lon="12.636857964"><ele>123</ele><time>2020-03-01T09:03:03Z</time></trkpt>
<trkpt lat="42.554414961" lon="12.636877997"><ele>123</ele><time>2020-03-01T09:03:04Z</time></trkpt>
<trkpt lat="42.55444698" lon="12.63689803"><ele>123</ele><time>2020-03-01T09:03:05Z</time></trkpt>
<trkpt lat="42.554480005" lon="12.636918984"><ele>123</ele><time>2020-03-01T09:03:06Z</time></trkpt>
<trkpt lat="42.554512024" lon="12.636941029"><ele>123</ele><time>2020-03-01T09:03:07Z</time></trkpt>
<trkpt lat="42.554543037" lon="12.636962989"><ele>123</ele><time>2020-03-01T09:03:08Z</time></trkpt>
<trkpt lat="42.554573966" lon="12.63698604"><ele>123</ele><time>2020-03-01T09:03:09Z</time></trkpt>
<trkpt lat="42.554604979" lon="12.637010012"><ele>122</ele><time>2020-03-01T09:03:10Z</time></trkpt>
<trkpt lat="42.554634986" lon="12.63703499"><ele>122</ele><time>2020-03-01T09:03:11Z</time></trkpt>
<trkpt lat="42.554665999" lon="12.637058962"><ele>122</ele><time>2020-03-01T09:03:12Z</time></trkpt>
<trkpt lat="42.554696007" lon="12.637083018"><ele>122</ele><time>2020-03-01T09:03:13Z</time></trkpt>
<trkpt lat="42.554726014" lon="12.63710699"><ele>122</ele><time>2020-03-01T09:03:14Z</time></trkpt>
<trkpt lat="42.554756021" lon="12.637130041"><ele>122</ele><time>2020-03-01T09:03:15Z</time></trkpt>
<trkpt lat="42.554787034" lon="12.637152001"><ele>122</ele><time>2020-03-01T09:03:16Z</time></trkpt>
<trkpt lat="42.554817041" lon="12.63717304"><ele>122</ele><time>2020-03-01T09:03:17Z</time></trkpt>
<trkpt lat="42.554848976" lon="12.637192989"><ele>122</ele><time>2020-03-01T09:03:18Z</time></trkpt>
<trkpt lat="42.554879989" lon="12.637213022"><ele>121</ele><time>2020-03-01T09:03:19Z</time></trkpt>
<trkpt lat="42.554912008" lon="12.637231965"><ele>121</ele><time>2020-03-01T09:03:20Z</time></trkpt>
<trkpt lat="42.554944027" lon="12.637250992"><ele>121</ele><time>2020-03-01T09:03:21Z</time></trkpt>
<trkpt lat="42.554975962" lon="12.637270018"><ele>121</ele><time>2020-03-01T09:03:22Z</time></trkpt>
<trkpt lat="42.555008987" lon="12.637288962"><ele>121</ele><time>2020-03-01T09:03:23Z</time></trkpt>
<trkpt lat="42.555042012" lon="12.637307988"><ele>121</ele><time>2020-03-01T09:03:24Z</time></trkpt>
<trkpt lat="42.555075036" lon="12.637328021"><ele>121</ele><time>2020-03-01T09:03:25Z</time></trkpt>
<trkpt lat="42.555107977" lon="12.63734797"><ele>121</ele><time>2020-03-01T09:03:26Z</time></trkpt>
<trkpt lat="42.555142008" lon="12.637369009"><ele>121</ele><time>2020-03-01T09:03:27Z</time></trkpt>
<trkpt lat="42.555176038" lon="12.637389963"><ele>121</ele><time>2020-03-01T09:03:28Z</time></trkpt>
<trkpt lat="42.555208979" lon="12.637412008"><ele>121</ele><time>2020-03-01T09:03:29Z</time></trkpt>
<trkpt lat="42.555301012" lon="12.63747504"><ele>121</ele><time>2020-03-01T09:03:32Z</time></trkpt>
<trkpt lat="42.555328002" lon="12.637493983"><ele>121</ele><time>2020-03-01T09:03:33Z</time></trkpt>
<trkpt lat="42.555353986" lon="12.63751301"><ele>121</ele><time>2020-03-01T09:03:34Z</time></trkpt>
<trkpt lat="42.555378964" lon="12.637532037"><ele>121</ele><time>2020-03-01T09:03:35Z</time></trkpt>
<trkpt lat="42.55540302" lon="12.63755098"><ele>121</ele><time>2020-03-01T09:03:36Z</time></trkpt>
<trkpt lat="42.555427998" lon="12.637572018"><ele>121</ele><time>2020-03-01T09:03:37Z</time></trkpt>
<trkpt lat="42.555451971" lon="12.637592973"><ele>121</ele><time>2020-03-01T09:03:38Z</time></trkpt>
<trkpt lat="42.555478038" lon="12.637616023"><ele>121</ele><time>2020-03-01T09:03:39Z</time></trkpt>
<trkpt lat="42.555505028" lon="12.637639996"><ele>121</ele><time>2020-03-01T09:03:40Z</time></trkpt>
<trkpt lat="42.555533024" lon="12.637663968"><ele>121</ele><time>2020-03-01T09:03:41Z</time></trkpt>
<trkpt lat="42.555561019" lon="12.637688024"><ele>121</ele><time>2020-03-01T09:03:42Z</time></trkpt>
<trkpt lat="42.555591026" lon="12.637711996"><ele>121</ele><time>2020-03-01T09:03:43Z</time></trkpt>
<trkpt lat="42.555621034" lon="12.637734041"><ele>121</ele><time>2020-03-01T09:03:44Z</time></trkpt>
<trkpt lat="42.555651041" lon="12.63775399"><ele>121</ele><time>2020-03-01T09:03:45Z</time></trkpt>
<trkpt lat="42.555747014" lon="12.637793971"><ele>121</ele><time>2020-03-01T09:03:48Z</time></trkpt>
<trkpt lat="42.555780038" lon="12.637800006"><ele>121</ele><time>2020-03-01T09:03:49Z</time></trkpt>
<trkpt lat="42.555812979" lon="12.637800006"><ele>121</ele><time>2020-03-01T09:03:50Z</time></trkpt>
<trkpt lat="42.555846004" lon="12.637793971"><ele>121</ele><time>2020-03-01T09:03:51Z</time></trkpt>
<trkpt lat="42.555880034" lon="12.637783997"><ele>121</ele><time>2020-03-01T09:03:52Z</time></trkpt>
<trkpt lat="42.555912975" lon="12.637772011"><ele>120</ele><time>2020-03-01T09:03:53Z</time></trkpt>
<trkpt lat="42.555947006" lon="12.637758013"><ele>120</ele><time>2020-03-01T09:03:54Z</time></trkpt>
<trkpt lat="42.55598003" lon="12.637746027"><ele>120</ele><time>2020-03-01T09:03:55Z</time></trkpt>
<trkpt lat="42.556011965" lon="12.637734963"><ele>120</ele><time>2020-03-01T09:03:56Z</time></trkpt>
<trkpt lat="42.556043984" lon="12.637727"><ele>120</ele><time>2020-03-01T09:03:57Z</time></trkpt>
<trkpt lat="42.556074997" lon="12.637721971"><ele>120</ele><time>2020-03-01T09:03:58Z</time></trkpt>
<trkpt lat="42.55610601" lon="12.637717025"><ele>120</ele><time>2020-03-01T09:03:59Z</time></trkpt>
<trkpt lat="42.556137023" lon="12.637709985"><ele>119</ele><time>2020-03-01T09:04:00Z</time></trkpt>
<trkpt lat="42.556167031" lon="12.63770001"><ele>119</ele><time>2020-03-01T09:04:01Z</time></trkpt>
<trkpt lat="42.556197038" lon="12.637685006"><ele>119</ele><time>2020-03-01T09:04:02Z</time></trkpt>
<trkpt lat="42.556226961" lon="12.637662962"><ele>119</ele><time>2020-03-01T09:04:03Z</time></trkpt>
<trkpt lat="42.556256969" lon="12.637635972"><ele>119</ele><time>2020-03-01T09:04:04Z</time></trkpt>
<trkpt lat="42.556284964" lon="12.637603031"><ele>119</ele><time>2020-03-01T09:04:05Z</time></trkpt>
<trkpt lat="42.556311032" lon="12.637564978"><ele>119</ele><time>2020-03-01T09:04:06Z</time></trkpt>
<trkpt lat="42.556332992" lon="12.63752399"><ele>119</ele><time>2020-03-01T09:04:07Z</time></trkpt>
<trkpt lat="42.556352019" lon="12.637479985"><ele>119</ele><time>2020-03-01T09:04:08Z</time></trkpt>
<trkpt lat="42.556366017" lon="12.637432963"><ele>118</ele><time>2020-03-01T09:04:09Z</time></trkpt>
<trkpt lat="42.556376997" lon="12.637385018"><ele>118</ele><time>2020-03-01T09:04:10Z</time></trkpt>
<trkpt lat="42.556384038" lon="12.637334978"><ele>118</ele><time>2020-03-01T09:04:11Z</time></trkpt>
<trkpt lat="42.556388984" lon="12.637286028"><ele>118</ele><time>2020-03-01T09:04:12Z</time></trkpt>
<trkpt lat="42.556393007" lon="12.637235988"><ele>118</ele><time>2020-03-01T09:04:13Z</time></trkpt>
<trkpt lat="42.55639703" lon="12.63718796"><ele>118</ele><time>2020-03-01T09:04:14Z</time></trkpt>
<trkpt lat="42.55640097" lon="12.637141021"><ele>118</ele><time>2020-03-01T09:04:15Z</time></trkpt>
<trkpt lat="42.556405999" lon="12.637095004"><ele>118</ele><time>2020-03-01T09:04:16Z</time></trkpt>
<trkpt lat="42.556411028" lon="12.637049994"><ele>118</ele><time>2020-03-01T09:04:17Z</time></trkpt>
<trkpt lat="42.556416979" lon="12.637006994"><ele>118</ele><time>2020-03-01T09:04:18Z</time></trkpt>
<trkpt lat="42.55642402" lon="12.636963995"><ele>117</ele><time>2020-03-01T09:04:19Z</time></trkpt>
<trkpt lat="42.556430977" lon="12.636922002"><ele>117</ele><time>2020-03-01T09:04:20Z</time></trkpt>
<trkpt lat="42.556439023" lon="12.636881014"><ele>117</ele><time>2020-03-01T09:04:21Z</time></trkpt>
<trkpt lat="42.556447992" lon="12.636839021"><ele>117</ele><time>2020-03-01T09:04:22Z</time></trkpt>
<trkpt lat="42.556456961" lon="12.636798033"><ele>117</ele><time>2020-03-01T09:04:23Z</time></trkpt>
<trkpt lat="42.55648898" lon="12.636673981"><ele>117</ele><time>2020-03-01T09:04:26Z</time></trkpt>
<trkpt lat="42.556500966" lon="12.636631988"><ele>117</ele><time>2020-03-01T09:04:27Z</time></trkpt>
<trkpt lat="42.556514041" lon="12.636588989"><ele>117</ele><time>2020-03-01T09:04:28Z</time></trkpt>
<trkpt lat="42.556528039" lon="12.63654599"><ele>117</ele><time>2020-03-01T09:04:29Z</time></trkpt>
<trkpt lat="42.556542959" lon="12.636503996"><ele>117</ele><time>2020-03-01T09:04:30Z</time></trkpt>
<trkpt lat="42.556557963" lon="12.636460997"><ele>117</ele><time>2020-03-01T09:04:31Z</time></trkpt>
<trkpt lat="42.556573972" lon="12.636419004"><ele>117</ele><time>2020-03-01T09:04:32Z</time></trkpt>
<trkpt lat="42.556590987" lon="12.636378016"><ele>117</ele><time>2020-03-01T09:04:33Z</time></trkpt>
<trkpt lat="42.556608003" lon="12.636337029"><ele>117</ele><time>2020-03-01T09:04:34Z</time></trkpt>
<trkpt lat="42.556626024" lon="12.636296963"><ele>117</ele><time>2020-03-01T09:04:35Z</time></trkpt>
<trkpt lat="42.556644967" lon="12.636257987"><ele>118</ele><time>2020-03-01T09:04:36Z</time></trkpt>
<trkpt lat="42.556663994" lon="12.636221023"><ele>118</ele><time>2020-03-01T09:04:37Z</time></trkpt>
<trkpt lat="42.556684026" lon="12.636184981"><ele>118</ele><time>2020-03-01T09:04:38Z</time></trkpt>
<trkpt lat="42.556704981" lon="12.636151034"><ele>118</ele><time>2020-03-01T09:04:39Z</time></trkpt>
<trkpt lat="42.556727026" lon="12.63611801"><ele>118</ele><time>2020-03-01T09:04:40Z</time></trkpt>
<trkpt lat="42.556748986" lon="12.636086997"><ele>118</ele><time>2020-03-01T09:04:41Z</time></trkpt>
<trkpt lat="42.556772958" lon="12.636057995"><ele>118</ele><time>2020-03-01T09:04:42Z</time></trkpt>
<trkpt lat="42.55679802" lon="12.636031006"><ele>117</ele><time>2020-03-01T09:04:43Z</time></trkpt>
<trkpt lat="42.556824004" lon="12.636005022"><ele>117</ele><time>2020-03-01T09:04:44Z</time></trkpt>
<trkpt lat="42.556853006" lon="12.635980966"><ele>117</ele><time>2020-03-01T09:04:45Z</time></trkpt>
<trkpt lat="42.556882007" lon="12.635957999"><ele>117</ele><time>2020-03-01T09:04:46Z</time></trkpt>
<trkpt lat="42.556912014" lon="12.635936039"><ele>117</ele><time>2020-03-01T09:04:47Z</time></trkpt>
<trkpt lat="42.556943027" lon="12.635913994"><ele>117</ele><time>2020-03-01T09:04:48Z</time></trkpt>
<trkpt lat="42.55697404" lon="12.635892034"><ele>117</ele><time>2020-03-01T09:04:49Z</time></trkpt>
<trkpt lat="42.557003964" lon="12.635869989"><ele>117</ele><time>2020-03-01T09:04:50Z</time></trkpt>
<trkpt lat="42.557032965" lon="12.635847023"><ele>117</ele><time>2020-03-01T09:04:51Z</time></trkpt>
<trkpt lat="42.557061967" lon="12.635822967"><ele>117</ele><time>2020-03-01T09:04:52Z</time></trkpt>
<trkpt lat="42.557089962" lon="12.635797989"><ele>116</ele><time>2020-03-01T09:04:53Z</time></trkpt>
<trkpt lat="42.557118041" lon="12.635772005"><ele>116</ele><time>2020-03-01T09:04:54Z</time></trkpt>
<trkpt lat="42.557199011" lon="12.635691036"><ele>116</ele><time>2020-03-01T09:04:57Z</time></trkpt>
<trkpt lat="42.557224995" lon="12.635663962"><ele>116</ele><time>2020-03-01T09:04:58Z</time></trkpt>
<trkpt lat="42.557251984" lon="12.635635966"><ele>116</ele><time>2020-03-01T09:04:59Z</time></trkpt>
<trkpt lat="42.557277968" lon="12.635607971"><ele>116</ele><time>2020-03-01T09:05:00Z</time></trkpt>
<trkpt lat="42.557305042" lon="12.635579975"><ele>116</ele><time>2020-03-01T09:05:01Z</time></trkpt>
<trkpt lat="42.557333037" lon="12.63555198"><ele>116</ele><time>2020-03-01T09:05:02Z</time></trkpt>
<trkpt lat="42.557360027" lon="12.635523984"><ele>115</ele><time>2020-03-01T09:05:03Z</time></trkpt>
<trkpt lat="42.557387017" lon="12.635495989"><ele>115</ele><time>2020-03-01T09:05:04Z</time></trkpt>
<trkpt lat="42.557415012" lon="12.635466987"><ele>115</ele><time>2020-03-01T09:05:05Z</time></trkpt>
<trkpt lat="42.557442002" lon="12.635438992"><ele>115</ele><time>2020-03-01T09:05:06Z</time></trkpt>
<trkpt lat="42.557469998" lon="12.63540999"><ele>115</ele><time>2020-03-01T09:05:07Z</time></trkpt>
<trkpt lat="42.557496987" lon="12.635380989"><ele>115</ele><time>2020-03-01T09:05:08Z</time></trkpt>
<trkpt lat="42.557522971" lon="12.635350982"><ele>115</ele><time>2020-03-01T09:05:09Z</time></trkpt>
<trkpt lat="42.557549039" lon="12.635320975"><ele>115</ele><time>2020-03-01T09:05:10Z</time></trkpt>
<trkpt lat="42.557575023" lon="12.635289961"><ele>115</ele><time>2020-03-01T09:05:11Z</time></trkpt>
<trkpt lat="42.557600001" lon="12.635259032"><ele>115</ele><time>2020-03-01T09:05:12Z</time></trkpt>
<trkpt lat="42.557623973" lon="12.635227013"><ele>115</ele><time>2020-03-01T09:05:13Z</time></trkpt>
<trkpt lat="42.557647023" lon="12.635192983"><ele>115</ele><time>2020-03-01T09:05:14Z</time></trkpt>
<trkpt lat="42.557668984" lon="12.635159958"><ele>115</ele><time>2020-03-01T09:05:15Z</time></trkpt>
<trkpt lat="42.557691028" lon="12.635125006"><ele>116</ele><time>2020-03-01T09:05:16Z</time></trkpt>
<trkpt lat="42.557711983" lon="12.635089969"><ele>116</ele><time>2020-03-01T09:05:17Z</time></trkpt>
<trkpt lat="42.557732016" lon="12.635055017"><ele>116</ele><time>2020-03-01T09:05:18Z</time></trkpt>
<trkpt lat="42.557751965" lon="12.635018975"><ele>116</ele><time>2020-03-01T09:05:19Z</time></trkpt>
<trkpt lat="42.557771998" lon="12.634984022"><ele>116</ele><time>2020-03-01T09:05:20Z</time></trkpt>
<trkpt lat="42.55779203" lon="12.63494798"><ele>116</ele><time>2020-03-01T09:05:21Z</time></trkpt>
<trkpt lat="42.557810973" lon="12.634912021"><ele>116</ele><time>2020-03-01T09:05:22Z</time></trkpt>
<trkpt lat="42.557831006" lon="12.634875979"><ele>116</ele><time>2020-03-01T09:05:23Z</time></trkpt>
<trkpt lat="42.557851039" lon="12.634841027"><ele>116</ele><time>2020-03-01T09:05:24Z</time></trkpt>
<trkpt lat="42.557869982" lon="12.63480599"><ele>116</ele><time>2020-03-01T09:05:25Z</time></trkpt>
<trkpt lat="42.557890015" lon="12.63477196"><ele>116</ele><time>2020-03-01T09:05:26Z</time></trkpt>
<trkpt lat="42.557910969" lon="12.634738013"><ele>116</ele><time>2020-03-01T09:05:27Z</time></trkpt>
<trkpt lat="42.557931002" lon="12.634702977"><ele>116</ele><time>2020-03-01T09:05:28Z</time></trkpt>
<trkpt lat="42.557952041" lon="12.634668024"><ele>116</ele><time>2020-03-01T09:05:29Z</time></trkpt>
<trkpt lat="42.55797199" lon="12.634632988"><ele>115</ele><time>2020-03-01T09:05:30Z</time></trkpt>
<trkpt lat="42.557993028" lon="12.63459703"><ele>115</ele><time>2020-03-01T09:05:31Z</time></trkpt>
<trkpt lat="42.558012977" lon="12.634558976"><ele>115</ele><time>2020-03-01T09:05:32Z</time></trkpt>
<trkpt lat="42.55803301" lon="12.63452"><ele>115</ele><time>2020-03-01T09:05:33Z</time></trkpt>
<trkpt lat="42.558052037" lon="12.634480018"><ele>115</ele><time>2020-03-01T09:05:34Z</time></trkpt>
<trkpt lat="42.558068968" lon="12.634440036"><ele>115</ele><time>2020-03-01T09:05:35Z</time></trkpt>
<trkpt lat="42.558084978" lon="12.634398965"><ele>115</ele><time>2020-03-01T09:05:36Z</time></trkpt>
<trkpt lat="42.558098976" lon="12.634357978"><ele>115</ele><time>2020-03-01T09:05:37Z</time></trkpt>
<trkpt lat="42.55811004" lon="12.634315984"><ele>115</ele><time>2020-03-01T09:05:38Z</time></trkpt>
<trkpt lat="42.558119008" lon="12.634274997"><ele>115</ele><time>2020-03-01T09:05:39Z</time></trkpt>
<trkpt lat="42.558127977" lon="12.634233003"><ele>115</ele><time>2020-03-01T09:05:40Z</time></trkpt>
<trkpt lat="42.558136024" lon="12.634192016"><ele>115</ele><time>2020-03-01T09:05:41Z</time></trkpt>
<trkpt lat="42.558144992" lon="12.634152034"><ele>115</ele><time>2020-03-01T09:05:42Z</time></trkpt>
<trkpt lat="42.558154967" lon="12.634111969"><ele>115</ele><time>2020-03-01T09:05:43Z</time></trkpt>
<trkpt lat="42.558167037" lon="12.634072993"><ele>115</ele><time>2020-03-01T09:05:44Z</time></trkpt>
<trkpt lat="42.55818204" lon="12.634035023"><ele>115</ele><time>2020-03-01T09:05:45Z</time></trkpt>
<trkpt lat="42.55819696" lon="12.633997975"><ele>115</ele><time>2020-03-01T09:05:46Z</time></trkpt>
<trkpt lat="42.558213975" lon="12.633961011"><ele>114</ele><time>2020-03-01T09:05:47Z</time></trkpt>
<trkpt lat="42.558231996" lon="12.633923963"><ele>114</ele><time>2020-03-01T09:05:48Z</time></trkpt>
<trkpt lat="42.558251023" lon="12.633886999"><ele>114</ele><time>2020-03-01T09:05:49Z</time></trkpt>
<trkpt lat="42.558268961" lon="12.633850034"><ele>114</ele><time>2020-03-01T09:05:50Z</time></trkpt>
<trkpt lat="42.558287987" lon="12.633812986"><ele>114</ele><time>2020-03-01T09:05:51Z</time></trkpt>
<trkpt lat="42.558306009" lon="12.633776022"><ele>114</ele><time>2020-03-01T09:05:52Z</time></trkpt>
<trkpt lat="42.558325035" lon="12.633737968"><ele>114</ele><time>2020-03-01T09:05:53Z</time></trkpt>
<trkpt lat="42.558342973" lon="12.633699998"><ele>114</ele><time>2020-03-01T09:05:54Z</time></trkpt>
<trkpt lat="42.558362" lon="12.633663034"><ele>114</ele><time>2020-03-01T09:05:55Z</time></trkpt>
<trkpt lat="42.558380021" lon="12.63362498"><ele>114</ele><time>2020-03-01T09:05:56Z</time></trkpt>
<trkpt lat="42.558398042" lon="12.63358701"><ele>114</ele><time>2020-03-01T09:05:57Z</time></trkpt>
<trkpt lat="42.558415979" lon="12.633548034"><ele>114</ele><time>2020-03-01T09:05:58Z</time></trkpt>
<trkpt lat="42.558434" lon="12.633509981"><ele>114</ele><time>2020-03-01T09:05:59Z</time></trkpt>
<trkpt lat="42.558451016" lon="12.633471005"><ele>114</ele><time>2020-03-01T09:06:00Z</time></trkpt>
<trkpt lat="42.558468031" lon="12.633432029"><ele>114</ele><time>2020-03-01T09:06:01Z</time></trkpt>
<trkpt lat="42.558484962" lon="12.633393975"><ele>114</ele><time>2020-03-01T09:06:02Z</time></trkpt>
<trkpt lat="42.558500972" lon="12.633354999"><ele>114</ele><time>2020-03-01T09:06:03Z</time></trkpt>
<trkpt lat="42.558516981" lon="12.633315017"><ele>114</ele><time>2020-03-01T09:06:04Z</time></trkpt>
<trkpt lat="42.558531985" lon="12.633276042"><ele>114</ele><time>2020-03-01T09:06:05Z</time></trkpt>
<trkpt lat="42.558546988" lon="12.633236982"><ele>114</ele><time>2020-03-01T09:06:06Z</time></trkpt>
<trkpt lat="42.558560986" lon="12.633197"><ele>114</ele><time>2020-03-01T09:06:07Z</time></trkpt>
<trkpt lat="42.558574984" lon="12.633157019"><ele>114</ele><time>2020-03-01T09:06:08Z</time></trkpt>
<trkpt lat="42.558587976" lon="12.633117037"><ele>114</ele><time>2020-03-01T09:06:09Z</time></trkpt>
<trkpt lat="42.558600968" lon="12.633076971"><ele>113</ele><time>2020-03-01T09:06:10Z</time></trkpt>
<trkpt lat="42.558612032" lon="12.63303699"><ele>113</ele><time>2020-03-01T09:06:11Z</time></trkpt>
<trkpt lat="42.558623012" lon="12.632997008"><ele>113</ele><time>2020-03-01T09:06:12Z</time></trkpt>
<trkpt lat="42.558633992" lon="12.632957026"><ele>113</ele><time>2020-03-01T09:06:13Z</time></trkpt>
<trkpt lat="42.558642961" lon="12.632916039"><ele>113</ele><time>2020-03-01T09:06:14Z</time></trkpt>
<trkpt lat="42.558652014" lon="12.632874968"><ele>113</ele><time>2020-03-01T09:06:15Z</time></trkpt>
<trkpt lat="42.558659976" lon="12.63283398"><ele>113</ele><time>2020-03-01T09:06:16Z</time></trkpt>
<trkpt lat="42.558667017" lon="12.632792993"><ele>113</ele><time>2020-03-01T09:06:17Z</time></trkpt>
<trkpt lat="42.558673974" lon="12.632752005"><ele>113</ele><time>2020-03-01T09:06:18Z</time></trkpt>
<trkpt lat="42.558680009" lon="12.632710012"><ele>113</ele><time>2020-03-01T09:06:19Z</time></trkpt>
<trkpt lat="42.55868596" lon="12.632669024"><ele>113</ele><time>2020-03-01T09:06:20Z</time></trkpt>
<trkpt lat="42.558690989" lon="12.632626025"><ele>113</ele><time>2020-03-01T09:06:21Z</time></trkpt>
<trkpt lat="42.558696019" lon="12.632584032"><ele>113</ele><time>2020-03-01T09:06:22Z</time></trkpt>
<trkpt lat="42.558700042" lon="12.632541033"><ele>113</ele><time>2020-03-01T09:06:23Z</time></trkpt>
<trkpt lat="42.558713034" lon="12.632409018"><ele>113</ele><time>2020-03-01T09:06:26Z</time></trkpt>
<trkpt lat="42.558716973" lon="12.632365013"><ele>113</ele><time>2020-03-01T09:06:27Z</time></trkpt>
<trkpt lat="42.558720997" lon="12.632318996"><ele>113</ele><time>2020-03-01T09:06:28Z</time></trkpt>
<trkpt lat="42.558724014" lon="12.632273985"><ele>113</ele><time>2020-03-01T09:06:29Z</time></trkpt>
<trkpt lat="42.558727032" lon="12.632227968"><ele>113</ele><time>2020-03-01T09:06:30Z</time></trkpt>
<trkpt lat="42.558729965" lon="12.632183041"><ele>113</ele><time>2020-03-01T09:06:31Z</time></trkpt>
<trkpt lat="42.558732983" lon="12.632137025"><ele>113</ele><time>2020-03-01T09:06:32Z</time></trkpt>
<trkpt lat="42.558734994" lon="12.632091008"><ele>113</ele><time>2020-03-01T09:06:33Z</time></trkpt>
<trkpt lat="42.558737006" lon="12.632044991"><ele>114</ele><time>2020-03-01T09:06:34Z</time></trkpt>
<trkpt lat="42.558738012" lon="12.631998975"><ele>114</ele><time>2020-03-01T09:06:35Z</time></trkpt>
<trkpt lat="42.558739018" lon="12.631952958"><ele>114</ele><time>2020-03-01T09:06:36Z</time></trkpt>
<trkpt lat="42.558740024" lon="12.631907025"><ele>114</ele><time>2020-03-01T09:06:37Z</time></trkpt>
<trkpt lat="42.558740024" lon="12.631862015"><ele>114</ele><time>2020-03-01T09:06:38Z</time></trkpt>
<trkpt lat="42.558739018" lon="12.631817004"><ele>114</ele><time>2020-03-01T09:06:39Z</time></trkpt>
<trkpt lat="42.558738012" lon="12.631770987"><ele>114</ele><time>2020-03-01T09:06:40Z</time></trkpt>
<trkpt lat="42.558737006" lon="12.631726982"><ele>114</ele><time>2020-03-01T09:06:41Z</time></trkpt>
<trkpt lat="42.558734994" lon="12.631681971"><ele>114</ele><time>2020-03-01T09:06:42Z</time></trkpt>
<trkpt lat="42.558731977" lon="12.63163696"><ele>114</ele><time>2020-03-01T09:06:43Z</time></trkpt>
<trkpt lat="42.558728959" lon="12.631593039"><ele>114</ele><time>2020-03-01T09:06:44Z</time></trkpt>
<trkpt lat="42.558726026" lon="12.631549034"><ele>114</ele><time>2020-03-01T09:06:45Z</time></trkpt>
<trkpt lat="42.558722002" lon="12.631504023"><ele>114</ele><time>2020-03-01T09:06:46Z</time></trkpt>
<trkpt lat="42.558717979" lon="12.631460018"><ele>114</ele><time>2020-03-01T09:06:47Z</time></trkpt>
<trkpt lat="42.55871404" lon="12.631416013"><ele>114</ele><time>2020-03-01T09:06:48Z</time></trkpt>
<trkpt lat="42.55870901" lon="12.631372008"><ele>114</ele><time>2020-03-01T09:06:49Z</time></trkpt>
<trkpt lat="42.558703981" lon="12.631328003"><ele>114</ele><time>2020-03-01T09:06:50Z</time></trkpt>
<trkpt lat="42.558699036" lon="12.631283998"><ele>114</ele><time>2020-03-01T09:06:51Z</time></trkpt>
<trkpt lat="42.558694007" lon="12.631239993"><ele>114</ele><time>2020-03-01T09:06:52Z</time></trkpt>
<trkpt lat="42.558687972" lon="12.631195989"><ele>114</ele><time>2020-03-01T09:06:53Z</time></trkpt>
<trkpt lat="42.558682021" lon="12.631151984"><ele>114</ele><time>2020-03-01T09:06:54Z</time></trkpt>
<trkpt lat="42.55867498" lon="12.631107979"><ele>114</ele><time>2020-03-01T09:06:55Z</time></trkpt>
<trkpt lat="42.558669029" lon="12.631063974"><ele>114</ele><time>2020-03-01T09:06:56Z</time></trkpt>
<trkpt lat="42.558661988" lon="12.631018963"><ele>114</ele><time>2020-03-01T09:06:57Z</time></trkpt>
<trkpt lat="42.558655031" lon="12.630975042"><ele>114</ele><time>2020-03-01T09:06:58Z</time></trkpt>
<trkpt lat="42.55864799" lon="12.630931037"><ele>114</ele><time>2020-03-01T09:06:59Z</time></trkpt>
<trkpt lat="42.558641033" lon="12.630886026"><ele>114</ele><time>2020-03-01T09:07:00Z</time></trkpt>
<trkpt lat="42.558633992" lon="12.630841015"><ele>114</ele><time>2020-03-01T09:07:01Z</time></trkpt>
<trkpt lat="42.558627035" lon="12.630796004"><ele>114</ele><time>2020-03-01T09:07:02Z</time></trkpt>
<trkpt lat="42.558618989" lon="12.630750993"><ele>114</ele><time>2020-03-01T09:07:03Z</time></trkpt>
<trkpt lat="42.558612032" lon="12.630705982"><ele>114</ele><time>2020-03-01T09:07:04Z</time></trkpt>
<trkpt lat="42.558604991" lon="12.630660972"><ele>114</ele><time>2020-03-01T09:07:05Z</time></trkpt>
<trkpt lat="42.558598034" lon="12.630615961"><ele>114</ele><time>2020-03-01T09:07:06Z</time></trkpt>
<trkpt lat="42.558590993" lon="12.630571034"><ele>114</ele><time>2020-03-01T09:07:07Z</time></trkpt>
<trkpt lat="42.558584036" lon="12.630526023"><ele>114</ele><time>2020-03-01T09:07:08Z</time></trkpt>
<trkpt lat="42.558578001" lon="12.630481012"><ele>114</ele><time>2020-03-01T09:07:09Z</time></trkpt>
<trkpt lat="42.558571966" lon="12.630436001"><ele>115</ele><time>2020-03-01T09:07:10Z</time></trkpt>
<trkpt lat="42.558567021" lon="12.630391996"><ele>115</ele><time>2020-03-01T09:07:11Z</time></trkpt>
<trkpt lat="42.558561992" lon="12.630346986"><ele>115</ele><time>2020-03-01T09:07:12Z</time></trkpt>
<trkpt lat="42.558557969" lon="12.630303986"><ele>115</ele><time>2020-03-01T09:07:13Z</time></trkpt>
<trkpt lat="42.558555035" lon="12.630259981"><ele>115</ele><time>2020-03-01T09:07:14Z</time></trkpt>
<trkpt lat="42.558552017" lon="12.630216982"><ele>115</ele><time>2020-03-01T09:07:15Z</time></trkpt>
<trkpt lat="42.558550006" lon="12.630172977"><ele>115</ele><time>2020-03-01T09:07:16Z</time></trkpt>
<trkpt lat="42.558547994" lon="12.630129978"><ele>115</ele><time>2020-03-01T09:07:17Z</time></trkpt>
<trkpt lat="42.558546988" lon="12.630086979"><ele>115</ele><time>2020-03-01T09:07:18Z</time></trkpt>
<trkpt lat="42.558545982" lon="12.63004398"><ele>115</ele><time>2020-03-01T09:07:19Z</time></trkpt>
<trkpt lat="42.558545982" lon="12.630000981"><ele>116</ele><time>2020-03-01T09:07:20Z</time></trkpt>
<trkpt lat="42.558545982" lon="12.629957981"><ele>115</ele><time>2020-03-01T09:07:21Z</time></trkpt>
<trkpt lat="42.558545982" lon="12.629914982"><ele>115</ele><time>2020-03-01T09:07:22Z</time></trkpt>
<trkpt lat="42.558545982" lon="12.629870977"><ele>115</ele><time>2020-03-01T09:07:23Z</time></trkpt>
<trkpt lat="42.558546988" lon="12.629826972"><ele>115</ele><time>2020-03-01T09:07:24Z</time></trkpt>
<trkpt lat="42.558546988" lon="12.629781961"><ele>115</ele><time>2020-03-01T09:07:25Z</time></trkpt>
<trkpt lat="42.558546988" lon="12.62973804"><ele>115</ele><time>2020-03-01T09:07:26Z</time></trkpt>
<trkpt lat="42.558547994" lon="12.629692024"><ele>115</ele><time>2020-03-01T09:07:27Z</time></trkpt>
<trkpt lat="42.558549" lon="12.629647013"><ele>115</ele><time>2020-03-01T09:07:28Z</time></trkpt>
<trkpt lat="42.558549" lon="12.629600996"><ele>115</ele><time>2020-03-01T09:07:29Z</time></trkpt>
<trkpt lat="42.558550006" lon="12.62955498"><ele>114</ele><time>2020-03-01T09:07:30Z</time></trkpt>
<trkpt lat="42.558552017" lon="12.629509969"><ele>114</ele><time>2020-03-01T09:07:31Z</time></trkpt>
<trkpt lat="42.558554029" lon="12.629464036"><ele>114</ele><time>2020-03-01T09:07:32Z</time></trkpt>
<trkpt lat="42.558556041" lon="12.629419025"><ele>114</ele><time>2020-03-01T09:07:33Z</time></trkpt>
<trkpt lat="42.558558974" lon="12.62937502"><ele>114</ele><time>2020-03-01T09:07:34Z</time></trkpt>
<trkpt lat="42.558562998" lon="12.629331015"><ele>114</ele><time>2020-03-01T09:07:35Z</time></trkpt>
<trkpt lat="42.558567021" lon="12.629288016"><ele>114</ele><time>2020-03-01T09:07:36Z</time></trkpt>
<trkpt lat="42.558571966" lon="12.629245017"><ele>114</ele><time>2020-03-01T09:07:37Z</time></trkpt>
<trkpt lat="42.558578001" lon="12.629204029"><ele>114</ele><time>2020-03-01T09:07:38Z</time></trkpt>
<trkpt lat="42.558584958" lon="12.629163042"><ele>114</ele><time>2020-03-01T09:07:39Z</time></trkpt>
<trkpt lat="42.558595017" lon="12.629122976"><ele>114</ele><time>2020-03-01T09:07:40Z</time></trkpt>
<trkpt lat="42.558605997" lon="12.629084"><ele>114</ele><time>2020-03-01T09:07:41Z</time></trkpt>
<trkpt lat="42.558621" lon="12.629045025"><ele>114</ele><time>2020-03-01T09:07:42Z</time></trkpt>
<trkpt lat="42.558639022" lon="12.629005965"><ele>114</ele><time>2020-03-01T09:07:43Z</time></trkpt>
<trkpt lat="42.558659976" lon="12.628966989"><ele>114</ele><time>2020-03-01T09:07:44Z</time></trkpt>
<trkpt lat="42.558685038" lon="12.628930025"><ele>114</ele><time>2020-03-01T09:07:45Z</time></trkpt>
<trkpt lat="42.558712028" lon="12.628895994"><ele>114</ele><time>2020-03-01T09:07:46Z</time></trkpt>
<trkpt lat="42.558740024" lon="12.628866993"><ele>114</ele><time>2020-03-01T09:07:47Z</time></trkpt>
<trkpt lat="42.558767013" lon="12.628844026"><ele>114</ele><time>2020-03-01T09:07:48Z</time></trkpt>
<trkpt lat="42.558795009" lon="12.628827011"><ele>114</ele><time>2020-03-01T09:07:49Z</time></trkpt>
<trkpt lat="42.558819987" lon="12.62881997"><ele>114</ele><time>2020-03-01T09:07:50Z</time></trkpt>
<trkpt lat="42.558843959" lon="12.628822988"><ele>114</ele><time>2020-03-01T09:07:51Z</time></trkpt>
<trkpt lat="42.558868015" lon="12.628836986"><ele>114</ele><time>2020-03-01T09:07:52Z</time></trkpt>
<trkpt lat="42.558890982" lon="12.628861964"><ele>114</ele><time>2020-03-01T09:07:53Z</time></trkpt>
<trkpt lat="42.558914032" lon="12.628894988"><ele>114</ele><time>2020-03-01T09:07:54Z</time></trkpt>
<trkpt lat="42.558936998" lon="12.628932036"><ele>114</ele><time>2020-03-01T09:07:55Z</time></trkpt>
<trkpt lat="42.558961976" lon="12.628970006"><ele>114</ele><time>2020-03-01T09:07:56Z</time></trkpt>
<trkpt lat="42.558985027" lon="12.629007977"><ele>115</ele><time>2020-03-01T09:07:57Z</time></trkpt>
<trkpt lat="42.559006987" lon="12.629044019"><ele>115</ele><time>2020-03-01T09:07:58Z</time></trkpt>
<trkpt lat="42.559026014" lon="12.62907696"><ele>115</ele><time>2020-03-01T09:07:59Z</time></trkpt>
<trkpt lat="42.559044035" lon="12.629107973"><ele>115</ele><time>2020-03-01T09:08:00Z</time></trkpt>
<trkpt lat="42.559063984" lon="12.629138986"><ele>115</ele><time>2020-03-01T09:08:01Z</time></trkpt>
<trkpt lat="42.559087034" lon="12.629169999"><ele>115</ele><time>2020-03-01T09:08:02Z</time></trkpt>
<trkpt lat="42.559110001" lon="12.629203023"><ele>115</ele><time>2020-03-01T09:08:03Z</time></trkpt>
<trkpt lat="42.559128022" lon="12.629240993"><ele>115</ele><time>2020-03-01T09:08:04Z</time></trkpt>
<trkpt lat="42.559137996" lon="12.629283993"><ele>115</ele><time>2020-03-01T09:08:05Z</time></trkpt>
<trkpt lat="42.55914202" lon="12.629329003"><ele>115</ele><time>2020-03-01T09:08:06Z</time></trkpt>
<trkpt lat="42.559143025" lon="12.62937502"><ele>115</ele><time>2020-03-01T09:08:07Z</time></trkpt>
<trkpt lat="42.559143025" lon="12.629419025"><ele>115</ele><time>2020-03-01T09:08:08Z</time></trkpt>
<trkpt lat="42.559143025" lon="12.629461018"><ele>115</ele><time>2020-03-01T09:08:09Z</time></trkpt>
<trkpt lat="42.559144031" lon="12.629503012"><ele>115</ele><time>2020-03-01T09:08:10Z</time></trkpt>
<trkpt lat="42.559145037" lon="12.629542993"><ele>115</ele><time>2020-03-01T09:08:11Z</time></trkpt>
<trkpt lat="42.559145959" lon="12.629583981"><ele>115</ele><time>2020-03-01T09:08:12Z</time></trkpt>
<trkpt lat="42.559147971" lon="12.629625974"><ele>115</ele><time>2020-03-01T09:08:13Z</time></trkpt>
<trkpt lat="42.559149982" lon="12.629667968"><ele>114</ele><time>2020-03-01T09:08:14Z</time></trkpt>
<trkpt lat="42.559151994" lon="12.629709961"><ele>114</ele><time>2020-03-01T09:08:15Z</time></trkpt>
<trkpt lat="42.559155012" lon="12.62975296"><ele>114</ele><time>2020-03-01T09:08:16Z</time></trkpt>
<trkpt lat="42.559158029" lon="12.629795959"><ele>114</ele><time>2020-03-01T09:08:17Z</time></trkpt>
<trkpt lat="42.559161969" lon="12.629839964"><ele>114</ele><time>2020-03-01T09:08:18Z</time></trkpt>
<trkpt lat="42.559165992" lon="12.629883969"><ele>114</ele><time>2020-03-01T09:08:19Z</time></trkpt>
<trkpt lat="42.559171021" lon="12.629927974"><ele>114</ele><time>2020-03-01T09:08:20Z</time></trkpt>
<trkpt lat="42.55917496" lon="12.629971979"><ele>114</ele><time>2020-03-01T09:08:21Z</time></trkpt>
<trkpt lat="42.559191976" lon="12.630105"><ele>114</ele><time>2020-03-01T09:08:24Z</time></trkpt>
<trkpt lat="42.559198011" lon="12.630150011"><ele>114</ele><time>2020-03-01T09:08:25Z</time></trkpt>
<trkpt lat="42.559203962" lon="12.630194016"><ele>114</ele><time>2020-03-01T09:08:26Z</time></trkpt>
<trkpt lat="42.559211003" lon="12.630238021"><ele>114</ele><time>2020-03-01T09:08:27Z</time></trkpt>
<trkpt lat="42.559217038" lon="12.630282026"><ele>114</ele><time>2020-03-01T09:08:28Z</time></trkpt>
<trkpt lat="42.559223995" lon="12.630326031"><ele>114</ele><time>2020-03-01T09:08:29Z</time></trkpt>
<trkpt lat="42.559231035" lon="12.63036903"><ele>114</ele><time>2020-03-01T09:08:30Z</time></trkpt>
<trkpt lat="42.559236987" lon="12.630413035"><ele>114</ele><time>2020-03-01T09:08:31Z</time></trkpt>
<trkpt lat="42.559244027" lon="12.63045704"><ele>114</ele><time>2020-03-01T09:08:32Z</time></trkpt>
<trkpt lat="42.559250984" lon="12.630500961"><ele>114</ele><time>2020-03-01T09:08:33Z</time></trkpt>
<trkpt lat="42.559257019" lon="12.63054396"><ele>114</ele><time>2020-03-01T09:08:34Z</time></trkpt>
<trkpt lat="42.559263976" lon="12.630587965"><ele>114</ele><time>2020-03-01T09:08:35Z</time></trkpt>
<trkpt lat="42.559270011" lon="12.63063197"><ele>114</ele><time>2020-03-01T09:08:36Z</time></trkpt>
<trkpt lat="42.559275962" lon="12.630674969"><ele>114</ele><time>2020-03-01T09:08:37Z</time></trkpt>
<trkpt lat="42.559280992" lon="12.630718974"><ele>114</ele><time>2020-03-01T09:08:38Z</time></trkpt>
<trkpt lat="42.559287027" lon="12.630762979"><ele>114</ele><time>2020-03-01T09:08:39Z</time></trkpt>
<trkpt lat="42.559291972" lon="12.630805979"><ele>114</ele><time>2020-03-01T09:08:40Z</time></trkpt>
<trkpt lat="42.559297001" lon="12.630849984"><ele>114</ele><time>2020-03-01T09:08:41Z</time></trkpt>
<trkpt lat="42.559301024" lon="12.630893989"><ele>114</ele><time>2020-03-01T09:08:42Z</time></trkpt>
<trkpt lat="42.55930597" lon="12.630937994"><ele>114</ele><time>2020-03-01T09:08:43Z</time></trkpt>
<trkpt lat="42.559309993" lon="12.630980993"><ele>114</ele><time>2020-03-01T09:08:44Z</time></trkpt>
<trkpt lat="42.55931301" lon="12.631024998"><ele>114</ele><time>2020-03-01T09:08:45Z</time></trkpt>
<trkpt lat="42.559317034" lon="12.631069003"><ele>114</ele><time>2020-03-01T09:08:46Z</time></trkpt>
<trkpt lat="42.559319967" lon="12.631113008"><ele>114</ele><time>2020-03-01T09:08:47Z</time></trkpt>
<trkpt lat="42.559322985" lon="12.631157013"><ele>114</ele><time>2020-03-01T09:08:48Z</time></trkpt>
<trkpt lat="42.559326002" lon="12.631200012"><ele>114</ele><time>2020-03-01T09:08:49Z</time></trkpt>
<trkpt lat="42.559328014" lon="12.631244017"><ele>114</ele><time>2020-03-01T09:08:50Z</time></trkpt>
<trkpt lat="42.559330026" lon="12.631288022"><ele>115</ele><time>2020-03-01T09:08:51Z</time></trkpt>
<trkpt lat="42.559332037" lon="12.631332027"><ele>115</ele><time>2020-03-01T09:08:52Z</time></trkpt>
<trkpt lat="42.559333965" lon="12.631376032"><ele>115</ele><time>2020-03-01T09:08:53Z</time></trkpt>
<trkpt lat="42.559334971" lon="12.631420037"><ele>115</ele><time>2020-03-01T09:08:54Z</time></trkpt>
<trkpt lat="42.559335977" lon="12.631464042"><ele>115</ele><time>2020-03-01T09:08:55Z</time></trkpt>
<trkpt lat="42.559336983" lon="12.631507963"><ele>115</ele><time>2020-03-01T09:08:56Z</time></trkpt>
<trkpt lat="42.559337988" lon="12.631551968"><ele>115</ele><time>2020-03-01T09:08:57Z</time></trkpt>
<trkpt lat="42.559337988" lon="12.631595973"><ele>115</ele><time>2020-03-01T09:08:58Z</time></trkpt>
<trkpt lat="42.559337988" lon="12.631639978"><ele>115</ele><time>2020-03-01T09:08:59Z</time></trkpt>
<trkpt lat="42.559337988" lon="12.631683983"><ele>115</ele><time>2020-03-01T09:09:00Z</time></trkpt>
<trkpt lat="42.559336983" lon="12.631727988"><ele>115</ele><time>2020-03-01T09:09:01Z</time></trkpt>
<trkpt lat="42.559335977" lon="12.631771993"><ele>115</ele><time>2020-03-01T09:09:02Z</time></trkpt>
<trkpt lat="42.559334971" lon="12.631815998"><ele>115</ele><time>2020-03-01T09:09:03Z</time></trkpt>
<trkpt lat="42.559333965" lon="12.631860003"><ele>115</ele><time>2020-03-01T09:09:04Z</time></trkpt>
<trkpt lat="42.559332037" lon="12.631904008"><ele>115</ele><time>2020-03-01T09:09:05Z</time></trkpt>
<trkpt lat="42.559330026" lon="12.631948013"><ele>115</ele><time>2020-03-01T09:09:06Z</time></trkpt>
<trkpt lat="42.559328014" lon="12.631991012"><ele>115</ele><time>2020-03-01T09:09:07Z</time></trkpt>
<trkpt lat="42.559326002" lon="12.632035017"><ele>115</ele><time>2020-03-01T09:09:08Z</time></trkpt>
<trkpt lat="42.559322985" lon="12.632078016"><ele>115</ele><time>2020-03-01T09:09:09Z</time></trkpt>
<trkpt lat="42.559320973" lon="12.632121015"><ele>115</ele><time>2020-03-01T09:09:10Z</time></trkpt>
<trkpt lat="42.55931804" lon="12.632164015"><ele>115</ele><time>2020-03-01T09:09:11Z</time></trkpt>
<trkpt lat="42.559314016" lon="12.632207014"><ele>115</ele><time>2020-03-01T09:09:12Z</time></trkpt>
<trkpt lat="42.559310999" lon="12.632249007"><ele>115</ele><time>2020-03-01T09:09:13Z</time></trkpt>
<trkpt lat="42.559306975" lon="12.632291"><ele>115</ele><time>2020-03-01T09:09:14Z</time></trkpt>
<trkpt lat="42.559303036" lon="12.632332994"><ele>115</ele><time>2020-03-01T09:09:15Z</time></trkpt>
<trkpt lat="42.559299013" lon="12.632374987"><ele>115</ele><time>2020-03-01T09:09:16Z</time></trkpt>
<trkpt lat="42.559294989" lon="12.632415975"><ele>115</ele><time>2020-03-01T09:09:17Z</time></trkpt>
<trkpt lat="42.55928996" lon="12.632456962"><ele>115</ele><time>2020-03-01T09:09:18Z</time></trkpt>
<trkpt lat="42.559284009" lon="12.632499039"><ele>115</ele><time>2020-03-01T09:09:19Z</time></trkpt>
<trkpt lat="42.55927898" lon="12.632540027"><ele>115</ele><time>2020-03-01T09:09:20Z</time></trkpt>
<trkpt lat="42.559273029" lon="12.632581014"><ele>115</ele><time>2020-03-01T09:09:21Z</time></trkpt>
<trkpt lat="42.559265988" lon="12.632620996"><ele>115</ele><time>2020-03-01T09:09:22Z</time></trkpt>
<trkpt lat="42.559259031" lon="12.632661983"><ele>115</ele><time>2020-03-01T09:09:23Z</time></trkpt>
<trkpt lat="42.55925199" lon="12.632702971"><ele>115</ele><time>2020-03-01T09:09:24Z</time></trkpt>
<trkpt lat="42.559244027" lon="12.632743958"><ele>115</ele><time>2020-03-01T09:09:25Z</time></trkpt>
<trkpt lat="42.559234975" lon="12.63278503"><ele>115</ele><time>2020-03-01T09:09:26Z</time></trkpt>
<trkpt lat="42.559227012" lon="12.632826017"><ele>116</ele><time>2020-03-01T09:09:27Z</time></trkpt>
<trkpt lat="42.559217038" lon="12.632867005"><ele>116</ele><time>2020-03-01T09:09:28Z</time></trkpt>
<trkpt lat="42.559207985" lon="12.632907992"><ele>116</ele><time>2020-03-01T09:09:29Z</time></trkpt>
<trkpt lat="42.559199017" lon="12.63294898"><ele>116</ele><time>2020-03-01T09:09:30Z</time></trkpt>
<trkpt lat="42.559188958" lon="12.632990973"><ele>116</ele><time>2020-03-01T09:09:31Z</time></trkpt>
<trkpt lat="42.55917999" lon="12.633031961"><ele>116</ele><time>2020-03-01T09:09:32Z</time></trkpt>
<trkpt lat="42.559170015" lon="12.633074038"><ele>116</ele><time>2020-03-01T09:09:33Z</time></trkpt>
<trkpt lat="42.559160963" lon="12.633116031"><ele>116</ele><time>2020-03-01T09:09:34Z</time></trkpt>
<trkpt lat="42.559151994" lon="12.633158024"><ele>116</ele><time>2020-03-01T09:09:35Z</time></trkpt>
<trkpt lat="42.559143025" lon="12.633201024"><ele>116</ele><time>2020-03-01T09:09:36Z</time></trkpt>
<trkpt lat="42.559134979" lon="12.633244023"><ele>116</ele><time>2020-03-01T09:09:37Z</time></trkpt>
<trkpt lat="42.559127016" lon="12.633286016"><ele>116</ele><time>2020-03-01T09:09:38Z</time></trkpt>
<trkpt lat="42.559118969" lon="12.633330021"><ele>116</ele><time>2020-03-01T09:09:39Z</time></trkpt>
<trkpt lat="42.559111007" lon="12.63337302"><ele>116</ele><time>2020-03-01T09:09:40Z</time></trkpt>
<trkpt lat="42.55910296" lon="12.633416019"><ele>116</ele><time>2020-03-01T09:09:41Z</time></trkpt>
<trkpt lat="42.559094997" lon="12.633458013"><ele>116</ele><time>2020-03-01T09:09:42Z</time></trkpt>
<trkpt lat="42.559087034" lon="12.633501012"><ele>116</ele><time>2020-03-01T09:09:43Z</time></trkpt>
<trkpt lat="42.559077982" lon="12.633543005"><ele>116</ele><time>2020-03-01T09:09:44Z</time></trkpt>
<trkpt lat="42.559069013" lon="12.633584999"><ele>116</ele><time>2020-03-01T09:09:45Z</time></trkpt>
<trkpt lat="42.559059961" lon="12.633626992"><ele>116</ele><time>2020-03-01T09:09:46Z</time></trkpt>
<trkpt lat="42.559049986" lon="12.633667979"><ele>116</ele><time>2020-03-01T09:09:47Z</time></trkpt>
<trkpt lat="42.559039006" lon="12.633707961"><ele>116</ele><time>2020-03-01T09:09:48Z</time></trkpt>
<trkpt lat="42.55902702" lon="12.633748027"><ele>116</ele><time>2020-03-01T09:09:49Z</time></trkpt>
<trkpt lat="42.559015034" lon="12.633787002"><ele>116</ele><time>2020-03-01T09:09:50Z</time></trkpt>
<trkpt lat="42.559002042" lon="12.633825978"><ele>116</ele><time>2020-03-01T09:09:51Z</time></trkpt>
<trkpt lat="42.55898796" lon="12.633864032"><ele>116</ele><time>2020-03-01T09:09:52Z</time></trkpt>
<trkpt lat="42.558973962" lon="12.633902002"><ele>116</ele><time>2020-03-01T09:09:53Z</time></trkpt>
<trkpt lat="42.558958959" lon="12.633938966"><ele>116</ele><time>2020-03-01T09:09:54Z</time></trkpt>
<trkpt lat="42.558943033" lon="12.633976014"><ele>116</ele><time>2020-03-01T09:09:55Z</time></trkpt>
<trkpt lat="42.558927024" lon="12.634011973"><ele>116</ele><time>2020-03-01T09:09:56Z</time></trkpt>
<trkpt lat="42.558911014" lon="12.634048015"><ele>116</ele><time>2020-03-01T09:09:57Z</time></trkpt>
<trkpt lat="42.558893999" lon="12.634083973"><ele>116</ele><time>2020-03-01T09:09:58Z</time></trkpt>
<trkpt lat="42.558876984" lon="12.634120015"><ele>116</ele><time>2020-03-01T09:09:59Z</time></trkpt>
<trkpt lat="42.558858963" lon="12.634154968"><ele>116</ele><time>2020-03-01T09:10:00Z</time></trkpt>
<trkpt lat="42.558841025" lon="12.634190004"><ele>116</ele><time>2020-03-01T09:10:01Z</time></trkpt>
<trkpt lat="42.558823004" lon="12.634225041"><ele>116</ele><time>2020-03-01T09:10:02Z</time></trkpt>
<trkpt lat="42.558803977" lon="12.634259993"><ele>116</ele><time>2020-03-01T09:10:03Z</time></trkpt>
<trkpt lat="42.558785034" lon="12.63429503"><ele>116</ele><time>2020-03-01T09:10:04Z</time></trkpt>
<trkpt lat="42.558766007" lon="12.634328976"><ele>116</ele><time>2020-03-01T09:10:05Z</time></trkpt>
<trkpt lat="42.558745975" lon="12.634364013"><ele>116</ele><time>2020-03-01T09:10:06Z</time></trkpt>
<trkpt lat="42.558727032" lon="12.634397959"><ele>116</ele><time>2020-03-01T09:10:07Z</time></trkpt>
<trkpt lat="42.558706999" lon="12.634432996"><ele>116</ele><time>2020-03-01T09:10:08Z</time></trkpt>
<trkpt lat="42.558686966" lon="12.634468032"><ele>116</ele><time>2020-03-01T09:10:09Z</time></trkpt>
<trkpt lat="42.558667017" lon="12.634501979"><ele>116</ele><time>2020-03-01T09:10:10Z</time></trkpt>
<trkpt lat="42.558646984" lon="12.634537015"><ele>117</ele><time>2020-03-01T09:10:11Z</time></trkpt>
<trkpt lat="42.558627035" lon="12.634571968"><ele>117</ele><time>2020-03-01T09:10:12Z</time></trkpt>
<trkpt lat="42.558607003" lon="12.634607004"><ele>117</ele><time>2020-03-01T09:10:13Z</time></trkpt>
<trkpt lat="42.558585964" lon="12.63464204"><ele>117</ele><time>2020-03-01T09:10:14Z</time></trkpt>
<trkpt lat="42.558566015" lon="12.634677999"><ele>117</ele><time>2020-03-01T09:10:15Z</time></trkpt>
<trkpt lat="42.558545982" lon="12.634713035"><ele>117</ele><time>2020-03-01T09:10:16Z</time></trkpt>
<trkpt lat="42.558526034" lon="12.634747988"><ele>117</ele><time>2020-03-01T09:10:17Z</time></trkpt>
<trkpt lat="42.558506001" lon="12.634783024"><ele>117</ele><time>2020-03-01T09:10:18Z</time></trkpt>
<trkpt lat="42.558486974" lon="12.634817977"><ele>117</ele><time>2020-03-01T09:10:19Z</time></trkpt>
<trkpt lat="42.558467025" lon="12.634853013"><ele>117</ele><time>2020-03-01T09:10:20Z</time></trkpt>
<trkpt lat="42.558446992" lon="12.634887965"><ele>117</ele><time>2020-03-01T09:10:21Z</time></trkpt>
<trkpt lat="42.558427965" lon="12.634921996"><ele>117</ele><time>2020-03-01T09:10:22Z</time></trkpt>
<trkpt lat="42.558409022" lon="12.634957032"><ele>117</ele><time>2020-03-01T09:10:23Z</time></trkpt>
<trkpt lat="42.558389995" lon="12.634990979"><ele>117</ele><time>2020-03-01T09:10:24Z</time></trkpt>
<trkpt lat="42.558370968" lon="12.635024004"><ele>117</ele><time>2020-03-01T09:10:25Z</time></trkpt>
<trkpt lat="42.558352025" lon="12.635058034"><ele>117</ele><time>2020-03-01T09:10:26Z</time></trkpt>
<trkpt lat="42.558334004" lon="12.635090975"><ele>117</ele><time>2020-03-01T09:10:27Z</time></trkpt>
<trkpt lat="42.558314977" lon="12.635125006"><ele>117</ele><time>2020-03-01T09:10:28Z</time></trkpt>
<trkpt lat="42.55829704" lon="12.63515803"><ele>117</ele><time>2020-03-01T09:10:29Z</time></trkpt>
<trkpt lat="42.558278013" lon="12.635190971"><ele>117</ele><time>2020-03-01T09:10:30Z</time></trkpt>
<trkpt lat="42.558258986" lon="12.635223996"><ele>117</ele><time>2020-03-01T09:10:31Z</time></trkpt>
<trkpt lat="42.558240965" lon="12.635257021"><ele>117</ele><time>2020-03-01T09:10:32Z</time></trkpt>
<trkpt lat="42.558221016" lon="12.635289961"><ele>117</ele><time>2020-03-01T09:10:33Z</time></trkpt>
<trkpt lat="42.558201989" lon="12.635322986"><ele>117</ele><time>2020-03-01T09:10:34Z</time></trkpt>
<trkpt lat="42.55818204" lon="12.635356011"><ele>117</ele><time>2020-03-01T09:10:35Z</time></trkpt>
<trkpt lat="42.558162007" lon="12.635389036"><ele>117</ele><time>2020-03-01T09:10:36Z</time></trkpt>
<trkpt lat="42.558141975" lon="12.635421976"><ele>117</ele><time>2020-03-01T09:10:37Z</time></trkpt>
<trkpt lat="42.55812102" lon="12.635456007"><ele>117</ele><time>2020-03-01T09:10:38Z</time></trkpt>
<trkpt lat="42.558100987" lon="12.635489032"><ele>116</ele><time>2020-03-01T09:10:39Z</time></trkpt>
<trkpt lat="42.558079027" lon="12.635522978"><ele>116</ele><time>2020-03-01T09:10:40Z</time></trkpt>
<trkpt lat="42.558037033" lon="12.635589028"><ele>116</ele><time>2020-03-01T09:10:42Z</time></trkpt>
<trkpt lat="42.558014989" lon="12.635622974"><ele>116</ele><time>2020-03-01T09:10:43Z</time></trkpt>
<trkpt lat="42.557994034" lon="12.635655999"><ele>116</ele><time>2020-03-01T09:10:44Z</time></trkpt>
<trkpt lat="42.55797199" lon="12.635689024"><ele>116</ele><time>2020-03-01T09:10:45Z</time></trkpt>
<trkpt lat="42.557951035" lon="12.635721965"><ele>116</ele><time>2020-03-01T09:10:46Z</time></trkpt>
<trkpt lat="42.557928991" lon="12.635754989"><ele>116</ele><time>2020-03-01T09:10:47Z</time></trkpt>
<trkpt lat="42.55790703" lon="12.635787008"><ele>116</ele><time>2020-03-01T09:10:48Z</time></trkpt>
<trkpt lat="42.557885991" lon="12.635819027"><ele>116</ele><time>2020-03-01T09:10:49Z</time></trkpt>
<trkpt lat="42.557865037" lon="12.635850962"><ele>116</ele><time>2020-03-01T09:10:50Z</time></trkpt>
<trkpt lat="42.557842992" lon="12.635882981"><ele>116</ele><time>2020-03-01T09:10:51Z</time></trkpt>
<trkpt lat="42.557821032" lon="12.635913994"><ele>116</ele><time>2020-03-01T09:10:52Z</time></trkpt>
<trkpt lat="42.557798987" lon="12.635945007"><ele>116</ele><time>2020-03-01T09:10:53Z</time></trkpt>
<trkpt lat="42.557777027" lon="12.63597602"><ele>116</ele><time>2020-03-01T09:10:54Z</time></trkpt>
<trkpt lat="42.557754982" lon="12.636006027"><ele>116</ele><time>2020-03-01T09:10:55Z</time></trkpt>
<trkpt lat="42.557732016" lon="12.636036035"><ele>116</ele><time>2020-03-01T09:10:56Z</time></trkpt>
<trkpt lat="42.557708966" lon="12.636065036"><ele>116</ele><time>2020-03-01T09:10:57Z</time></trkpt>
<trkpt lat="42.557635959" lon="12.636148017"><ele>116</ele><time>2020-03-01T09:11:00Z</time></trkpt>
<trkpt lat="42.557610981" lon="12.636175007"><ele>116</ele><time>2020-03-01T09:11:01Z</time></trkpt>
<trkpt lat="42.557586003" lon="12.636200991"><ele>116</ele><time>2020-03-01T09:11:02Z</time></trkpt>
<trkpt lat="42.557560019" lon="12.636226974"><ele>116</ele><time>2020-03-01T09:11:03Z</time></trkpt>
<trkpt lat="42.557534035" lon="12.636252036"><ele>116</ele><time>2020-03-01T09:11:04Z</time></trkpt>
<trkpt lat="42.557507968" lon="12.63627802"><ele>116</ele><time>2020-03-01T09:11:05Z</time></trkpt>
<trkpt lat="42.557480978" lon="12.636302998"><ele>116</ele><time>2020-03-01T09:11:06Z</time></trkpt>
<trkpt lat="42.557454994" lon="12.636327976"><ele>116</ele><time>2020-03-01T09:11:07Z</time></trkpt>
<trkpt lat="42.55742901" lon="12.636353038"><ele>116</ele><time>2020-03-01T09:11:08Z</time></trkpt>
<trkpt lat="42.557403026" lon="12.636379022"><ele>116</ele><time>2020-03-01T09:11:09Z</time></trkpt>
<trkpt lat="42.557376958" lon="12.636405006"><ele>117</ele><time>2020-03-01T09:11:10Z</time></trkpt>
<trkpt lat="42.55735198" lon="12.63643099"><ele>117</ele><time>2020-03-01T09:11:11Z</time></trkpt>
<trkpt lat="42.557327002" lon="12.636456974"><ele>117</ele><time>2020-03-01T09:11:12Z</time></trkpt>
<trkpt lat="42.557302024" lon="12.636483964"><ele>117</ele><time>2020-03-01T09:11:13Z</time></trkpt>
<trkpt lat="42.557277968" lon="12.636511959"><ele>117</ele><time>2020-03-01T09:11:14Z</time></trkpt>
<trkpt lat="42.557255002" lon="12.636540039"><ele>117</ele><time>2020-03-01T09:11:15Z</time></trkpt>
<trkpt lat="42.557232035" lon="12.636569962"><ele>117</ele><time>2020-03-01T09:11:16Z</time></trkpt>
<trkpt lat="42.557209991" lon="12.636599969"><ele>117</ele><time>2020-03-01T09:11:17Z</time></trkpt>
<trkpt lat="42.557189036" lon="12.636630982"><ele>117</ele><time>2020-03-01T09:11:18Z</time></trkpt>
<trkpt lat="42.557167998" lon="12.636664007"><ele>117</ele><time>2020-03-01T09:11:19Z</time></trkpt>
<trkpt lat="42.557147965" lon="12.636697032"><ele>117</ele><time>2020-03-01T09:11:20Z</time></trkpt>
<trkpt lat="42.557129022" lon="12.636731984"><ele>117</ele><time>2020-03-01T09:11:21Z</time></trkpt>
<trkpt lat="42.557109995" lon="12.636769032"><ele>117</ele><time>2020-03-01T09:11:22Z</time></trkpt>
<trkpt lat="42.55709298" lon="12.636807002"><ele>117</ele><time>2020-03-01T09:11:23Z</time></trkpt>
<trkpt lat="42.557075964" lon="12.636845978"><ele>117</ele><time>2020-03-01T09:11:24Z</time></trkpt>
<trkpt lat="42.557060039" lon="12.63688596"><ele>117</ele><time>2020-03-01T09:11:25Z</time></trkpt>
<trkpt lat="42.557045035" lon="12.636928037"><ele>117</ele><time>2020-03-01T09:11:26Z</time></trkpt>
<trkpt lat="42.557031037" lon="12.63697003"><ele>117</ele><time>2020-03-01T09:11:27Z</time></trkpt>
<trkpt lat="42.557017962" lon="12.637013029"><ele>117</ele><time>2020-03-01T09:11:28Z</time></trkpt>
<trkpt lat="42.55700497" lon="12.637057034"><ele>117</ele><time>2020-03-01T09:11:29Z</time></trkpt>
<trkpt lat="42.556993989" lon="12.637101039"><ele>117</ele><time>2020-03-01T09:11:30Z</time></trkpt>
<trkpt lat="42.556983009" lon="12.63714496"><ele>117</ele><time>2020-03-01T09:11:31Z</time></trkpt>
<trkpt lat="42.556973035" lon="12.637188965"><ele>118</ele><time>2020-03-01T09:11:32Z</time></trkpt>
<trkpt lat="42.556963982" lon="12.63723297"><ele>118</ele><time>2020-03-01T09:11:33Z</time></trkpt>
<trkpt lat="42.556955013" lon="12.63727597"><ele>118</ele><time>2020-03-01T09:11:34Z</time></trkpt>
<trkpt lat="42.556947973" lon="12.637319975"><ele>118</ele><time>2020-03-01T09:11:35Z</time></trkpt>
<trkpt lat="42.556941016" lon="12.637361968"><ele>118</ele><time>2020-03-01T09:11:36Z</time></trkpt>
<trkpt lat="42.556934981" lon="12.637403961"><ele>118</ele><time>2020-03-01T09:11:37Z</time></trkpt>
<trkpt lat="42.55692903" lon="12.637446038"><ele>118</ele><time>2020-03-01T09:11:38Z</time></trkpt>
<trkpt lat="42.556924" lon="12.637488032"><ele>118</ele><time>2020-03-01T09:11:39Z</time></trkpt>
<trkpt lat="42.556918971" lon="12.637530025"><ele>118</ele><time>2020-03-01T09:11:40Z</time></trkpt>
<trkpt lat="42.556914026" lon="12.637571013"><ele>118</ele><time>2020-03-01T09:11:41Z</time></trkpt>
<trkpt lat="42.556910003" lon="12.637613006"><ele>118</ele><time>2020-03-01T09:11:42Z</time></trkpt>
<trkpt lat="42.556904973" lon="12.637653993"><ele>118</ele><time>2020-03-01T09:11:43Z</time></trkpt>
<trkpt lat="42.556900028" lon="12.637695987"><ele>118</ele><time>2020-03-01T09:11:44Z</time></trkpt>
<trkpt lat="42.556894999" lon="12.63773798"><ele>118</ele><time>2020-03-01T09:11:45Z</time></trkpt>
<trkpt lat="42.55688997" lon="12.637779973"><ele>118</ele><time>2020-03-01T09:11:46Z</time></trkpt>
<trkpt lat="42.556884019" lon="12.637821967"><ele>118</ele><time>2020-03-01T09:11:47Z</time></trkpt>
<trkpt lat="42.556877984" lon="12.637864966"><ele>118</ele><time>2020-03-01T09:11:48Z</time></trkpt>
<trkpt lat="42.556872033" lon="12.637906959"><ele>118</ele><time>2020-03-01T09:11:49Z</time></trkpt>
<trkpt lat="42.556865998" lon="12.637949958"><ele>118</ele><time>2020-03-01T09:11:50Z</time></trkpt>
<trkpt lat="42.556860968" lon="12.637993041"><ele>118</ele><time>2020-03-01T09:11:51Z</time></trkpt>
<trkpt lat="42.556856023" lon="12.638035035"><ele>118</ele><time>2020-03-01T09:11:52Z</time></trkpt>
<trkpt lat="42.556850994" lon="12.638078034"><ele>117</ele><time>2020-03-01T09:11:53Z</time></trkpt>
<trkpt lat="42.556846971" lon="12.638119021"><ele>117</ele><time>2020-03-01T09:11:54Z</time></trkpt>
<trkpt lat="42.556844959" lon="12.638161015"><ele>117</ele><time>2020-03-01T09:11:55Z</time></trkpt>
<trkpt lat="42.556843031" lon="12.638202002"><ele>117</ele><time>2020-03-01T09:11:56Z</time></trkpt>
<trkpt lat="42.556843031" lon="12.638241984"><ele>117</ele><time>2020-03-01T09:11:57Z</time></trkpt>
<trkpt lat="42.556844037" lon="12.63828096"><ele>117</ele><time>2020-03-01T09:11:58Z</time></trkpt>
<trkpt lat="42.556846971" lon="12.638320019"><ele>117</ele><time>2020-03-01T09:11:59Z</time></trkpt>
<trkpt lat="42.556852" lon="12.638356984"><ele>118</ele><time>2020-03-01T09:12:00Z</time></trkpt>
<trkpt lat="42.556859041" lon="12.63839202"><ele>118</ele><time>2020-03-01T09:12:01Z</time></trkpt>
<trkpt lat="42.556868009" lon="12.638424961"><ele>118</ele><time>2020-03-01T09:12:02Z</time></trkpt>
<trkpt lat="42.556881001" lon="12.638453962"><ele>118</ele><time>2020-03-01T09:12:03Z</time></trkpt>
<trkpt lat="42.556897011" lon="12.638479024"><ele>118</ele><time>2020-03-01T09:12:04Z</time></trkpt>
<trkpt lat="42.556916038" lon="12.638500985"><ele>118</ele><time>2020-03-01T09:12:05Z</time></trkpt>
<trkpt lat="42.556937998" lon="12.638519006"><ele>118</ele><time>2020-03-01T09:12:06Z</time></trkpt>
<trkpt lat="42.556960965" lon="12.638535015"><ele>118</ele><time>2020-03-01T09:12:07Z</time></trkpt>
<trkpt lat="42.556984015" lon="12.638549013"><ele>118</ele><time>2020-03-01T09:12:08Z</time></trkpt>
<trkpt lat="42.557007987" lon="12.638564017"><ele>118</ele><time>2020-03-01T09:12:09Z</time></trkpt>
<trkpt lat="42.557029026" lon="12.638580026"><ele>118</ele><time>2020-03-01T09:12:10Z</time></trkpt>
<trkpt lat="42.557048975" lon="12.638597963"><ele>118</ele><time>2020-03-01T09:12:11Z</time></trkpt>
<trkpt lat="42.557066996" lon="12.638617996"><ele>119</ele><time>2020-03-01T09:12:12Z</time></trkpt>
<trkpt lat="42.557084011" lon="12.638639035"><ele>119</ele><time>2020-03-01T09:12:13Z</time></trkpt>
<trkpt lat="42.557101026" lon="12.638663007"><ele>119</ele><time>2020-03-01T09:12:14Z</time></trkpt>
<trkpt lat="42.557119969" lon="12.638686979"><ele>119</ele><time>2020-03-01T09:12:15Z</time></trkpt>
<trkpt lat="42.557140002" lon="12.638713969"><ele>119</ele><time>2020-03-01T09:12:16Z</time></trkpt>
<trkpt lat="42.557162968" lon="12.638740959"><ele>119</ele><time>2020-03-01T09:12:17Z</time></trkpt>
<trkpt lat="42.557189036" lon="12.638769038"><ele>119</ele><time>2020-03-01T09:12:18Z</time></trkpt>
<trkpt lat="42.557216026" lon="12.638797034"><ele>119</ele><time>2020-03-01T09:12:19Z</time></trkpt>
<trkpt lat="42.557245027" lon="12.638824023"><ele>119</ele><time>2020-03-01T09:12:20Z</time></trkpt>
<trkpt lat="42.557274029" lon="12.638852019"><ele>119</ele><time>2020-03-01T09:12:21Z</time></trkpt>
<trkpt lat="42.557304036" lon="12.638878003"><ele>119</ele><time>2020-03-01T09:12:22Z</time></trkpt>
<trkpt lat="42.557334965" lon="12.638902981"><ele>119</ele><time>2020-03-01T09:12:23Z</time></trkpt>
<trkpt lat="42.557364972" lon="12.638926031"><ele>120</ele><time>2020-03-01T09:12:24Z</time></trkpt>
<trkpt lat="42.55739498" lon="12.638947992"><ele>120</ele><time>2020-03-01T09:12:25Z</time></trkpt>
<trkpt lat="42.557424987" lon="12.63896903"><ele>120</ele><time>2020-03-01T09:12:26Z</time></trkpt>
<trkpt lat="42.557454994" lon="12.638988979"><ele>120</ele><time>2020-03-01T09:12:27Z</time></trkpt>
<trkpt lat="42.557483995" lon="12.639009012"><ele>120</ele><time>2020-03-01T09:12:28Z</time></trkpt>
<trkpt lat="42.557514003" lon="12.639028039"><ele>120</ele><time>2020-03-01T09:12:29Z</time></trkpt>
<trkpt lat="42.557603018" lon="12.639082018"><ele>120</ele><time>2020-03-01T09:12:32Z</time></trkpt>
<trkpt lat="42.557633026" lon="12.639100039"><ele>120</ele><time>2020-03-01T09:12:33Z</time></trkpt>
<trkpt lat="42.557662027" lon="12.639117977"><ele>120</ele><time>2020-03-01T09:12:34Z</time></trkpt>
<trkpt lat="42.557750037" lon="12.639172962"><ele>120</ele><time>2020-03-01T09:12:37Z</time></trkpt>
<trkpt lat="42.557779038" lon="12.639191989"><ele>120</ele><time>2020-03-01T09:12:38Z</time></trkpt>
<trkpt lat="42.557808962" lon="12.639211016"><ele>120</ele><time>2020-03-01T09:12:39Z</time></trkpt>
<trkpt lat="42.557837963" lon="12.639229959"><ele>120</ele><time>2020-03-01T09:12:40Z</time></trkpt>
<trkpt lat="42.55786797" lon="12.639248986"><ele>121</ele><time>2020-03-01T09:12:41Z</time></trkpt>
<trkpt lat="42.557896972" lon="12.639267007"><ele>121</ele><time>2020-03-01T09:12:42Z</time></trkpt>
<trkpt lat="42.557926979" lon="12.639286034"><ele>121</ele><time>2020-03-01T09:12:43Z</time></trkpt>
<trkpt lat="42.557956986" lon="12.639303971"><ele>121</ele><time>2020-03-01T09:12:44Z</time></trkpt>
<trkpt lat="42.557986993" lon="12.639321992"><ele>121</ele><time>2020-03-01T09:12:45Z</time></trkpt>
<trkpt lat="42.558017001" lon="12.639340013"><ele>121</ele><time>2020-03-01T09:12:46Z</time></trkpt>
<trkpt lat="42.558048014" lon="12.639358034"><ele>121</ele><time>2020-03-01T09:12:47Z</time></trkpt>
<trkpt lat="42.558078021" lon="12.639374966"><ele>121</ele><time>2020-03-01T09:12:48Z</time></trkpt>
<trkpt lat="42.558109034" lon="12.639391981"><ele>121</ele><time>2020-03-01T09:12:49Z</time></trkpt>
<trkpt lat="42.558139963" lon="12.639408996"><ele>121</ele><time>2020-03-01T09:12:50Z</time></trkpt>
<trkpt lat="42.558170976" lon="12.639426012"><ele>121</ele><time>2020-03-01T09:12:51Z</time></trkpt>
<trkpt lat="42.558200983" lon="12.639443027"><ele>121</ele><time>2020-03-01T09:12:52Z</time></trkpt>
<trkpt lat="42.558230991" lon="12.639460964"><ele>121</ele><time>2020-03-01T09:12:53Z</time></trkpt>
<trkpt lat="42.558260998" lon="12.639478985"><ele>121</ele><time>2020-03-01T09:12:54Z</time></trkpt>
<trkpt lat="42.558291005" lon="12.639497006"><ele>121</ele><time>2020-03-01T09:12:55Z</time></trkpt>
<trkpt lat="42.558320006" lon="12.639517039"><ele>121</ele><time>2020-03-01T09:12:56Z</time></trkpt>
<trkpt lat="42.558348002" lon="12.639536988"><ele>121</ele><time>2020-03-01T09:12:57Z</time></trkpt>
<trkpt lat="42.558374992" lon="12.639558027"><ele>121</ele><time>2020-03-01T09:12:58Z</time></trkpt>
<trkpt lat="42.558401981" lon="12.639579987"><ele>121</ele><time>2020-03-01T09:12:59Z</time></trkpt>
<trkpt lat="42.558428971" lon="12.639601026"><ele>121</ele><time>2020-03-01T09:13:00Z</time></trkpt>
<trkpt lat="42.558455961" lon="12.639619969"><ele>121</ele><time>2020-03-01T09:13:01Z</time></trkpt>
<trkpt lat="42.558483034" lon="12.639634972"><ele>120</ele><time>2020-03-01T09:13:02Z</time></trkpt>
<trkpt lat="42.558510024" lon="12.63964897"><ele>120</ele><time>2020-03-01T09:13:03Z</time></trkpt>
<trkpt lat="42.558537014" lon="12.639665985"><ele>120</ele><time>2020-03-01T09:13:04Z</time></trkpt>
<trkpt lat="42.558562998" lon="12.639689036"><ele>120</ele><time>2020-03-01T09:13:05Z</time></trkpt>
<trkpt lat="42.558587976" lon="12.639717031"><ele>120</ele><time>2020-03-01T09:13:06Z</time></trkpt>
<trkpt lat="42.558612032" lon="12.639749972"><ele>120</ele><time>2020-03-01T09:13:07Z</time></trkpt>
<trkpt lat="42.55863701" lon="12.639785009"><ele>120</ele><time>2020-03-01T09:13:08Z</time></trkpt>
<trkpt lat="42.558660982" lon="12.639822979"><ele>120</ele><time>2020-03-01T09:13:09Z</time></trkpt>
<trkpt lat="42.55868596" lon="12.639861032"><ele>120</ele><time>2020-03-01T09:13:10Z</time></trkpt>
<trkpt lat="42.558711022" lon="12.639899002"><ele>120</ele><time>2020-03-01T09:13:11Z</time></trkpt>
<trkpt lat="42.558737006" lon="12.639935967"><ele>120</ele><time>2020-03-01T09:13:12Z</time></trkpt>
<trkpt lat="42.558763996" lon="12.639969997"><ele>120</ele><time>2020-03-01T09:13:13Z</time></trkpt>
<trkpt lat="42.55878998" lon="12.640003022"><ele>120</ele><time>2020-03-01T09:13:14Z</time></trkpt>
<trkpt lat="42.558816969" lon="12.640032023"><ele>120</ele><time>2020-03-01T09:13:15Z</time></trkpt>
<trkpt lat="42.558843959" lon="12.640057001"><ele>120</ele><time>2020-03-01T09:13:16Z</time></trkpt>
<trkpt lat="42.558872038" lon="12.64007804"><ele>120</ele><time>2020-03-01T09:13:17Z</time></trkpt>
<trkpt lat="42.558955019" lon="12.640122967"><ele>120</ele><time>2020-03-01T09:13:20Z</time></trkpt>
<trkpt lat="42.558983015" lon="12.640135037"><ele>120</ele><time>2020-03-01T09:13:21Z</time></trkpt>
<trkpt lat="42.55901101" lon="12.640148029"><ele>120</ele><time>2020-03-01T09:13:22Z</time></trkpt>
<trkpt lat="42.559038" lon="12.640161021"><ele>120</ele><time>2020-03-01T09:13:23Z</time></trkpt>
<trkpt lat="42.559065996" lon="12.640175018"><ele>120</ele><time>2020-03-01T09:13:24Z</time></trkpt>
<trkpt lat="42.559093991" lon="12.640190022"><ele>120</ele><time>2020-03-01T09:13:25Z</time></trkpt>
<trkpt lat="42.559175966" lon="12.640239978"><ele>120</ele><time>2020-03-01T09:13:28Z</time></trkpt>
<trkpt lat="42.55920304" lon="12.640259005"><ele>120</ele><time>2020-03-01T09:13:29Z</time></trkpt>
<trkpt lat="42.559229024" lon="12.640277026"><ele>121</ele><time>2020-03-01T09:13:30Z</time></trkpt>
<trkpt lat="42.559256013" lon="12.640296975"><ele>121</ele><time>2020-03-01T09:13:31Z</time></trkpt>
<trkpt lat="42.559281997" lon="12.640317008"><ele>121</ele><time>2020-03-01T09:13:32Z</time></trkpt>
<trkpt lat="42.559307981" lon="12.640337963"><ele>121</ele><time>2020-03-01T09:13:33Z</time></trkpt>
<trkpt lat="42.559333965" lon="12.640359001"><ele>121</ele><time>2020-03-01T09:13:34Z</time></trkpt>
<trkpt lat="42.559359027" lon="12.64038004"><ele>121</ele><time>2020-03-01T09:13:35Z</time></trkpt>
<trkpt lat="42.559385011" lon="12.640402"><ele>121</ele><time>2020-03-01T09:13:36Z</time></trkpt>
<trkpt lat="42.559409989" lon="12.640424967"><ele>121</ele><time>2020-03-01T09:13:37Z</time></trkpt>
<trkpt lat="42.559434967" lon="12.640447011"><ele>121</ele><time>2020-03-01T09:13:38Z</time></trkpt>
<trkpt lat="42.559459023" lon="12.640469978"><ele>121</ele><time>2020-03-01T09:13:39Z</time></trkpt>
<trkpt lat="42.559484001" lon="12.640493028"><ele>122</ele><time>2020-03-01T09:13:40Z</time></trkpt>
<trkpt lat="42.559508979" lon="12.640517"><ele>122</ele><time>2020-03-01T09:13:41Z</time></trkpt>
<trkpt lat="42.559534041" lon="12.640539967"><ele>122</ele><time>2020-03-01T09:13:42Z</time></trkpt>
<trkpt lat="42.559559019" lon="12.640564023"><ele>122</ele><time>2020-03-01T09:13:43Z</time></trkpt>
<trkpt lat="42.559583997" lon="12.640586989"><ele>122</ele><time>2020-03-01T09:13:44Z</time></trkpt>
<trkpt lat="42.559608975" lon="12.640610961"><ele>122</ele><time>2020-03-01T09:13:45Z</time></trkpt>
<trkpt lat="42.559634959" lon="12.640634011"><ele>122</ele><time>2020-03-01T09:13:46Z</time></trkpt>
<trkpt lat="42.559661027" lon="12.640657984"><ele>122</ele><time>2020-03-01T09:13:47Z</time></trkpt>
<trkpt lat="42.559687011" lon="12.64068204"><ele>122</ele><time>2020-03-01T09:13:48Z</time></trkpt>
<trkpt lat="42.559761023" lon="12.640759991"><ele>122</ele><time>2020-03-01T09:13:51Z</time></trkpt>
<trkpt lat="42.559782984" lon="12.640788993"><ele>123</ele><time>2020-03-01T09:13:52Z</time></trkpt>
<trkpt lat="42.559803016" lon="12.640820006"><ele>123</ele><time>2020-03-01T09:13:53Z</time></trkpt>
<trkpt lat="42.55982196" lon="12.640853031"><ele>123</ele><time>2020-03-01T09:13:54Z</time></trkpt>
<trkpt lat="42.559839981" lon="12.640887983"><ele>123</ele><time>2020-03-01T09:13:55Z</time></trkpt>
<trkpt lat="42.559856996" lon="12.640922014"><ele>123</ele><time>2020-03-01T09:13:56Z</time></trkpt>
<trkpt lat="42.559874011" lon="12.640956966"><ele>123</ele><time>2020-03-01T09:13:57Z</time></trkpt>
<trkpt lat="42.559891026" lon="12.640989991"><ele>123</ele><time>2020-03-01T09:13:58Z</time></trkpt>
<trkpt lat="42.559908964" lon="12.641023016"><ele>124</ele><time>2020-03-01T09:13:59Z</time></trkpt>
<trkpt lat="42.559926985" lon="12.641054029"><ele>124</ele><time>2020-03-01T09:14:00Z</time></trkpt>
<trkpt lat="42.559947018" lon="12.64108303"><ele>124</ele><time>2020-03-01T09:14:01Z</time></trkpt>
<trkpt lat="42.559966967" lon="12.641111026"><ele>124</ele><time>2020-03-01T09:14:02Z</time></trkpt>
<trkpt lat="42.559986999" lon="12.641138015"><ele>124</ele><time>2020-03-01T09:14:03Z</time></trkpt>
<trkpt lat="42.56000896" lon="12.641162993"><ele>124</ele><time>2020-03-01T09:14:04Z</time></trkpt>
<trkpt lat="42.56003201" lon="12.641186966"><ele>124</ele><time>2020-03-01T09:14:05Z</time></trkpt>
<trkpt lat="42.560054976" lon="12.64120901"><ele>124</ele><time>2020-03-01T09:14:06Z</time></trkpt>
<trkpt lat="42.560079033" lon="12.641230971"><ele>125</ele><time>2020-03-01T09:14:07Z</time></trkpt>
<trkpt lat="42.560105016" lon="12.641251003"><ele>125</ele><time>2020-03-01T09:14:08Z</time></trkpt>
<trkpt lat="42.560131" lon="12.64127003"><ele>125</ele><time>2020-03-01T09:14:09Z</time></trkpt>
<trkpt lat="42.56015799" lon="12.641287968"><ele>125</ele><time>2020-03-01T09:14:10Z</time></trkpt>
<trkpt lat="42.560186991" lon="12.641305989"><ele>125</ele><time>2020-03-01T09:14:11Z</time></trkpt>
<trkpt lat="42.560216999" lon="12.641321998"><ele>125</ele><time>2020-03-01T09:14:12Z</time></trkpt>
<trkpt lat="42.560247006" lon="12.641338008"><ele>125</ele><time>2020-03-01T09:14:13Z</time></trkpt>
<trkpt lat="42.560278019" lon="12.641354017"><ele>125</ele><time>2020-03-01T09:14:14Z</time></trkpt>
<trkpt lat="42.560310038" lon="12.641369021"><ele>125</ele><time>2020-03-01T09:14:15Z</time></trkpt>
<trkpt lat="42.560342979" lon="12.641384024"><ele>125</ele><time>2020-03-01T09:14:16Z</time></trkpt>
<trkpt lat="42.560376003" lon="12.641399028"><ele>125</ele><time>2020-03-01T09:14:17Z</time></trkpt>
<trkpt lat="42.560409028" lon="12.641414031"><ele>125</ele><time>2020-03-01T09:14:18Z</time></trkpt>
<trkpt lat="42.560442975" lon="12.641429035"><ele>125</ele><time>2020-03-01T09:14:19Z</time></trkpt>
<trkpt lat="42.560477005" lon="12.641444039"><ele>125</ele><time>2020-03-01T09:14:20Z</time></trkpt>
<trkpt lat="42.56051003" lon="12.641459964"><ele>125</ele><time>2020-03-01T09:14:21Z</time></trkpt>
<trkpt lat="42.560543977" lon="12.641475974"><ele>126</ele><time>2020-03-01T09:14:22Z</time></trkpt>
<trkpt lat="42.560577001" lon="12.641492989"><ele>126</ele><time>2020-03-01T09:14:23Z</time></trkpt>
<trkpt lat="42.560610026" lon="12.64151101"><ele>126</ele><time>2020-03-01T09:14:24Z</time></trkpt>
<trkpt lat="42.560642967" lon="12.641530037"><ele>126</ele><time>2020-03-01T09:14:25Z</time></trkpt>
<trkpt lat="42.560674986" lon="12.64154898"><ele>126</ele><time>2020-03-01T09:14:26Z</time></trkpt>
<trkpt lat="42.560707005" lon="12.641568007"><ele>126</ele><time>2020-03-01T09:14:27Z</time></trkpt>
<trkpt lat="42.560739024" lon="12.64158804"><ele>126</ele><time>2020-03-01T09:14:28Z</time></trkpt>
<trkpt lat="42.560770959" lon="12.641607989"><ele>126</ele><time>2020-03-01T09:14:29Z</time></trkpt>
<trkpt lat="42.560801972" lon="12.641628021"><ele>126</ele><time>2020-03-01T09:14:30Z</time></trkpt>
<trkpt lat="42.560832985" lon="12.641648976"><ele>126</ele><time>2020-03-01T09:14:31Z</time></trkpt>
<trkpt lat="42.560862992" lon="12.641670015"><ele>126</ele><time>2020-03-01T09:14:32Z</time></trkpt>
<trkpt lat="42.560892999" lon="12.641690969"><ele>126</ele><time>2020-03-01T09:14:33Z</time></trkpt>
<trkpt lat="42.560923006" lon="12.641712008"><ele>126</ele><time>2020-03-01T09:14:34Z</time></trkpt>
<trkpt lat="42.560952008" lon="12.641732963"><ele>126</ele><time>2020-03-01T09:14:35Z</time></trkpt>
<trkpt lat="42.560981009" lon="12.641754001"><ele>127</ele><time>2020-03-01T09:14:36Z</time></trkpt>
<trkpt lat="42.561010011" lon="12.64177504"><ele>127</ele><time>2020-03-01T09:14:37Z</time></trkpt>
<trkpt lat="42.561039012" lon="12.641795995"><ele>127</ele><time>2020-03-01T09:14:38Z</time></trkpt>
<trkpt lat="42.561067007" lon="12.641817033"><ele>127</ele><time>2020-03-01T09:14:39Z</time></trkpt>
<trkpt lat="42.561095003" lon="12.641837988"><ele>127</ele><time>2020-03-01T09:14:40Z</time></trkpt>
<trkpt lat="42.561121993" lon="12.641859027"><ele>127</ele><time>2020-03-01T09:14:41Z</time></trkpt>
<trkpt lat="42.561149988" lon="12.641880987"><ele>127</ele><time>2020-03-01T09:14:42Z</time></trkpt>
<trkpt lat="42.561176978" lon="12.641902026"><ele>127</ele><time>2020-03-01T09:14:43Z</time></trkpt>
<trkpt lat="42.561204974" lon="12.641922981"><ele>127</ele><time>2020-03-01T09:14:44Z</time></trkpt>
<trkpt lat="42.561231963" lon="12.641945025"><ele>127</ele><time>2020-03-01T09:14:45Z</time></trkpt>
<trkpt lat="42.561259037" lon="12.641966986"><ele>127</ele><time>2020-03-01T09:14:46Z</time></trkpt>
<trkpt lat="42.561286027" lon="12.641988024"><ele>127</ele><time>2020-03-01T09:14:47Z</time></trkpt>
<trkpt lat="42.561313016" lon="12.642009985"><ele>127</ele><time>2020-03-01T09:14:48Z</time></trkpt>
<trkpt lat="42.561340006" lon="12.642031023"><ele>127</ele><time>2020-03-01T09:14:49Z</time></trkpt>
<trkpt lat="42.561366996" lon="12.642050972"><ele>127</ele><time>2020-03-01T09:14:50Z</time></trkpt>
<trkpt lat="42.561393986" lon="12.642071005"><ele>127</ele><time>2020-03-01T09:14:51Z</time></trkpt>
<trkpt lat="42.561421981" lon="12.642091038"><ele>127</ele><time>2020-03-01T09:14:52Z</time></trkpt>
<trkpt lat="42.561450982" lon="12.642108975"><ele>127</ele><time>2020-03-01T09:14:53Z</time></trkpt>
<trkpt lat="42.561538992" lon="12.642159015"><ele>127</ele><time>2020-03-01T09:14:56Z</time></trkpt>
<trkpt lat="42.561570005" lon="12.642173013"><ele>127</ele><time>2020-03-01T09:14:57Z</time></trkpt>
<trkpt lat="42.561601019" lon="12.642184999"><ele>127</ele><time>2020-03-01T09:14:58Z</time></trkpt>
<trkpt lat="42.561633037" lon="12.642196985"><ele>127</ele><time>2020-03-01T09:14:59Z</time></trkpt>
<trkpt lat="42.561664972" lon="12.642208971"><ele>127</ele><time>2020-03-01T09:15:00Z</time></trkpt>
<trkpt lat="42.561697997" lon="12.642221041"><ele>127</ele><time>2020-03-01T09:15:01Z</time></trkpt>
<trkpt lat="42.561730016" lon="12.642235961"><ele>127</ele><time>2020-03-01T09:15:02Z</time></trkpt>
<trkpt lat="42.561762035" lon="12.64225197"><ele>127</ele><time>2020-03-01T09:15:03Z</time></trkpt>
<trkpt lat="42.561792964" lon="12.642270997"><ele>127</ele><time>2020-03-01T09:15:04Z</time></trkpt>
<trkpt lat="42.561822971" lon="12.642292036"><ele>127</ele><time>2020-03-01T09:15:05Z</time></trkpt>
<trkpt lat="42.561851973" lon="12.642316008"><ele>127</ele><time>2020-03-01T09:15:06Z</time></trkpt>
<trkpt lat="42.561878962" lon="12.64233998"><ele>126</ele><time>2020-03-01T09:15:07Z</time></trkpt>
<trkpt lat="42.561904024" lon="12.642364958"><ele>126</ele><time>2020-03-01T09:15:08Z</time></trkpt>
<trkpt lat="42.561926991" lon="12.64239002"><ele>126</ele><time>2020-03-01T09:15:09Z</time></trkpt>
<trkpt lat="42.561948029" lon="12.642414998"><ele>126</ele><time>2020-03-01T09:15:10Z</time></trkpt>
<trkpt lat="42.561965967" lon="12.642438971"><ele>126</ele><time>2020-03-01T09:15:11Z</time></trkpt>
<trkpt lat="42.561983988" lon="12.642464032"><ele>126</ele><time>2020-03-01T09:15:12Z</time></trkpt>
<trkpt lat="42.562001003" lon="12.64248901"><ele>126</ele><time>2020-03-01T09:15:13Z</time></trkpt>
<trkpt lat="42.562019024" lon="12.642516"><ele>126</ele><time>2020-03-01T09:15:14Z</time></trkpt>
<trkpt lat="42.562038973" lon="12.642543996"><ele>126</ele><time>2020-03-01T09:15:15Z</time></trkpt>
<trkpt lat="42.562060012" lon="12.642574003"><ele>126</ele><time>2020-03-01T09:15:16Z</time></trkpt>
<trkpt lat="42.562128995" lon="12.642672993"><ele>127</ele><time>2020-03-01T09:15:19Z</time></trkpt>
<trkpt lat="42.562151961" lon="12.64270803"><ele>127</ele><time>2020-03-01T09:15:20Z</time></trkpt>
<trkpt lat="42.562174005" lon="12.642742982"><ele>127</ele><time>2020-03-01T09:15:21Z</time></trkpt>
<trkpt lat="42.56219496" lon="12.642777013"><ele>127</ele><time>2020-03-01T09:15:22Z</time></trkpt>
<trkpt lat="42.562214993" lon="12.642810959"><ele>127</ele><time>2020-03-01T09:15:23Z</time></trkpt>
<trkpt lat="42.56223402" lon="12.64284499"><ele>127</ele><time>2020-03-01T09:15:24Z</time></trkpt>
<trkpt lat="42.562253969" lon="12.642877009"><ele>127</ele><time>2020-03-01T09:15:25Z</time></trkpt>
<trkpt lat="42.562274002" lon="12.642908022"><ele>127</ele><time>2020-03-01T09:15:26Z</time></trkpt>
<trkpt lat="42.562296968" lon="12.642937023"><ele>127</ele><time>2020-03-01T09:15:27Z</time></trkpt>
<trkpt lat="42.562321024" lon="12.642965019"><ele>127</ele><time>2020-03-01T09:15:28Z</time></trkpt>
<trkpt lat="42.562347008" lon="12.642991003"><ele>127</ele><time>2020-03-01T09:15:29Z</time></trkpt>
<trkpt lat="42.562373998" lon="12.643015981"><ele>127</ele><time>2020-03-01T09:15:30Z</time></trkpt>
<trkpt lat="42.562400987" lon="12.643040037"><ele>127</ele><time>2020-03-01T09:15:31Z</time></trkpt>
<trkpt lat="42.562428983" lon="12.643063003"><ele>127</ele><time>2020-03-01T09:15:32Z</time></trkpt>
<trkpt lat="42.562455973" lon="12.64308597"><ele>127</ele><time>2020-03-01T09:15:33Z</time></trkpt>
<trkpt lat="42.562482962" lon="12.643108014"><ele>127</ele><time>2020-03-01T09:15:34Z</time></trkpt>
<trkpt lat="42.56250903" lon="12.64313098"><ele>127</ele><time>2020-03-01T09:15:35Z</time></trkpt>
<trkpt lat="42.562534008" lon="12.643152019"><ele>127</ele><time>2020-03-01T09:15:36Z</time></trkpt>
<trkpt lat="42.562558986" lon="12.643172974"><ele>127</ele><time>2020-03-01T09:15:37Z</time></trkpt>
<trkpt lat="42.562582958" lon="12.643193007"><ele>127</ele><time>2020-03-01T09:15:38Z</time></trkpt>
<trkpt lat="42.56260802" lon="12.643211028"><ele>127</ele><time>2020-03-01T09:15:39Z</time></trkpt>
<trkpt lat="42.562632998" lon="12.643227959"><ele>127</ele><time>2020-03-01T09:15:40Z</time></trkpt>
<trkpt lat="42.562657977" lon="12.643242963"><ele>127</ele><time>2020-03-01T09:15:41Z</time></trkpt>
<trkpt lat="42.56268396" lon="12.643258972"><ele>127</ele><time>2020-03-01T09:15:42Z</time></trkpt>
<trkpt lat="42.562710028" lon="12.643274982"><ele>127</ele><time>2020-03-01T09:15:43Z</time></trkpt>
<trkpt lat="42.562736012" lon="12.643290991"><ele>127</ele><time>2020-03-01T09:15:44Z</time></trkpt>
<trkpt lat="42.562761996" lon="12.643309012"><ele>127</ele><time>2020-03-01T09:15:45Z</time></trkpt>
<trkpt lat="42.562841959" lon="12.643373972"><ele>127</ele><time>2020-03-01T09:15:48Z</time></trkpt>
<trkpt lat="42.562869033" lon="12.643397022"><ele>127</ele><time>2020-03-01T09:15:49Z</time></trkpt>
<trkpt lat="42.562895017" lon="12.643418983"><ele>128</ele><time>2020-03-01T09:15:50Z</time></trkpt>
<trkpt lat="42.562921001" lon="12.643441027"><ele>128</ele><time>2020-03-01T09:15:51Z</time></trkpt>
<trkpt lat="42.562946985" lon="12.64345997"><ele>128</ele><time>2020-03-01T09:15:52Z</time></trkpt>
<trkpt lat="42.562972968" lon="12.643478997"><ele>128</ele><time>2020-03-01T09:15:53Z</time></trkpt>
<trkpt lat="42.562997025" lon="12.643497018"><ele>128</ele><time>2020-03-01T09:15:54Z</time></trkpt>
<trkpt lat="42.563020997" lon="12.643515961"><ele>128</ele><time>2020-03-01T09:15:55Z</time></trkpt>
<trkpt lat="42.563043963" lon="12.643535994"><ele>128</ele><time>2020-03-01T09:15:56Z</time></trkpt>
<trkpt lat="42.563066008" lon="12.643558038"><ele>128</ele><time>2020-03-01T09:15:57Z</time></trkpt>
<trkpt lat="42.56308604" lon="12.643582011"><ele>128</ele><time>2020-03-01T09:15:58Z</time></trkpt>
<trkpt lat="42.563103978" lon="12.643607995"><ele>128</ele><time>2020-03-01T09:15:59Z</time></trkpt>
<trkpt lat="42.563117975" lon="12.64363599"><ele>128</ele><time>2020-03-01T09:16:00Z</time></trkpt>
<trkpt lat="42.563127028" lon="12.643664991"><ele>129</ele><time>2020-03-01T09:16:01Z</time></trkpt>
<trkpt lat="42.563129961" lon="12.643694999"><ele>129</ele><time>2020-03-01T09:16:02Z</time></trkpt>
<trkpt lat="42.563126022" lon="12.643726012"><ele>129</ele><time>2020-03-01T09:16:03Z</time></trkpt>
<trkpt lat="42.563115042" lon="12.643756019"><ele>129</ele><time>2020-03-01T09:16:04Z</time></trkpt>
<trkpt lat="42.563097021" lon="12.64378502"><ele>129</ele><time>2020-03-01T09:16:05Z</time></trkpt>
<trkpt lat="42.563072965" lon="12.643811004"><ele>129</ele><time>2020-03-01T09:16:06Z</time></trkpt>
<trkpt lat="42.563045975" lon="12.643832965"><ele>129</ele><time>2020-03-01T09:16:07Z</time></trkpt>
<trkpt lat="42.563015968" lon="12.643846963"><ele>130</ele><time>2020-03-01T09:16:08Z</time></trkpt>
<trkpt lat="42.56298596" lon="12.643855009"><ele>130</ele><time>2020-03-01T09:16:09Z</time></trkpt>
<trkpt lat="42.562955031" lon="12.643855009"><ele>130</ele><time>2020-03-01T09:16:10Z</time></trkpt>
<trkpt lat="42.562923012" lon="12.643850986"><ele>130</ele><time>2020-03-01T09:16:11Z</time></trkpt>
<trkpt lat="42.562891999" lon="12.643841011"><ele>130</ele><time>2020-03-01T09:16:12Z</time></trkpt>
<trkpt lat="42.562860986" lon="12.643829025"><ele>130</ele><time>2020-03-01T09:16:13Z</time></trkpt>
<trkpt lat="42.562830979" lon="12.643814022"><ele>130</ele><time>2020-03-01T09:16:14Z</time></trkpt>
<trkpt lat="42.562801978" lon="12.643799018"><ele>130</ele><time>2020-03-01T09:16:15Z</time></trkpt>
<trkpt lat="42.562773982" lon="12.643782003"><ele>130</ele><time>2020-03-01T09:16:16Z</time></trkpt>
<trkpt lat="42.562746992" lon="12.643764988"><ele>130</ele><time>2020-03-01T09:16:17Z</time></trkpt>
<trkpt lat="42.562720003" lon="12.643745961"><ele>130</ele><time>2020-03-01T09:16:18Z</time></trkpt>
<trkpt lat="42.562694019" lon="12.643727018"><ele>130</ele><time>2020-03-01T09:16:19Z</time></trkpt>
<trkpt lat="42.562668035" lon="12.643705979"><ele>129</ele><time>2020-03-01T09:16:20Z</time></trkpt>
<trkpt lat="42.562640961" lon="12.643683013"><ele>129</ele><time>2020-03-01T09:16:21Z</time></trkpt>
<trkpt lat="42.562614977" lon="12.643659962"><ele>129</ele><time>2020-03-01T09:16:22Z</time></trkpt>
<trkpt lat="42.562587988" lon="12.643634984"><ele>129</ele><time>2020-03-01T09:16:23Z</time></trkpt>
<trkpt lat="42.562562004" lon="12.643610006"><ele>129</ele><time>2020-03-01T09:16:24Z</time></trkpt>
<trkpt lat="42.56253602" lon="12.643584022"><ele>129</ele><time>2020-03-01T09:16:25Z</time></trkpt>
<trkpt lat="42.56250903" lon="12.643558038"><ele>129</ele><time>2020-03-01T09:16:26Z</time></trkpt>
<trkpt lat="42.562482962" lon="12.643531971"><ele>129</ele><time>2020-03-01T09:16:27Z</time></trkpt>
<trkpt lat="42.562456978" lon="12.643505987"><ele>129</ele><time>2020-03-01T09:16:28Z</time></trkpt>
<trkpt lat="42.562432" lon="12.643480003"><ele>128</ele><time>2020-03-01T09:16:29Z</time></trkpt>
<trkpt lat="42.562406017" lon="12.643455025"><ele>128</ele><time>2020-03-01T09:16:30Z</time></trkpt>
<trkpt lat="42.562381038" lon="12.643430969"><ele>128</ele><time>2020-03-01T09:16:31Z</time></trkpt>
<trkpt lat="42.562355977" lon="12.643406997"><ele>128</ele><time>2020-03-01T09:16:32Z</time></trkpt>
<trkpt lat="42.562332004" lon="12.643385036"><ele>128</ele><time>2020-03-01T09:16:33Z</time></trkpt>
<trkpt lat="42.562308032" lon="12.643363997"><ele>128</ele><time>2020-03-01T09:16:34Z</time></trkpt>
<trkpt lat="42.56228297" lon="12.643342959"><ele>128</ele><time>2020-03-01T09:16:35Z</time></trkpt>
<trkpt lat="42.562258998" lon="12.643324016"><ele>128</ele><time>2020-03-01T09:16:36Z</time></trkpt>
<trkpt lat="42.562235026" lon="12.643305995"><ele>129</ele><time>2020-03-01T09:16:37Z</time></trkpt>
<trkpt lat="42.56221097" lon="12.643288979"><ele>129</ele><time>2020-03-01T09:16:38Z</time></trkpt>
<trkpt lat="42.562186997" lon="12.64327297"><ele>129</ele><time>2020-03-01T09:16:39Z</time></trkpt>
<trkpt lat="42.562162019" lon="12.64325696"><ele>129</ele><time>2020-03-01T09:16:40Z</time></trkpt>
<trkpt lat="42.562136035" lon="12.643241035"><ele>129</ele><time>2020-03-01T09:16:41Z</time></trkpt>
<trkpt lat="42.562051965" lon="12.643189989"><ele>129</ele><time>2020-03-01T09:16:44Z</time></trkpt>
<trkpt lat="42.562022042" lon="12.643170962"><ele>129</ele><time>2020-03-01T09:16:45Z</time></trkpt>
<trkpt lat="42.561991028" lon="12.643151013"><ele>129</ele><time>2020-03-01T09:16:46Z</time></trkpt>
<trkpt lat="42.56195901" lon="12.643128969"><ele>129</ele><time>2020-03-01T09:16:47Z</time></trkpt>
<trkpt lat="42.561926991" lon="12.643107008"><ele>129</ele><time>2020-03-01T09:16:48Z</time></trkpt>
<trkpt lat="42.561894972" lon="12.643084042"><ele>129</ele><time>2020-03-01T09:16:49Z</time></trkpt>
<trkpt lat="42.561863959" lon="12.643059986"><ele>129</ele><time>2020-03-01T09:16:50Z</time></trkpt>
<trkpt lat="42.561835041" lon="12.643036013"><ele>129</ele><time>2020-03-01T09:16:51Z</time></trkpt>
<trkpt lat="42.56180604" lon="12.643012041"><ele>129</ele><time>2020-03-01T09:16:52Z</time></trkpt>
<trkpt lat="42.561777961" lon="12.642987985"><ele>129</ele><time>2020-03-01T09:16:53Z</time></trkpt>
<trkpt lat="42.561750971" lon="12.642964013"><ele>129</ele><time>2020-03-01T09:16:54Z</time></trkpt>
<trkpt lat="42.561723981" lon="12.642940041"><ele>129</ele><time>2020-03-01T09:16:55Z</time></trkpt>
<trkpt lat="42.561644018" lon="12.642866028"><ele>129</ele><time>2020-03-01T09:16:58Z</time></trkpt>
<trkpt lat="42.561618034" lon="12.642840967"><ele>129</ele><time>2020-03-01T09:16:59Z</time></trkpt>
<trkpt lat="42.561591966" lon="12.642816994"><ele>129</ele><time>2020-03-01T09:17:00Z</time></trkpt>
<trkpt lat="42.561564976" lon="12.642793022"><ele>129</ele><time>2020-03-01T09:17:01Z</time></trkpt>
<trkpt lat="42.561538992" lon="12.642768966"><ele>129</ele><time>2020-03-01T09:17:02Z</time></trkpt>
<trkpt lat="42.561512003" lon="12.642746"><ele>129</ele><time>2020-03-01T09:17:03Z</time></trkpt>
<trkpt lat="42.561486019" lon="12.642723033"><ele>129</ele><time>2020-03-01T09:17:04Z</time></trkpt>
<trkpt lat="42.561459029" lon="12.642700989"><ele>129</ele><time>2020-03-01T09:17:05Z</time></trkpt>
<trkpt lat="42.561432961" lon="12.642680034"><ele>129</ele><time>2020-03-01T09:17:06Z</time></trkpt>
<trkpt lat="42.561405972" lon="12.642658995"><ele>129</ele><time>2020-03-01T09:17:07Z</time></trkpt>
<trkpt lat="42.561378982" lon="12.642638963"><ele>129</ele><time>2020-03-01T09:17:08Z</time></trkpt>
<trkpt lat="42.561351992" lon="12.64262002"><ele>130</ele><time>2020-03-01T09:17:09Z</time></trkpt>
<trkpt lat="42.561323997" lon="12.642601999"><ele>130</ele><time>2020-03-01T09:17:10Z</time></trkpt>
<trkpt lat="42.561297007" lon="12.642584983"><ele>130</ele><time>2020-03-01T09:17:11Z</time></trkpt>
<trkpt lat="42.561269011" lon="12.642566962"><ele>130</ele><time>2020-03-01T09:17:12Z</time></trkpt>
<trkpt lat="42.561241016" lon="12.642550031"><ele>130</ele><time>2020-03-01T09:17:13Z</time></trkpt>
<trkpt lat="42.56121302" lon="12.642533015"><ele>130</ele><time>2020-03-01T09:17:14Z</time></trkpt>
<trkpt lat="42.561185025" lon="12.642514994"><ele>130</ele><time>2020-03-01T09:17:15Z</time></trkpt>
<trkpt lat="42.561157029" lon="12.642495967"><ele>130</ele><time>2020-03-01T09:17:16Z</time></trkpt>
<trkpt lat="42.561129034" lon="12.642477024"><ele>130</ele><time>2020-03-01T09:17:17Z</time></trkpt>
<trkpt lat="42.561101038" lon="12.642455986"><ele>130</ele><time>2020-03-01T09:17:18Z</time></trkpt>
<trkpt lat="42.561072037" lon="12.642434025"><ele>130</ele><time>2020-03-01T09:17:19Z</time></trkpt>
<trkpt lat="42.561043035" lon="12.642410975"><ele>130</ele><time>2020-03-01T09:17:20Z</time></trkpt>
<trkpt lat="42.56101504" lon="12.642384991"><ele>130</ele><time>2020-03-01T09:17:21Z</time></trkpt>
<trkpt lat="42.560986038" lon="12.642359007"><ele>130</ele><time>2020-03-01T09:17:22Z</time></trkpt>
<trkpt lat="42.560957037" lon="12.642332017"><ele>130</ele><time>2020-03-01T09:17:23Z</time></trkpt>
<trkpt lat="42.560928036" lon="12.642304022"><ele>130</ele><time>2020-03-01T09:17:24Z</time></trkpt>
<trkpt lat="42.560899034" lon="12.642277032"><ele>130</ele><time>2020-03-01T09:17:25Z</time></trkpt>
<trkpt lat="42.560870033" lon="12.642250964"><ele>130</ele><time>2020-03-01T09:17:26Z</time></trkpt>
<trkpt lat="42.560840026" lon="12.642225986"><ele>130</ele><time>2020-03-01T09:17:27Z</time></trkpt>
<trkpt lat="42.560811024" lon="12.64220302"><ele>130</ele><time>2020-03-01T09:17:28Z</time></trkpt>
<trkpt lat="42.560781017" lon="12.64217997"><ele>130</ele><time>2020-03-01T09:17:29Z</time></trkpt>
<trkpt lat="42.560752016" lon="12.642158009"><ele>129</ele><time>2020-03-01T09:17:30Z</time></trkpt>
<trkpt lat="42.560723014" lon="12.642135965"><ele>129</ele><time>2020-03-01T09:17:31Z</time></trkpt>
<trkpt lat="42.560693007" lon="12.642112998"><ele>129</ele><time>2020-03-01T09:17:32Z</time></trkpt>
<trkpt lat="42.560665011" lon="12.642090032"><ele>129</ele><time>2020-03-01T09:17:33Z</time></trkpt>
<trkpt lat="42.56063601" lon="12.642065976"><ele>129</ele><time>2020-03-01T09:17:34Z</time></trkpt>
<trkpt lat="42.560607009" lon="12.642042004"><ele>129</ele><time>2020-03-01T09:17:35Z</time></trkpt>
<trkpt lat="42.560579013" lon="12.642017026"><ele>128</ele><time>2020-03-01T09:17:36Z</time></trkpt>
<trkpt lat="42.560550012" lon="12.641991964"><ele>128</ele><time>2020-03-01T09:17:37Z</time></trkpt>
<trkpt lat="42.560522016" lon="12.641966986"><ele>128</ele><time>2020-03-01T09:17:38Z</time></trkpt>
<trkpt lat="42.560493015" lon="12.641942007"><ele>128</ele><time>2020-03-01T09:17:39Z</time></trkpt>
<trkpt lat="42.560464013" lon="12.641917029"><ele>128</ele><time>2020-03-01T09:17:40Z</time></trkpt>
<trkpt lat="42.560435012" lon="12.641891968"><ele>127</ele><time>2020-03-01T09:17:41Z</time></trkpt>
<trkpt lat="42.560406011" lon="12.641867995"><ele>127</ele><time>2020-03-01T09:17:42Z</time></trkpt>
<trkpt lat="42.560376003" lon="12.641844023"><ele>127</ele><time>2020-03-01T09:17:43Z</time></trkpt>
<trkpt lat="42.560345996" lon="12.641820973"><ele>127</ele><time>2020-03-01T09:17:44Z</time></trkpt>
<trkpt lat="42.560315989" lon="12.641798006"><ele>127</ele><time>2020-03-01T09:17:45Z</time></trkpt>
<trkpt lat="42.560284976" lon="12.641775962"><ele>127</ele><time>2020-03-01T09:17:46Z</time></trkpt>
<trkpt lat="42.560254969" lon="12.641752996"><ele>127</ele><time>2020-03-01T09:17:47Z</time></trkpt>
<trkpt lat="42.560224039" lon="12.641731035"><ele>126</ele><time>2020-03-01T09:17:48Z</time></trkpt>
<trkpt lat="42.560194032" lon="12.641708991"><ele>126</ele><time>2020-03-01T09:17:49Z</time></trkpt>
<trkpt lat="42.560165031" lon="12.641686024"><ele>126</ele><time>2020-03-01T09:17:50Z</time></trkpt>
<trkpt lat="42.560135024" lon="12.641662974"><ele>126</ele><time>2020-03-01T09:17:51Z</time></trkpt>
<trkpt lat="42.560107028" lon="12.641639002"><ele>126</ele><time>2020-03-01T09:17:52Z</time></trkpt>
<trkpt lat="42.560079033" lon="12.641615029"><ele>126</ele><time>2020-03-01T09:17:53Z</time></trkpt>
<trkpt lat="42.560051959" lon="12.641589968"><ele>126</ele><time>2020-03-01T09:17:54Z</time></trkpt>
<trkpt lat="42.560025975" lon="12.641563984"><ele>126</ele><time>2020-03-01T09:17:55Z</time></trkpt>
<trkpt lat="42.560000997" lon="12.641538"><ele>126</ele><time>2020-03-01T09:17:56Z</time></trkpt>
<trkpt lat="42.559977025" lon="12.641510004"><ele>125</ele><time>2020-03-01T09:17:57Z</time></trkpt>
<trkpt lat="42.559952969" lon="12.641482009"><ele>125</ele><time>2020-03-01T09:17:58Z</time></trkpt>
<trkpt lat="42.559930002" lon="12.641454013"><ele>125</ele><time>2020-03-01T09:17:59Z</time></trkpt>
<trkpt lat="42.559908042" lon="12.641427023"><ele>125</ele><time>2020-03-01T09:18:00Z</time></trkpt>
<trkpt lat="42.559884991" lon="12.641400034"><ele>125</ele><time>2020-03-01T09:18:01Z</time></trkpt>
<trkpt lat="42.559863031" lon="12.641373966"><ele>125</ele><time>2020-03-01T09:18:02Z</time></trkpt>
<trkpt lat="42.559839981" lon="12.641349994"><ele>125</ele><time>2020-03-01T09:18:03Z</time></trkpt>
<trkpt lat="42.559817014" lon="12.641329039"><ele>125</ele><time>2020-03-01T09:18:04Z</time></trkpt>
<trkpt lat="42.559792958" lon="12.641311018"><ele>124</ele><time>2020-03-01T09:18:05Z</time></trkpt>
<trkpt lat="42.55976798" lon="12.641296014"><ele>124</ele><time>2020-03-01T09:18:06Z</time></trkpt>
<trkpt lat="42.559743002" lon="12.641286962"><ele>124</ele><time>2020-03-01T09:18:07Z</time></trkpt>
<trkpt lat="42.559716012" lon="12.641282016"><ele>124</ele><time>2020-03-01T09:18:08Z</time></trkpt>
<trkpt lat="42.559689023" lon="12.641282016"><ele>124</ele><time>2020-03-01T09:18:09Z</time></trkpt>
<trkpt lat="42.559662033" lon="12.641287968"><ele>124</ele><time>2020-03-01T09:18:10Z</time></trkpt>
<trkpt lat="42.559634959" lon="12.641298026"><ele>124</ele><time>2020-03-01T09:18:11Z</time></trkpt>
<trkpt lat="42.559608975" lon="12.641313029"><ele>124</ele><time>2020-03-01T09:18:12Z</time></trkpt>
<trkpt lat="42.559537981" lon="12.641386036"><ele>124</ele><time>2020-03-01T09:18:15Z</time></trkpt>
<trkpt lat="42.559517026" lon="12.641416965"><ele>124</ele><time>2020-03-01T09:18:16Z</time></trkpt>
<trkpt lat="42.559495987" lon="12.641448984"><ele>125</ele><time>2020-03-01T09:18:17Z</time></trkpt>
<trkpt lat="42.559475033" lon="12.641483014"><ele>125</ele><time>2020-03-01T09:18:18Z</time></trkpt>
<trkpt lat="42.559452988" lon="12.641516039"><ele>125</ele><time>2020-03-01T09:18:19Z</time></trkpt>
<trkpt lat="42.559431028" lon="12.64154898"><ele>125</ele><time>2020-03-01T09:18:20Z</time></trkpt>
<trkpt lat="42.559407977" lon="12.641580999"><ele>125</ele><time>2020-03-01T09:18:21Z</time></trkpt>
<trkpt lat="42.559384005" lon="12.641613018"><ele>125</ele><time>2020-03-01T09:18:22Z</time></trkpt>
<trkpt lat="42.559361039" lon="12.641645037"><ele>125</ele><time>2020-03-01T09:18:23Z</time></trkpt>
<trkpt lat="42.559337988" lon="12.641677978"><ele>125</ele><time>2020-03-01T09:18:24Z</time></trkpt>
<trkpt lat="42.559316028" lon="12.641712008"><ele>125</ele><time>2020-03-01T09:18:25Z</time></trkpt>
<trkpt lat="42.559295995" lon="12.641747966"><ele>125</ele><time>2020-03-01T09:18:26Z</time></trkpt>
<trkpt lat="42.559275962" lon="12.641784009"><ele>125</ele><time>2020-03-01T09:18:27Z</time></trkpt>
<trkpt lat="42.559256013" lon="12.641821979"><ele>125</ele><time>2020-03-01T09:18:28Z</time></trkpt>
<trkpt lat="42.559236987" lon="12.641859027"><ele>125</ele><time>2020-03-01T09:18:29Z</time></trkpt>
<trkpt lat="42.55921796" lon="12.641895991"><ele>125</ele><time>2020-03-01T09:18:30Z</time></trkpt>
<trkpt lat="42.559198011" lon="12.641931027"><ele>125</ele><time>2020-03-01T09:18:31Z</time></trkpt>
<trkpt lat="42.559177978" lon="12.64196598"><ele>125</ele><time>2020-03-01T09:18:32Z</time></trkpt>
<trkpt lat="42.559157023" lon="12.641999004"><ele>125</ele><time>2020-03-01T09:18:33Z</time></trkpt>
<trkpt lat="42.559134979" lon="12.642031023"><ele>125</ele><time>2020-03-01T09:18:34Z</time></trkpt>
<trkpt lat="42.559113018" lon="12.642062036"><ele>125</ele><time>2020-03-01T09:18:35Z</time></trkpt>
<trkpt lat="42.559090974" lon="12.64209196"><ele>125</ele><time>2020-03-01T09:18:36Z</time></trkpt>
<trkpt lat="42.559069013" lon="12.642120961"><ele>125</ele><time>2020-03-01T09:18:37Z</time></trkpt>
<trkpt lat="42.559002964" lon="12.642205032"><ele>124</ele><time>2020-03-01T09:18:40Z</time></trkpt>
<trkpt lat="42.558982009" lon="12.642233027"><ele>124</ele><time>2020-03-01T09:18:41Z</time></trkpt>
<trkpt lat="42.55896097" lon="12.642260017"><ele>124</ele><time>2020-03-01T09:18:42Z</time></trkpt>
<trkpt lat="42.558940016" lon="12.642288012"><ele>124</ele><time>2020-03-01T09:18:43Z</time></trkpt>
<trkpt lat="42.558920989" lon="12.642316008"><ele>124</ele><time>2020-03-01T09:18:44Z</time></trkpt>
<trkpt lat="42.558901962" lon="12.642344004"><ele>124</ele><time>2020-03-01T09:18:45Z</time></trkpt>
<trkpt lat="42.558884025" lon="12.642371999"><ele>124</ele><time>2020-03-01T09:18:46Z</time></trkpt>
<trkpt lat="42.558866004" lon="12.642399995"><ele>124</ele><time>2020-03-01T09:18:47Z</time></trkpt>
<trkpt lat="42.558848988" lon="12.64242799"><ele>124</ele><time>2020-03-01T09:18:48Z</time></trkpt>
<trkpt lat="42.558830967" lon="12.642456992"><ele>124</ele><time>2020-03-01T09:18:49Z</time></trkpt>
<trkpt lat="42.558814036" lon="12.642484987"><ele>124</ele><time>2020-03-01T09:18:50Z</time></trkpt>
<trkpt lat="42.55879702" lon="12.642512983"><ele>124</ele><time>2020-03-01T09:18:51Z</time></trkpt>
<trkpt lat="42.558778999" lon="12.642539972"><ele>124</ele><time>2020-03-01T09:18:52Z</time></trkpt>
<trkpt lat="42.558760978" lon="12.642567968"><ele>124</ele><time>2020-03-01T09:18:53Z</time></trkpt>
<trkpt lat="42.558743041" lon="12.642595042"><ele>124</ele><time>2020-03-01T09:18:54Z</time></trkpt>
<trkpt lat="42.558724014" lon="12.642621025"><ele>124</ele><time>2020-03-01T09:18:55Z</time></trkpt>
<trkpt lat="42.558704987" lon="12.642647009"><ele>124</ele><time>2020-03-01T09:18:56Z</time></trkpt>
<trkpt lat="42.558685038" lon="12.642672993"><ele>124</ele><time>2020-03-01T09:18:57Z</time></trkpt>
<trkpt lat="42.558665005" lon="12.642698977"><ele>124</ele><time>2020-03-01T09:18:58Z</time></trkpt>
<trkpt lat="42.558643967" lon="12.642724039"><ele>124</ele><time>2020-03-01T09:18:59Z</time></trkpt>
<trkpt lat="42.558624018" lon="12.642750023"><ele>124</ele><time>2020-03-01T09:19:00Z</time></trkpt>
<trkpt lat="42.558603985" lon="12.642777013"><ele>124</ele><time>2020-03-01T09:19:01Z</time></trkpt>
<trkpt lat="42.558584036" lon="12.642804002"><ele>124</ele><time>2020-03-01T09:19:02Z</time></trkpt>
<trkpt lat="42.558564004" lon="12.642831998"><ele>124</ele><time>2020-03-01T09:19:03Z</time></trkpt>
<trkpt lat="42.558544977" lon="12.642860999"><ele>125</ele><time>2020-03-01T09:19:04Z</time></trkpt>
<trkpt lat="42.558527039" lon="12.642891007"><ele>125</ele><time>2020-03-01T09:19:05Z</time></trkpt>
<trkpt lat="42.558510024" lon="12.642923025"><ele>125</ele><time>2020-03-01T09:19:06Z</time></trkpt>
<trkpt lat="42.558465013" lon="12.643026961"><ele>125</ele><time>2020-03-01T09:19:09Z</time></trkpt>
<trkpt lat="42.558452021" lon="12.643065015"><ele>125</ele><time>2020-03-01T09:19:10Z</time></trkpt>
<trkpt lat="42.558440035" lon="12.643103991"><ele>125</ele><time>2020-03-01T09:19:11Z</time></trkpt>
<trkpt lat="42.558427965" lon="12.643142967"><ele>125</ele><time>2020-03-01T09:19:12Z</time></trkpt>
<trkpt lat="42.558415979" lon="12.643183032"><ele>126</ele><time>2020-03-01T09:19:13Z</time></trkpt>
<trkpt lat="42.558404999" lon="12.643223014"><ele>126</ele><time>2020-03-01T09:19:14Z</time></trkpt>
<trkpt lat="42.558393013" lon="12.64326199"><ele>126</ele><time>2020-03-01T09:19:15Z</time></trkpt>
<trkpt lat="42.558382032" lon="12.643300965"><ele>126</ele><time>2020-03-01T09:19:16Z</time></trkpt>
<trkpt lat="42.558369962" lon="12.643340025"><ele>126</ele><time>2020-03-01T09:19:17Z</time></trkpt>
<trkpt lat="42.558356971" lon="12.643376989"><ele>126</ele><time>2020-03-01T09:19:18Z</time></trkpt>
<trkpt lat="42.558343979" lon="12.643413031"><ele>126</ele><time>2020-03-01T09:19:19Z</time></trkpt>
<trkpt lat="42.558329981" lon="12.643447984"><ele>126</ele><time>2020-03-01T09:19:20Z</time></trkpt>
<trkpt lat="42.558315983" lon="12.64348302"><ele>126</ele><time>2020-03-01T09:19:21Z</time></trkpt>
<trkpt lat="42.558301985" lon="12.643516967"><ele>126</ele><time>2020-03-01T09:19:22Z</time></trkpt>
<trkpt lat="42.558287987" lon="12.643549992"><ele>126</ele><time>2020-03-01T09:19:23Z</time></trkpt>
<trkpt lat="42.558276001" lon="12.643584022"><ele>126</ele><time>2020-03-01T09:19:24Z</time></trkpt>
<trkpt lat="42.558264015" lon="12.643618975"><ele>126</ele><time>2020-03-01T09:19:25Z</time></trkpt>
<trkpt lat="42.558253035" lon="12.643653005"><ele>126</ele><time>2020-03-01T09:19:26Z</time></trkpt>
<trkpt lat="42.558241971" lon="12.643687036"><ele>126</ele><time>2020-03-01T09:19:27Z</time></trkpt>
<trkpt lat="42.558231996" lon="12.643719977"><ele>126</ele><time>2020-03-01T09:19:28Z</time></trkpt>
<trkpt lat="42.558223028" lon="12.643751996"><ele>127</ele><time>2020-03-01T09:19:29Z</time></trkpt>
<trkpt lat="42.55819696" lon="12.643837994"><ele>127</ele><time>2020-03-01T09:19:32Z</time></trkpt>
<trkpt lat="42.558193021" lon="12.643869007"><ele>127</ele><time>2020-03-01T09:19:33Z</time></trkpt>
<trkpt lat="42.558194026" lon="12.643904965"><ele>127</ele><time>2020-03-01T09:19:34Z</time></trkpt>
<trkpt lat="42.558197966" lon="12.643942013"><ele>127</ele><time>2020-03-01T09:19:35Z</time></trkpt>
<trkpt lat="42.558206012" lon="12.64397596"><ele>127</ele><time>2020-03-01T09:19:36Z</time></trkpt>
<trkpt lat="42.558215987" lon="12.644002028"><ele>127</ele><time>2020-03-01T09:19:37Z</time></trkpt>
<trkpt lat="42.558228979" lon="12.644021977"><ele>127</ele><time>2020-03-01T09:19:38Z</time></trkpt>
<trkpt lat="42.558242977" lon="12.644034969"><ele>127</ele><time>2020-03-01T09:19:39Z</time></trkpt>
<trkpt lat="42.558258986" lon="12.644042009"><ele>127</ele><time>2020-03-01T09:19:40Z</time></trkpt>
<trkpt lat="42.558276001" lon="12.644044021"><ele>127</ele><time>2020-03-01T09:19:41Z</time></trkpt>
<trkpt lat="42.558294022" lon="12.644042009"><ele>128</ele><time>2020-03-01T09:19:42Z</time></trkpt>
<trkpt lat="42.55831196" lon="12.64403698"><ele>128</ele><time>2020-03-01T09:19:43Z</time></trkpt>
<trkpt lat="42.55836904" lon="12.644004039"><ele>128</ele><time>2020-03-01T09:19:46Z</time></trkpt>
<trkpt lat="42.558388989" lon="12.64398803"><ele>128</ele><time>2020-03-01T09:19:47Z</time></trkpt>
<trkpt lat="42.558409022" lon="12.643970009"><ele>128</ele><time>2020-03-01T09:19:48Z</time></trkpt>
<trkpt lat="42.558429977" lon="12.643949976"><ele>128</ele><time>2020-03-01T09:19:49Z</time></trkpt>
<trkpt lat="42.558452021" lon="12.643930027"><ele>128</ele><time>2020-03-01T09:19:50Z</time></trkpt>
<trkpt lat="42.558473982" lon="12.643907983"><ele>128</ele><time>2020-03-01T09:19:51Z</time></trkpt>
<trkpt lat="42.558496026" lon="12.643886022"><ele>128</ele><time>2020-03-01T09:19:52Z</time></trkpt>
<trkpt lat="42.558518993" lon="12.643863978"><ele>128</ele><time>2020-03-01T09:19:53Z</time></trkpt>
<trkpt lat="42.558542965" lon="12.643842017"><ele>128</ele><time>2020-03-01T09:19:54Z</time></trkpt>
<trkpt lat="42.558566015" lon="12.643819973"><ele>128</ele><time>2020-03-01T09:19:55Z</time></trkpt>
<trkpt lat="42.558590993" lon="12.643799018"><ele>128</ele><time>2020-03-01T09:19:56Z</time></trkpt>
<trkpt lat="42.558614966" lon="12.643776974"><ele>128</ele><time>2020-03-01T09:19:57Z</time></trkpt>
<trkpt lat="42.558640027" lon="12.643756019"><ele>128</ele><time>2020-03-01T09:19:58Z</time></trkpt>
<trkpt lat="42.558666011" lon="12.643733975"><ele>128</ele><time>2020-03-01T09:19:59Z</time></trkpt>
<trkpt lat="42.558693001" lon="12.643712014"><ele>128</ele><time>2020-03-01T09:20:00Z</time></trkpt>
<trkpt lat="42.558718985" lon="12.643688964"><ele>128</ele><time>2020-03-01T09:20:01Z</time></trkpt>
<trkpt lat="42.558744969" lon="12.64366298"><ele>128</ele><time>2020-03-01T09:20:02Z</time></trkpt>
<trkpt lat="42.558767013" lon="12.643630961"><ele>128</ele><time>2020-03-01T09:20:03Z</time></trkpt>
<trkpt lat="42.558783023" lon="12.643593997"><ele>128</ele><time>2020-03-01T09:20:04Z</time></trkpt>
<trkpt lat="42.558790985" lon="12.643553009"><ele>128</ele><time>2020-03-01T09:20:05Z</time></trkpt>
<trkpt lat="42.55878604" lon="12.643513028"><ele>128</ele><time>2020-03-01T09:20:06Z</time></trkpt>
<trkpt lat="42.558768019" lon="12.643477991"><ele>128</ele><time>2020-03-01T09:20:07Z</time></trkpt>
<trkpt lat="42.558740024" lon="12.643444967"><ele>128</ele><time>2020-03-01T09:20:08Z</time></trkpt>
<trkpt lat="42.558712028" lon="12.64341102"><ele>128</ele><time>2020-03-01T09:20:09Z</time></trkpt>
<trkpt lat="42.558687972" lon="12.643373972"><ele>127</ele><time>2020-03-01T09:20:10Z</time></trkpt>
<trkpt lat="42.558672968" lon="12.643334996"><ele>127</ele><time>2020-03-01T09:20:11Z</time></trkpt>
<trkpt lat="42.558668023" lon="12.643294008"><ele>127</ele><time>2020-03-01T09:20:12Z</time></trkpt>
<trkpt lat="42.558710016" lon="12.643170962"><ele>127</ele><time>2020-03-01T09:20:15Z</time></trkpt>
<trkpt lat="42.558736" lon="12.643129975"><ele>127</ele><time>2020-03-01T09:20:16Z</time></trkpt>
<trkpt lat="42.558765002" lon="12.643089993"><ele>126</ele><time>2020-03-01T09:20:17Z</time></trkpt>
<trkpt lat="42.558848988" lon="12.642974993"><ele>126</ele><time>2020-03-01T09:20:20Z</time></trkpt>
<trkpt lat="42.558872961" lon="12.642938029"><ele>126</ele><time>2020-03-01T09:20:21Z</time></trkpt>
<trkpt lat="42.558896011" lon="12.642901987"><ele>126</ele><time>2020-03-01T09:20:22Z</time></trkpt>
<trkpt lat="42.558917971" lon="12.642867034"><ele>126</ele><time>2020-03-01T09:20:23Z</time></trkpt>
<trkpt lat="42.55893901" lon="12.642833004"><ele>126</ele><time>2020-03-01T09:20:24Z</time></trkpt>
<trkpt lat="42.558958959" lon="12.642798973"><ele>126</ele><time>2020-03-01T09:20:25Z</time></trkpt>
<trkpt lat="42.558977986" lon="12.642766032"><ele>126</ele><time>2020-03-01T09:20:26Z</time></trkpt>
<trkpt lat="42.558997013" lon="12.642734013"><ele>126</ele><time>2020-03-01T09:20:27Z</time></trkpt>
<trkpt lat="42.55901604" lon="12.642701995"><ele>125</ele><time>2020-03-01T09:20:28Z</time></trkpt>
<trkpt lat="42.559033977" lon="12.642670982"><ele>125</ele><time>2020-03-01T09:20:29Z</time></trkpt>
<trkpt lat="42.559053004" lon="12.642640974"><ele>125</ele><time>2020-03-01T09:20:30Z</time></trkpt>
<trkpt lat="42.559072031" lon="12.642611973"><ele>125</ele><time>2020-03-01T09:20:31Z</time></trkpt>
<trkpt lat="42.559090974" lon="12.642581966"><ele>125</ele><time>2020-03-01T09:20:32Z</time></trkpt>
<trkpt lat="42.559110001" lon="12.64255397"><ele>125</ele><time>2020-03-01T09:20:33Z</time></trkpt>
<trkpt lat="42.559130033" lon="12.642524969"><ele>125</ele><time>2020-03-01T09:20:34Z</time></trkpt>
<trkpt lat="42.559149982" lon="12.642496973"><ele>125</ele><time>2020-03-01T09:20:35Z</time></trkpt>
<trkpt lat="42.559171021" lon="12.642468978"><ele>125</ele><time>2020-03-01T09:20:36Z</time></trkpt>
<trkpt lat="42.559191976" lon="12.642440982"><ele>125</ele><time>2020-03-01T09:20:37Z</time></trkpt>
<trkpt lat="42.559260037" lon="12.64235599"><ele>126</ele><time>2020-03-01T09:20:40Z</time></trkpt>
<trkpt lat="42.559284009" lon="12.642326988"><ele>126</ele><time>2020-03-01T09:20:41Z</time></trkpt>
<trkpt lat="42.559307981" lon="12.642296981"><ele>126</ele><time>2020-03-01T09:20:42Z</time></trkpt>
<trkpt lat="42.559332959" lon="12.642266974"><ele>126</ele><time>2020-03-01T09:20:43Z</time></trkpt>
<trkpt lat="42.559359027" lon="12.642236967"><ele>126</ele><time>2020-03-01T09:20:44Z</time></trkpt>
<trkpt lat="42.559385011" lon="12.642206959"><ele>126</ele><time>2020-03-01T09:20:45Z</time></trkpt>
<trkpt lat="42.559408983" lon="12.642177036"><ele>126</ele><time>2020-03-01T09:20:46Z</time></trkpt>
<trkpt lat="42.559433039" lon="12.64214904"><ele>126</ele><time>2020-03-01T09:20:47Z</time></trkpt>
<trkpt lat="42.559455" lon="12.642122973"><ele>126</ele><time>2020-03-01T09:20:48Z</time></trkpt>
<trkpt lat="42.559476038" lon="12.642097995"><ele>126</ele><time>2020-03-01T09:20:49Z</time></trkpt>
<trkpt lat="42.559494982" lon="12.642075028"><ele>126</ele><time>2020-03-01T09:20:50Z</time></trkpt>
<trkpt lat="42.559514008" lon="12.64205399"><ele>126</ele><time>2020-03-01T09:20:51Z</time></trkpt>
<trkpt lat="42.559533035" lon="12.642033035"><ele>126</ele><time>2020-03-01T09:20:52Z</time></trkpt>
<trkpt lat="42.559554996" lon="12.642011996"><ele>126</ele><time>2020-03-01T09:20:53Z</time></trkpt>
<trkpt lat="42.559577962" lon="12.641991964"><ele>126</ele><time>2020-03-01T09:20:54Z</time></trkpt>
<trkpt lat="42.55960403" lon="12.641971009"><ele>126</ele><time>2020-03-01T09:20:55Z</time></trkpt>
<trkpt lat="42.559632026" lon="12.641950976"><ele>126</ele><time>2020-03-01T09:20:56Z</time></trkpt>
<trkpt lat="42.559723975" lon="12.641896997"><ele>126</ele><time>2020-03-01T09:20:59Z</time></trkpt>
<trkpt lat="42.559755994" lon="12.641881993"><ele>126</ele><time>2020-03-01T09:21:00Z</time></trkpt>
<trkpt lat="42.559788013" lon="12.641867995"><ele>127</ele><time>2020-03-01T09:21:01Z</time></trkpt>
<trkpt lat="42.559821038" lon="12.641857015"><ele>127</ele><time>2020-03-01T09:21:02Z</time></trkpt>
<trkpt lat="42.559852973" lon="12.641847963"><ele>127</ele><time>2020-03-01T09:21:03Z</time></trkpt>
<trkpt lat="42.559883986" lon="12.641842011"><ele>127</ele><time>2020-03-01T09:21:04Z</time></trkpt>
<trkpt lat="42.559913993" lon="12.641838994"><ele>127</ele><time>2020-03-01T09:21:05Z</time></trkpt>
<trkpt lat="42.559942994" lon="12.641838994"><ele>127</ele><time>2020-03-01T09:21:06Z</time></trkpt>
<trkpt lat="42.55997099" lon="12.641842011"><ele>127</ele><time>2020-03-01T09:21:07Z</time></trkpt>
<trkpt lat="42.559996974" lon="12.641847963"><ele>127</ele><time>2020-03-01T09:21:08Z</time></trkpt>
<trkpt lat="42.560023041" lon="12.641856009"><ele>127</ele><time>2020-03-01T09:21:09Z</time></trkpt>
<trkpt lat="42.56004802" lon="12.641866989"><ele>127</ele><time>2020-03-01T09:21:10Z</time></trkpt>
<trkpt lat="42.560072998" lon="12.641878976"><ele>127</ele><time>2020-03-01T09:21:11Z</time></trkpt>
<trkpt lat="42.56009697" lon="12.641892973"><ele>127</ele><time>2020-03-01T09:21:12Z</time></trkpt>
<trkpt lat="42.560121026" lon="12.641908983"><ele>127</ele><time>2020-03-01T09:21:13Z</time></trkpt>
<trkpt lat="42.560144998" lon="12.641924992"><ele>127</ele><time>2020-03-01T09:21:14Z</time></trkpt>
<trkpt lat="42.56016897" lon="12.641942007"><ele>128</ele><time>2020-03-01T09:21:15Z</time></trkpt>
<trkpt lat="42.560193026" lon="12.641960029"><ele>128</ele><time>2020-03-01T09:21:16Z</time></trkpt>
<trkpt lat="42.560218005" lon="12.64197696"><ele>128</ele><time>2020-03-01T09:21:17Z</time></trkpt>
<trkpt lat="42.560243988" lon="12.641994981"><ele>128</ele><time>2020-03-01T09:21:18Z</time></trkpt>
<trkpt lat="42.560269972" lon="12.642013002"><ele>128</ele><time>2020-03-01T09:21:19Z</time></trkpt>
<trkpt lat="42.560297968" lon="12.642030017"><ele>128</ele><time>2020-03-01T09:21:20Z</time></trkpt>
<trkpt lat="42.560325963" lon="12.642048039"><ele>128</ele><time>2020-03-01T09:21:21Z</time></trkpt>
<trkpt lat="42.560354965" lon="12.642065976"><ele>128</ele><time>2020-03-01T09:21:22Z</time></trkpt>
<trkpt lat="42.560385978" lon="12.642083997"><ele>129</ele><time>2020-03-01T09:21:23Z</time></trkpt>
<trkpt lat="42.560417997" lon="12.642102018"><ele>129</ele><time>2020-03-01T09:21:24Z</time></trkpt>
<trkpt lat="42.560450016" lon="12.642120961"><ele>129</ele><time>2020-03-01T09:21:25Z</time></trkpt>
<trkpt lat="42.56048304" lon="12.642139988"><ele>129</ele><time>2020-03-01T09:21:26Z</time></trkpt>
<trkpt lat="42.560515981" lon="12.642159015"><ele>129</ele><time>2020-03-01T09:21:27Z</time></trkpt>
<trkpt lat="42.560548" lon="12.642178964"><ele>129</ele><time>2020-03-01T09:21:28Z</time></trkpt>
<trkpt lat="42.560579013" lon="12.642198997"><ele>129</ele><time>2020-03-01T09:21:29Z</time></trkpt>
<trkpt lat="42.560608014" lon="12.642220035"><ele>130</ele><time>2020-03-01T09:21:30Z</time></trkpt>
<trkpt lat="42.56063601" lon="12.642241996"><ele>130</ele><time>2020-03-01T09:21:31Z</time></trkpt>
<trkpt lat="42.560661994" lon="12.64226404"><ele>130</ele><time>2020-03-01T09:21:32Z</time></trkpt>
<trkpt lat="42.560687978" lon="12.642287007"><ele>130</ele><time>2020-03-01T09:21:33Z</time></trkpt>
<trkpt lat="42.560712034" lon="12.642308967"><ele>130</ele><time>2020-03-01T09:21:34Z</time></trkpt>
<trkpt lat="42.560736006" lon="12.642333023"><ele>131</ele><time>2020-03-01T09:21:35Z</time></trkpt>
<trkpt lat="42.560758973" lon="12.64235599"><ele>131</ele><time>2020-03-01T09:21:36Z</time></trkpt>
<trkpt lat="42.560781017" lon="12.642379962"><ele>131</ele><time>2020-03-01T09:21:37Z</time></trkpt>
<trkpt lat="42.560802978" lon="12.642404018"><ele>131</ele><time>2020-03-01T09:21:38Z</time></trkpt>
<trkpt lat="42.560825022" lon="12.64242799"><ele>132</ele><time>2020-03-01T09:21:39Z</time></trkpt>
<trkpt lat="42.560846983" lon="12.642451962"><ele>132</ele><time>2020-03-01T09:21:40Z</time></trkpt>
<trkpt lat="42.560869027" lon="12.642476019"><ele>132</ele><time>2020-03-01T09:21:41Z</time></trkpt>
<trkpt lat="42.560890988" lon="12.642499991"><ele>132</ele><time>2020-03-01T09:21:42Z</time></trkpt>
<trkpt lat="42.560914038" lon="12.642523041"><ele>132</ele><time>2020-03-01T09:21:43Z</time></trkpt>
<trkpt lat="42.560937004" lon="12.642547013"><ele>132</ele><time>2020-03-01T09:21:44Z</time></trkpt>
<trkpt lat="42.561009005" lon="12.642615996"><ele>131</ele><time>2020-03-01T09:21:47Z</time></trkpt>
<trkpt lat="42.561032977" lon="12.642638963"><ele>131</ele><time>2020-03-01T09:21:48Z</time></trkpt>
<trkpt lat="42.561058039" lon="12.642661007"><ele>131</ele><time>2020-03-01T09:21:49Z</time></trkpt>
<trkpt lat="42.561083017" lon="12.642681962"><ele>131</ele><time>2020-03-01T09:21:50Z</time></trkpt>
<trkpt lat="42.561109001" lon="12.642704006"><ele>131</ele><time>2020-03-01T09:21:51Z</time></trkpt>
<trkpt lat="42.561134985" lon="12.642724039"><ele>131</ele><time>2020-03-01T09:21:52Z</time></trkpt>
<trkpt lat="42.561160969" lon="12.642743988"><ele>131</ele><time>2020-03-01T09:21:53Z</time></trkpt>
<trkpt lat="42.561187958" lon="12.642764021"><ele>131</ele><time>2020-03-01T09:21:54Z</time></trkpt>
<trkpt lat="42.561214026" lon="12.642782964"><ele>131</ele><time>2020-03-01T09:21:55Z</time></trkpt>
<trkpt lat="42.56124001" lon="12.642802997"><ele>131</ele><time>2020-03-01T09:21:56Z</time></trkpt>
<trkpt lat="42.561263982" lon="12.642825041"><ele>131</ele><time>2020-03-01T09:21:57Z</time></trkpt>
<trkpt lat="42.561286027" lon="12.642848007"><ele>131</ele><time>2020-03-01T09:21:58Z</time></trkpt>
<trkpt lat="42.561333971" lon="12.642934006"><ele>131</ele><time>2020-03-01T09:22:01Z</time></trkpt>
<trkpt lat="42.561343024" lon="12.642968036"><ele>131</ele><time>2020-03-01T09:22:02Z</time></trkpt>
<trkpt lat="42.561347969" lon="12.643003995"><ele>132</ele><time>2020-03-01T09:22:03Z</time></trkpt>
<trkpt lat="42.561348975" lon="12.643041965"><ele>132</ele><time>2020-03-01T09:22:04Z</time></trkpt>
<trkpt lat="42.561345035" lon="12.64308203"><ele>132</ele><time>2020-03-01T09:22:05Z</time></trkpt>
<trkpt lat="42.561337994" lon="12.643123018"><ele>132</ele><time>2020-03-01T09:22:06Z</time></trkpt>
<trkpt lat="42.561326008" lon="12.643164005"><ele>132</ele><time>2020-03-01T09:22:07Z</time></trkpt>
<trkpt lat="42.561309999" lon="12.643203987"><ele>133</ele><time>2020-03-01T09:22:08Z</time></trkpt>
<trkpt lat="42.561291978" lon="12.643241035"><ele>133</ele><time>2020-03-01T09:22:09Z</time></trkpt>
<trkpt lat="42.561271023" lon="12.643274982"><ele>133</ele><time>2020-03-01T09:22:10Z</time></trkpt>
<trkpt lat="42.561247973" lon="12.643302977"><ele>133</ele><time>2020-03-01T09:22:11Z</time></trkpt>
<trkpt lat="42.561224001" lon="12.643326027"><ele>134</ele><time>2020-03-01T09:22:12Z</time></trkpt>
<trkpt lat="42.561199022" lon="12.643342037"><ele>134</ele><time>2020-03-01T09:22:13Z</time></trkpt>
<trkpt lat="42.561174966" lon="12.64335"><ele>134</ele><time>2020-03-01T09:22:14Z</time></trkpt>
<trkpt lat="42.561153006" lon="12.64335"><ele>134</ele><time>2020-03-01T09:22:15Z</time></trkpt>
<trkpt lat="42.561132973" lon="12.643345976"><ele>134</ele><time>2020-03-01T09:22:16Z</time></trkpt>
<trkpt lat="42.561116042" lon="12.643340025"><ele>134</ele><time>2020-03-01T09:22:17Z</time></trkpt>
<trkpt lat="42.56110196" lon="12.643334996"><ele>134</ele><time>2020-03-01T09:22:18Z</time></trkpt>
<trkpt lat="42.561088968" lon="12.643330973"><ele>134</ele><time>2020-03-01T09:22:19Z</time></trkpt>
<trkpt lat="42.561076982" lon="12.643326027"><ele>134</ele><time>2020-03-01T09:22:20Z</time></trkpt>
<trkpt lat="42.56106399" lon="12.643320998"><ele>134</ele><time>2020-03-01T09:22:21Z</time></trkpt>
<trkpt lat="42.561048986" lon="12.643313035"><ele>134</ele><time>2020-03-01T09:22:22Z</time></trkpt>
<trkpt lat="42.561029959" lon="12.643301971"><ele>134</ele><time>2020-03-01T09:22:23Z</time></trkpt>
<trkpt lat="42.561006993" lon="12.643285962"><ele>134</ele><time>2020-03-01T09:22:24Z</time></trkpt>
<trkpt lat="42.560980003" lon="12.643267019"><ele>134</ele><time>2020-03-01T09:22:25Z</time></trkpt>
<trkpt lat="42.560951002" lon="12.643244974"><ele>134</ele><time>2020-03-01T09:22:26Z</time></trkpt>
<trkpt lat="42.560919989" lon="12.643222008"><ele>134</ele><time>2020-03-01T09:22:27Z</time></trkpt>
<trkpt lat="42.560888976" lon="12.643199041"><ele>134</ele><time>2020-03-01T09:22:28Z</time></trkpt>
<trkpt lat="42.560859974" lon="12.643175991"><ele>134</ele><time>2020-03-01T09:22:29Z</time></trkpt>
<trkpt lat="42.560830973" lon="12.643154031"><ele>134</ele><time>2020-03-01T09:22:30Z</time></trkpt>
<trkpt lat="42.560802978" lon="12.643131986"><ele>134</ele><time>2020-03-01T09:22:31Z</time></trkpt>
<trkpt lat="42.560774982" lon="12.643110026"><ele>134</ele><time>2020-03-01T09:22:32Z</time></trkpt>
<trkpt lat="42.560747992" lon="12.643088987"><ele>134</ele><time>2020-03-01T09:22:33Z</time></trkpt>
<trkpt lat="42.560721003" lon="12.643068032"><ele>134</ele><time>2020-03-01T09:22:34Z</time></trkpt>
<trkpt lat="42.560695019" lon="12.643046994"><ele>133</ele><time>2020-03-01T09:22:35Z</time></trkpt>
<trkpt lat="42.560668029" lon="12.643026039"><ele>133</ele><time>2020-03-01T09:22:36Z</time></trkpt>
<trkpt lat="42.560640033" lon="12.643005"><ele>133</ele><time>2020-03-01T09:22:37Z</time></trkpt>
<trkpt lat="42.56061296" lon="12.64298304"><ele>133</ele><time>2020-03-01T09:22:38Z</time></trkpt>
<trkpt lat="42.560583958" lon="12.642960995"><ele>133</ele><time>2020-03-01T09:22:39Z</time></trkpt>
<trkpt lat="42.560555041" lon="12.642938029"><ele>133</ele><time>2020-03-01T09:22:40Z</time></trkpt>
<trkpt lat="42.560525034" lon="12.642914979"><ele>132</ele><time>2020-03-01T09:22:41Z</time></trkpt>
<trkpt lat="42.560496032" lon="12.642893018"><ele>132</ele><time>2020-03-01T09:22:42Z</time></trkpt>
<trkpt lat="42.560468037" lon="12.642873991"><ele>132</ele><time>2020-03-01T09:22:43Z</time></trkpt>
<trkpt lat="42.560443981" lon="12.642858988"><ele>132</ele><time>2020-03-01T09:22:44Z</time></trkpt>
<trkpt lat="42.56042202" lon="12.642847002"><ele>132</ele><time>2020-03-01T09:22:45Z</time></trkpt>
<trkpt lat="42.560399976" lon="12.64283401"><ele>132</ele><time>2020-03-01T09:22:46Z</time></trkpt>
<trkpt lat="42.560377009" lon="12.642819006"><ele>132</ele><time>2020-03-01T09:22:47Z</time></trkpt>
<trkpt lat="42.56029998" lon="12.642765027"><ele>131</ele><time>2020-03-01T09:22:50Z</time></trkpt>
<trkpt lat="42.56027299" lon="12.642746"><ele>131</ele><time>2020-03-01T09:22:51Z</time></trkpt>
<trkpt lat="42.560244994" lon="12.642727979"><ele>131</ele><time>2020-03-01T09:22:52Z</time></trkpt>
<trkpt lat="42.56015799" lon="12.642676011"><ele>131</ele><time>2020-03-01T09:22:55Z</time></trkpt>
<trkpt lat="42.560128989" lon="12.642661007"><ele>131</ele><time>2020-03-01T09:22:56Z</time></trkpt>
<trkpt lat="42.560099987" lon="12.642646004"><ele>131</ele><time>2020-03-01T09:22:57Z</time></trkpt>
<trkpt lat="42.56006998" lon="12.642633012"><ele>130</ele><time>2020-03-01T09:22:58Z</time></trkpt>
<trkpt lat="42.560040979" lon="12.64262002"><ele>130</ele><time>2020-03-01T09:22:59Z</time></trkpt>
<trkpt lat="42.560012983" lon="12.642607028"><ele>130</ele><time>2020-03-01T09:23:00Z</time></trkpt>
<trkpt lat="42.559983982" lon="12.642595964"><ele>130</ele><time>2020-03-01T09:23:01Z</time></trkpt>
<trkpt lat="42.559956992" lon="12.642584983"><ele>130</ele><time>2020-03-01T09:23:02Z</time></trkpt>
<trkpt lat="42.559930002" lon="12.642575009"><ele>130</ele><time>2020-03-01T09:23:03Z</time></trkpt>
<trkpt lat="42.559903013" lon="12.64256604"><ele>130</ele><time>2020-03-01T09:23:04Z</time></trkpt>
<trkpt lat="42.559878035" lon="12.642557994"><ele>129</ele><time>2020-03-01T09:23:05Z</time></trkpt>
<trkpt lat="42.559852973" lon="12.642550031"><ele>129</ele><time>2020-03-01T09:23:06Z</time></trkpt>
<trkpt lat="42.559829" lon="12.642543996"><ele>129</ele><time>2020-03-01T09:23:07Z</time></trkpt>
<trkpt lat="42.559805028" lon="12.642539972"><ele>129</ele><time>2020-03-01T09:23:08Z</time></trkpt>
<trkpt lat="42.559779966" lon="12.642537039"><ele>129</ele><time>2020-03-01T09:23:09Z</time></trkpt>
<trkpt lat="42.559754988" lon="12.642537039"><ele>129</ele><time>2020-03-01T09:23:10Z</time></trkpt>
<trkpt lat="42.55973001" lon="12.642539972"><ele>129</ele><time>2020-03-01T09:23:11Z</time></trkpt>
<trkpt lat="42.55970302" lon="12.642547013"><ele>128</ele><time>2020-03-01T09:23:12Z</time></trkpt>
<trkpt lat="42.559675025" lon="12.642555982"><ele>128</ele><time>2020-03-01T09:23:13Z</time></trkpt>
<trkpt lat="42.559646023" lon="12.64256998"><ele>128</ele><time>2020-03-01T09:23:14Z</time></trkpt>
<trkpt lat="42.55961501" lon="12.642588001"><ele>128</ele><time>2020-03-01T09:23:15Z</time></trkpt>
<trkpt lat="42.559581986" lon="12.642609961"><ele>128</ele><time>2020-03-01T09:23:16Z</time></trkpt>
<trkpt lat="42.559546027" lon="12.642637035"><ele>128</ele><time>2020-03-01T09:23:17Z</time></trkpt>
<trkpt lat="42.559473021" lon="12.642701995"><ele>128</ele><time>2020-03-01T09:23:19Z</time></trkpt>
<trkpt lat="42.559437985" lon="12.642738959"><ele>128</ele><time>2020-03-01T09:23:20Z</time></trkpt>
<trkpt lat="42.559404038" lon="12.642776007"><ele>128</ele><time>2020-03-01T09:23:21Z</time></trkpt>
<trkpt lat="42.559375037" lon="12.642813977"><ele>128</ele><time>2020-03-01T09:23:22Z</time></trkpt>
<trkpt lat="42.559348969" lon="12.642851025"><ele>128</ele><time>2020-03-01T09:23:23Z</time></trkpt>
<trkpt lat="42.559327008" lon="12.642886983"><ele>128</ele><time>2020-03-01T09:23:24Z</time></trkpt>
<trkpt lat="42.559306975" lon="12.642923025"><ele>128</ele><time>2020-03-01T09:23:25Z</time></trkpt>
<trkpt lat="42.559289038" lon="12.642956972"><ele>128</ele><time>2020-03-01T09:23:26Z</time></trkpt>
<trkpt lat="42.559271017" lon="12.642989997"><ele>128</ele><time>2020-03-01T09:23:27Z</time></trkpt>
<trkpt lat="42.559252996" lon="12.643022016"><ele>128</ele><time>2020-03-01T09:23:28Z</time></trkpt>
<trkpt lat="42.559233969" lon="12.643052023"><ele>128</ele><time>2020-03-01T09:23:29Z</time></trkpt>
<trkpt lat="42.559213014" lon="12.643081024"><ele>128</ele><time>2020-03-01T09:23:30Z</time></trkpt>
<trkpt lat="42.559191976" lon="12.64310902"><ele>128</ele><time>2020-03-01T09:23:31Z</time></trkpt>
<trkpt lat="42.559171021" lon="12.643133998"><ele>128</ele><time>2020-03-01T09:23:32Z</time></trkpt>
<trkpt lat="42.559150988" lon="12.643158976"><ele>128</ele><time>2020-03-01T09:23:33Z</time></trkpt>
<trkpt lat="42.559132967" lon="12.643182026"><ele>128</ele><time>2020-03-01T09:23:34Z</time></trkpt>
<trkpt lat="42.55911503" lon="12.643203987"><ele>128</ele><time>2020-03-01T09:23:35Z</time></trkpt>
<trkpt lat="42.559098015" lon="12.643226031"><ele>128</ele><time>2020-03-01T09:23:36Z</time></trkpt>
<trkpt lat="42.559078988" lon="12.643248998"><ele>128</ele><time>2020-03-01T09:23:37Z</time></trkpt>
<trkpt lat="42.559057027" lon="12.643273976"><ele>128</ele><time>2020-03-01T09:23:38Z</time></trkpt>
<trkpt lat="42.559031965" lon="12.64329996"><ele>128</ele><time>2020-03-01T09:23:39Z</time></trkpt>
<trkpt lat="42.559005981" lon="12.643327033"><ele>128</ele><time>2020-03-01T09:23:40Z</time></trkpt>
<trkpt lat="42.55897698" lon="12.643354023"><ele>128</ele><time>2020-03-01T09:23:41Z</time></trkpt>
<trkpt lat="42.558887964" lon="12.64343801"><ele>128</ele><time>2020-03-01T09:23:44Z</time></trkpt>
<trkpt lat="42.558858041" lon="12.643468017"><ele>128</ele><time>2020-03-01T09:23:45Z</time></trkpt>
<trkpt lat="42.558829039" lon="12.643500036"><ele>128</ele><time>2020-03-01T09:23:46Z</time></trkpt>
<trkpt lat="42.558747986" lon="12.64360196"><ele>128</ele><time>2020-03-01T09:23:49Z</time></trkpt>
<trkpt lat="42.558723008" lon="12.643638002"><ele>128</ele><time>2020-03-01T09:23:50Z</time></trkpt>
<trkpt lat="42.55869803" lon="12.64367396"><ele>128</ele><time>2020-03-01T09:23:51Z</time></trkpt>
<trkpt lat="42.55867498" lon="12.643710002"><ele>128</ele><time>2020-03-01T09:23:52Z</time></trkpt>
<trkpt lat="42.558652014" lon="12.643745961"><ele>128</ele><time>2020-03-01T09:23:53Z</time></trkpt>
<trkpt lat="42.558628963" lon="12.643782003"><ele>128</ele><time>2020-03-01T09:23:54Z</time></trkpt>
<trkpt lat="42.558609014" lon="12.643817039"><ele>128</ele><time>2020-03-01T09:23:55Z</time></trkpt>
<trkpt lat="42.558588982" lon="12.643852998"><ele>128</ele><time>2020-03-01T09:23:56Z</time></trkpt>
<trkpt lat="42.558571966" lon="12.643889962"><ele>128</ele><time>2020-03-01T09:23:57Z</time></trkpt>
<trkpt lat="42.558556963" lon="12.643928016"><ele>128</ele><time>2020-03-01T09:23:58Z</time></trkpt>
<trkpt lat="42.558543971" lon="12.643965986"><ele>128</ele><time>2020-03-01T09:23:59Z</time></trkpt>
<trkpt lat="42.558532991" lon="12.644004961"><ele>128</ele><time>2020-03-01T09:24:00Z</time></trkpt>
<trkpt lat="42.558523016" lon="12.644041004"><ele>128</ele><time>2020-03-01T09:24:01Z</time></trkpt>
<trkpt lat="42.558512036" lon="12.644074028"><ele>128</ele><time>2020-03-01T09:24:02Z</time></trkpt>
<trkpt lat="42.558499966" lon="12.644102024"><ele>128</ele><time>2020-03-01T09:24:03Z</time></trkpt>
<trkpt lat="42.558484962" lon="12.644123985"><ele>128</ele><time>2020-03-01T09:24:04Z</time></trkpt>
<trkpt lat="42.558468031" lon="12.644142006"><ele>128</ele><time>2020-03-01T09:24:05Z</time></trkpt>
<trkpt lat="42.55845001" lon="12.644158015"><ele>128</ele><time>2020-03-01T09:24:06Z</time></trkpt>
<trkpt lat="42.558431989" lon="12.64417503"><ele>128</ele><time>2020-03-01T09:24:07Z</time></trkpt>
<trkpt lat="42.558414973" lon="12.644195985"><ele>128</ele><time>2020-03-01T09:24:08Z</time></trkpt>
<trkpt lat="42.558398964" lon="12.644221969"><ele>128</ele><time>2020-03-01T09:24:09Z</time></trkpt>
<trkpt lat="42.558385972" lon="12.644255999"><ele>128</ele><time>2020-03-01T09:24:10Z</time></trkpt>
<trkpt lat="42.558377003" lon="12.644294975"><ele>128</ele><time>2020-03-01T09:24:11Z</time></trkpt>
<trkpt lat="42.558375997" lon="12.644335963"><ele>128</ele><time>2020-03-01T09:24:12Z</time></trkpt>
<trkpt lat="42.558415979" lon="12.644450041"><ele>129</ele><time>2020-03-01T09:24:15Z</time></trkpt>
<trkpt lat="42.558438024" lon="12.64448097"><ele>129</ele><time>2020-03-01T09:24:16Z</time></trkpt>
<trkpt lat="42.55846099" lon="12.644508965"><ele>129</ele><time>2020-03-01T09:24:17Z</time></trkpt>
<trkpt lat="42.558484962" lon="12.644535033"><ele>129</ele><time>2020-03-01T09:24:18Z</time></trkpt>
<trkpt lat="42.558510024" lon="12.644559005"><ele>129</ele><time>2020-03-01T09:24:19Z</time></trkpt>
<trkpt lat="42.558536008" lon="12.644583983"><ele>129</ele><time>2020-03-01T09:24:20Z</time></trkpt>
<trkpt lat="42.558561992" lon="12.644608961"><ele>129</ele><time>2020-03-01T09:24:21Z</time></trkpt>
<trkpt lat="42.55858697" lon="12.644636035"><ele>129</ele><time>2020-03-01T09:24:22Z</time></trkpt>
<trkpt lat="42.558613038" lon="12.644665036"><ele>130</ele><time>2020-03-01T09:24:23Z</time></trkpt>
<trkpt lat="42.558638016" lon="12.644694038"><ele>130</ele><time>2020-03-01T09:24:24Z</time></trkpt>
<trkpt lat="42.558661988" lon="12.644724967"><ele>130</ele><time>2020-03-01T09:24:25Z</time></trkpt>
<trkpt lat="42.558686966" lon="12.644754974"><ele>130</ele><time>2020-03-01T09:24:26Z</time></trkpt>
<trkpt lat="42.558711022" lon="12.644784981"><ele>130</ele><time>2020-03-01T09:24:27Z</time></trkpt>
<trkpt lat="42.558734994" lon="12.644813983"><ele>130</ele><time>2020-03-01T09:24:28Z</time></trkpt>
<trkpt lat="42.558758967" lon="12.644842984"><ele>130</ele><time>2020-03-01T09:24:29Z</time></trkpt>
<trkpt lat="42.558783023" lon="12.644869974"><ele>130</ele><time>2020-03-01T09:24:30Z</time></trkpt>
<trkpt lat="42.558806995" lon="12.644896964"><ele>131</ele><time>2020-03-01T09:24:31Z</time></trkpt>
<trkpt lat="42.558831973" lon="12.644923031"><ele>131</ele><time>2020-03-01T09:24:32Z</time></trkpt>
<trkpt lat="42.558856029" lon="12.644949015"><ele>131</ele><time>2020-03-01T09:24:33Z</time></trkpt>
<trkpt lat="42.558880001" lon="12.644972987"><ele>131</ele><time>2020-03-01T09:24:34Z</time></trkpt>
<trkpt lat="42.558903974" lon="12.644997966"><ele>131</ele><time>2020-03-01T09:24:35Z</time></trkpt>
<trkpt lat="42.558929035" lon="12.645021016"><ele>131</ele><time>2020-03-01T09:24:36Z</time></trkpt>
<trkpt lat="42.558954014" lon="12.645043982"><ele>131</ele><time>2020-03-01T09:24:37Z</time></trkpt>
<trkpt lat="42.558978992" lon="12.645066027"><ele>131</ele><time>2020-03-01T09:24:38Z</time></trkpt>
<trkpt lat="42.559004975" lon="12.645087987"><ele>132</ele><time>2020-03-01T09:24:39Z</time></trkpt>
<trkpt lat="42.559030037" lon="12.645110032"><ele>132</ele><time>2020-03-01T09:24:40Z</time></trkpt>
<trkpt lat="42.559056021" lon="12.645129981"><ele>132</ele><time>2020-03-01T09:24:41Z</time></trkpt>
<trkpt lat="42.559083011" lon="12.645151019"><ele>132</ele><time>2020-03-01T09:24:42Z</time></trkpt>
<trkpt lat="42.559110001" lon="12.645170968"><ele>132</ele><time>2020-03-01T09:24:43Z</time></trkpt>
<trkpt lat="42.559191976" lon="12.645227965"><ele>132</ele><time>2020-03-01T09:24:46Z</time></trkpt>
<trkpt lat="42.559219971" lon="12.645245986"><ele>132</ele><time>2020-03-01T09:24:47Z</time></trkpt>
<trkpt lat="42.559247967" lon="12.645263001"><ele>133</ele><time>2020-03-01T09:24:48Z</time></trkpt>
<trkpt lat="42.559275962" lon="12.645280017"><ele>133</ele><time>2020-03-01T09:24:49Z</time></trkpt>
<trkpt lat="42.559304042" lon="12.645297032"><ele>133</ele><time>2020-03-01T09:24:50Z</time></trkpt>
<trkpt lat="42.559332959" lon="12.645313041"><ele>133</ele><time>2020-03-01T09:24:51Z</time></trkpt>
<trkpt lat="42.559361961" lon="12.645328967"><ele>133</ele><time>2020-03-01T09:24:52Z</time></trkpt>
<trkpt lat="42.55939004" lon="12.645344976"><ele>133</ele><time>2020-03-01T09:24:53Z</time></trkpt>
<trkpt lat="42.559418036" lon="12.645360986"><ele>133</ele><time>2020-03-01T09:24:54Z</time></trkpt>
<trkpt lat="42.559445025" lon="12.645379007"><ele>133</ele><time>2020-03-01T09:24:55Z</time></trkpt>
<trkpt lat="42.559470003" lon="12.645398034"><ele>133</ele><time>2020-03-01T09:24:56Z</time></trkpt>
<trkpt lat="42.55951602" lon="12.645442961"><ele>133</ele><time>2020-03-01T09:24:58Z</time></trkpt>
<trkpt lat="42.559535969" lon="12.645469029"><ele>133</ele><time>2020-03-01T09:24:59Z</time></trkpt>
<trkpt lat="42.559554996" lon="12.645496018"><ele>134</ele><time>2020-03-01T09:25:00Z</time></trkpt>
<trkpt lat="42.559574023" lon="12.645524014"><ele>134</ele><time>2020-03-01T09:25:01Z</time></trkpt>
<trkpt lat="42.559592966" lon="12.645552009"><ele>134</ele><time>2020-03-01T09:25:02Z</time></trkpt>
<trkpt lat="42.559614005" lon="12.645580005"><ele>134</ele><time>2020-03-01T09:25:03Z</time></trkpt>
<trkpt lat="42.559634959" lon="12.645606995"><ele>134</ele><time>2020-03-01T09:25:04Z</time></trkpt>
<trkpt lat="42.559708972" lon="12.645680001"><ele>134</ele><time>2020-03-01T09:25:07Z</time></trkpt>
<trkpt lat="42.559735961" lon="12.645701962"><ele>134</ele><time>2020-03-01T09:25:08Z</time></trkpt>
<trkpt lat="42.559764041" lon="12.645724006"><ele>134</ele><time>2020-03-01T09:25:09Z</time></trkpt>
<trkpt lat="42.559792036" lon="12.645744961"><ele>134</ele><time>2020-03-01T09:25:10Z</time></trkpt>
<trkpt lat="42.559821038" lon="12.645764994"><ele>135</ele><time>2020-03-01T09:25:11Z</time></trkpt>
<trkpt lat="42.559850961" lon="12.64578402"><ele>135</ele><time>2020-03-01T09:25:12Z</time></trkpt>
<trkpt lat="42.559880968" lon="12.645802964"><ele>135</ele><time>2020-03-01T09:25:13Z</time></trkpt>
<trkpt lat="42.559910975" lon="12.645820985"><ele>135</ele><time>2020-03-01T09:25:14Z</time></trkpt>
<trkpt lat="42.559940983" lon="12.645839006"><ele>135</ele><time>2020-03-01T09:25:15Z</time></trkpt>
<trkpt lat="42.559969984" lon="12.645856021"><ele>135</ele><time>2020-03-01T09:25:16Z</time></trkpt>
<trkpt lat="42.559999991" lon="12.645873036"><ele>135</ele><time>2020-03-01T09:25:17Z</time></trkpt>
<trkpt lat="42.560029998" lon="12.645888962"><ele>135</ele><time>2020-03-01T09:25:18Z</time></trkpt>
<trkpt lat="42.560059" lon="12.645905977"><ele>135</ele><time>2020-03-01T09:25:19Z</time></trkpt>
<trkpt lat="42.56014701" lon="12.645951994"><ele>135</ele><time>2020-03-01T09:25:22Z</time></trkpt>
<trkpt lat="42.560176011" lon="12.645968003"><ele>135</ele><time>2020-03-01T09:25:23Z</time></trkpt>
<trkpt lat="42.560205013" lon="12.645982001"><ele>135</ele><time>2020-03-01T09:25:24Z</time></trkpt>
<trkpt lat="42.560234014" lon="12.645997005"><ele>135</ele><time>2020-03-01T09:25:25Z</time></trkpt>
<trkpt lat="42.560263015" lon="12.646012008"><ele>135</ele><time>2020-03-01T09:25:26Z</time></trkpt>
<trkpt lat="42.560292017" lon="12.646026006"><ele>135</ele><time>2020-03-01T09:25:27Z</time></trkpt>
<trkpt lat="42.560321018" lon="12.64604101"><ele>135</ele><time>2020-03-01T09:25:28Z</time></trkpt>
<trkpt lat="42.560350019" lon="12.646055007"><ele>135</ele><time>2020-03-01T09:25:29Z</time></trkpt>
<trkpt lat="42.560379021" lon="12.646070011"><ele>135</ele><time>2020-03-01T09:25:30Z</time></trkpt>
<trkpt lat="42.560407016" lon="12.646084009"><ele>135</ele><time>2020-03-01T09:25:31Z</time></trkpt>
<trkpt lat="42.560436018" lon="12.646098007"><ele>135</ele><time>2020-03-01T09:25:32Z</time></trkpt>
<trkpt lat="42.560465019" lon="12.64611301"><ele>135</ele><time>2020-03-01T09:25:33Z</time></trkpt>
<trkpt lat="42.560493015" lon="12.646127008"><ele>136</ele><time>2020-03-01T09:25:34Z</time></trkpt>
<trkpt lat="42.560522016" lon="12.646142012"><ele>136</ele><time>2020-03-01T09:25:35Z</time></trkpt>
<trkpt lat="42.560551018" lon="12.646157015"><ele>136</ele><time>2020-03-01T09:25:36Z</time></trkpt>
<trkpt lat="42.560579013" lon="12.646172019"><ele>136</ele><time>2020-03-01T09:25:37Z</time></trkpt>
<trkpt lat="42.560608014" lon="12.646187022"><ele>136</ele><time>2020-03-01T09:25:38Z</time></trkpt>
<trkpt lat="42.560637016" lon="12.646202026"><ele>136</ele><time>2020-03-01T09:25:39Z</time></trkpt>
<trkpt lat="42.560666017" lon="12.646218035"><ele>136</ele><time>2020-03-01T09:25:40Z</time></trkpt>
<trkpt lat="42.560694013" lon="12.646234967"><ele>136</ele><time>2020-03-01T09:25:41Z</time></trkpt>
<trkpt lat="42.560721003" lon="12.646251982"><ele>136</ele><time>2020-03-01T09:25:42Z</time></trkpt>
<trkpt lat="42.560746986" lon="12.646271009"><ele>136</ele><time>2020-03-01T09:25:43Z</time></trkpt>
<trkpt lat="42.560770959" lon="12.646291042"><ele>136</ele><time>2020-03-01T09:25:44Z</time></trkpt>
<trkpt lat="42.560791997" lon="12.646314008"><ele>136</ele><time>2020-03-01T09:25:45Z</time></trkpt>
<trkpt lat="42.560810018" lon="12.646338986"><ele>136</ele><time>2020-03-01T09:25:46Z</time></trkpt>
<trkpt lat="42.560825022" lon="12.646365976"><ele>136</ele><time>2020-03-01T09:25:47Z</time></trkpt>
<trkpt lat="42.560836002" lon="12.646395983"><ele>136</ele><time>2020-03-01T09:25:48Z</time></trkpt>
<trkpt lat="42.560842037" lon="12.646428002"><ele>136</ele><time>2020-03-01T09:25:49Z</time></trkpt>
<trkpt lat="42.560843965" lon="12.646463038"><ele>136</ele><time>2020-03-01T09:25:50Z</time></trkpt>
<trkpt lat="42.56083902" lon="12.646501008"><ele>135</ele><time>2020-03-01T09:25:51Z</time></trkpt>
<trkpt lat="42.560828961" lon="12.646539984"><ele>135</ele><time>2020-03-01T09:25:52Z</time></trkpt>
<trkpt lat="42.560814042" lon="12.646581978"><ele>135</ele><time>2020-03-01T09:25:53Z</time></trkpt>
<trkpt lat="42.560795015" lon="12.646623971"><ele>135</ele><time>2020-03-01T09:25:54Z</time></trkpt>
<trkpt lat="42.560771964" lon="12.646665964"><ele>135</ele><time>2020-03-01T09:25:55Z</time></trkpt>
<trkpt lat="42.560746986" lon="12.64670603"><ele>135</ele><time>2020-03-01T09:25:56Z</time></trkpt>
<trkpt lat="42.560719997" lon="12.646744"><ele>135</ele><time>2020-03-01T09:25:57Z</time></trkpt>
<trkpt lat="42.560693007" lon="12.64677803"><ele>135</ele><time>2020-03-01T09:25:58Z</time></trkpt>
<trkpt lat="42.560664006" lon="12.646809965"><ele>134</ele><time>2020-03-01T09:25:59Z</time></trkpt>
<trkpt lat="42.56063601" lon="12.646839973"><ele>134</ele><time>2020-03-01T09:26:00Z</time></trkpt>
<trkpt lat="42.56060902" lon="12.646867968"><ele>134</ele><time>2020-03-01T09:26:01Z</time></trkpt>
<trkpt lat="42.560582031" lon="12.646895964"><ele>134</ele><time>2020-03-01T09:26:02Z</time></trkpt>
<trkpt lat="42.560555963" lon="12.646923959"><ele>134</ele><time>2020-03-01T09:26:03Z</time></trkpt>
<trkpt lat="42.560531991" lon="12.646952961"><ele>134</ele><time>2020-03-01T09:26:04Z</time></trkpt>
<trkpt lat="42.560509024" lon="12.646982968"><ele>134</ele><time>2020-03-01T09:26:05Z</time></trkpt>
<trkpt lat="42.560485974" lon="12.647014987"><ele>134</ele><time>2020-03-01T09:26:06Z</time></trkpt>
<trkpt lat="42.560462002" lon="12.647048011"><ele>133</ele><time>2020-03-01T09:26:07Z</time></trkpt>
<trkpt lat="42.560437024" lon="12.647082964"><ele>133</ele><time>2020-03-01T09:26:08Z</time></trkpt>
<trkpt lat="42.560411962" lon="12.647114983"><ele>133</ele><time>2020-03-01T09:26:09Z</time></trkpt>
<trkpt lat="42.560386984" lon="12.64714499"><ele>133</ele><time>2020-03-01T09:26:10Z</time></trkpt>
<trkpt lat="42.560362006" lon="12.647172986"><ele>133</ele><time>2020-03-01T09:26:11Z</time></trkpt>
<trkpt lat="42.560337028" lon="12.647200981"><ele>133</ele><time>2020-03-01T09:26:12Z</time></trkpt>
<trkpt lat="42.560313977" lon="12.647229983"><ele>133</ele><time>2020-03-01T09:26:13Z</time></trkpt>
<trkpt lat="42.560292017" lon="12.64725999"><ele>133</ele><time>2020-03-01T09:26:14Z</time></trkpt>
<trkpt lat="42.560270978" lon="12.647292009"><ele>132</ele><time>2020-03-01T09:26:15Z</time></trkpt>
<trkpt lat="42.560251029" lon="12.647326961"><ele>132</ele><time>2020-03-01T09:26:16Z</time></trkpt>
<trkpt lat="42.560230996" lon="12.647364009"><ele>132</ele><time>2020-03-01T09:26:17Z</time></trkpt>
<trkpt lat="42.560210964" lon="12.647401979"><ele>132</ele><time>2020-03-01T09:26:18Z</time></trkpt>
<trkpt lat="42.560190009" lon="12.647438021"><ele>132</ele><time>2020-03-01T09:26:19Z</time></trkpt>
<trkpt lat="42.560166959" lon="12.647472974"><ele>132</ele><time>2020-03-01T09:26:20Z</time></trkpt>
<trkpt lat="42.560140975" lon="12.647503987"><ele>132</ele><time>2020-03-01T09:26:21Z</time></trkpt>
<trkpt lat="42.560111973" lon="12.647530977"><ele>131</ele><time>2020-03-01T09:26:22Z</time></trkpt>
<trkpt lat="42.560080038" lon="12.647556039"><ele>131</ele><time>2020-03-01T09:26:23Z</time></trkpt>
<trkpt lat="42.560047014" lon="12.647579005"><ele>131</ele><time>2020-03-01T09:26:24Z</time></trkpt>
<trkpt lat="42.559944" lon="12.647655029"><ele>131</ele><time>2020-03-01T09:26:27Z</time></trkpt>
<trkpt lat="42.55990997" lon="12.647680007"><ele>130</ele><time>2020-03-01T09:26:28Z</time></trkpt>
<trkpt lat="42.559876023" lon="12.647704985"><ele>130</ele><time>2020-03-01T09:26:29Z</time></trkpt>
<trkpt lat="42.559841992" lon="12.647729963"><ele>130</ele><time>2020-03-01T09:26:30Z</time></trkpt>
<trkpt lat="42.559741996" lon="12.647803975"><ele>130</ele><time>2020-03-01T09:26:33Z</time></trkpt>
<trkpt lat="42.559708972" lon="12.647828031"><ele>129</ele><time>2020-03-01T09:26:34Z</time></trkpt>
<trkpt lat="42.559677036" lon="12.647852004"><ele>129</ele><time>2020-03-01T09:26:35Z</time></trkpt>
<trkpt lat="42.559646023" lon="12.647876982"><ele>129</ele><time>2020-03-01T09:26:36Z</time></trkpt>
<trkpt lat="42.55961501" lon="12.64790196"><ele>129</ele><time>2020-03-01T09:26:37Z</time></trkpt>
<trkpt lat="42.559585003" lon="12.647927022"><ele>129</ele><time>2020-03-01T09:26:38Z</time></trkpt>
<trkpt lat="42.559556002" lon="12.647952"><ele>129</ele><time>2020-03-01T09:26:39Z</time></trkpt>
<trkpt lat="42.559528006" lon="12.647977984"><ele>128</ele><time>2020-03-01T09:26:40Z</time></trkpt>
<trkpt lat="42.559500011" lon="12.648003967"><ele>128</ele><time>2020-03-01T09:26:41Z</time></trkpt>
<trkpt lat="42.559473021" lon="12.648029029"><ele>128</ele><time>2020-03-01T09:26:42Z</time></trkpt>
<trkpt lat="42.559446031" lon="12.648055013"><ele>128</ele><time>2020-03-01T09:26:43Z</time></trkpt>
<trkpt lat="42.559419041" lon="12.648078986"><ele>128</ele><time>2020-03-01T09:26:44Z</time></trkpt>
<trkpt lat="42.559392974" lon="12.648103042"><ele>128</ele><time>2020-03-01T09:26:45Z</time></trkpt>
<trkpt lat="42.559365984" lon="12.648125002"><ele>127</ele><time>2020-03-01T09:26:46Z</time></trkpt>
<trkpt lat="42.55934" lon="12.648146041"><ele>127</ele><time>2020-03-01T09:26:47Z</time></trkpt>
<trkpt lat="42.559312005" lon="12.648166995"><ele>127</ele><time>2020-03-01T09:26:48Z</time></trkpt>
<trkpt lat="42.559284009" lon="12.648187028"><ele>127</ele><time>2020-03-01T09:26:49Z</time></trkpt>
<trkpt lat="42.559256013" lon="12.648206977"><ele>127</ele><time>2020-03-01T09:26:50Z</time></trkpt>
<trkpt lat="42.55916398" lon="12.648260035"><ele>126</ele><time>2020-03-01T09:26:53Z</time></trkpt>
<trkpt lat="42.559133973" lon="12.648262968"><ele>126</ele><time>2020-03-01T09:26:54Z</time></trkpt>
<trkpt lat="42.559107989" lon="12.648249976"><ele>126</ele><time>2020-03-01T09:26:55Z</time></trkpt>
<trkpt lat="42.559085023" lon="12.648226004"><ele>126</ele><time>2020-03-01T09:26:56Z</time></trkpt>
<trkpt lat="42.559067002" lon="12.648198009"><ele>126</ele><time>2020-03-01T09:26:57Z</time></trkpt>
<trkpt lat="42.559051998" lon="12.648170013"><ele>126</ele><time>2020-03-01T09:26:58Z</time></trkpt>
<trkpt lat="42.559039006" lon="12.648143023"><ele>126</ele><time>2020-03-01T09:26:59Z</time></trkpt>
<trkpt lat="42.55902702" lon="12.648115028"><ele>126</ele><time>2020-03-01T09:27:00Z</time></trkpt>
<trkpt lat="42.55901101" lon="12.64808502"><ele>126</ele><time>2020-03-01T09:27:01Z</time></trkpt>
<trkpt lat="42.558992989" lon="12.648056019"><ele>126</ele><time>2020-03-01T09:27:02Z</time></trkpt>
<trkpt lat="42.55897304" lon="12.648027018"><ele>126</ele><time>2020-03-01T09:27:03Z</time></trkpt>
<trkpt lat="42.55894999" lon="12.648001034"><ele>126</ele><time>2020-03-01T09:27:04Z</time></trkpt>
<trkpt lat="42.558926018" lon="12.647977984"><ele>126</ele><time>2020-03-01T09:27:05Z</time></trkpt>
<trkpt lat="42.558900034" lon="12.647956023"><ele>126</ele><time>2020-03-01T09:27:06Z</time></trkpt>
<trkpt lat="42.558872038" lon="12.647936996"><ele>126</ele><time>2020-03-01T09:27:07Z</time></trkpt>
<trkpt lat="42.558843037" lon="12.647918975"><ele>126</ele><time>2020-03-01T09:27:08Z</time></trkpt>
<trkpt lat="42.558814036" lon="12.647902966"><ele>126</ele><time>2020-03-01T09:27:09Z</time></trkpt>
<trkpt lat="42.558783023" lon="12.64788704"><ele>126</ele><time>2020-03-01T09:27:10Z</time></trkpt>
<trkpt lat="42.558753015" lon="12.647872958"><ele>126</ele><time>2020-03-01T09:27:11Z</time></trkpt>
<trkpt lat="42.558720997" lon="12.647858039"><ele>126</ele><time>2020-03-01T09:27:12Z</time></trkpt>
<trkpt lat="42.558689984" lon="12.647844963"><ele>126</ele><time>2020-03-01T09:27:13Z</time></trkpt>
<trkpt lat="42.558658971" lon="12.647829959"><ele>125</ele><time>2020-03-01T09:27:14Z</time></trkpt>
<trkpt lat="42.558628963" lon="12.647815961"><ele>125</ele><time>2020-03-01T09:27:15Z</time></trkpt>
<trkpt lat="42.55859904" lon="12.647801042"><ele>125</ele><time>2020-03-01T09:27:16Z</time></trkpt>
<trkpt lat="42.558569033" lon="12.647786038"><ele>125</ele><time>2020-03-01T09:27:17Z</time></trkpt>
<trkpt lat="42.558481023" lon="12.647737004"><ele>125</ele><time>2020-03-01T09:27:20Z</time></trkpt>
<trkpt lat="42.558453027" lon="12.647719989"><ele>125</ele><time>2020-03-01T09:27:21Z</time></trkpt>
<trkpt lat="42.558424026" lon="12.647702973"><ele>125</ele><time>2020-03-01T09:27:22Z</time></trkpt>
<trkpt lat="42.55839603" lon="12.64768403"><ele>125</ele><time>2020-03-01T09:27:23Z</time></trkpt>
<trkpt lat="42.558367029" lon="12.647665003"><ele>125</ele><time>2020-03-01T09:27:24Z</time></trkpt>
<trkpt lat="42.558339033" lon="12.647645976"><ele>125</ele><time>2020-03-01T09:27:25Z</time></trkpt>
<trkpt lat="42.558311038" lon="12.647626027"><ele>125</ele><time>2020-03-01T09:27:26Z</time></trkpt>
<trkpt lat="42.558282036" lon="12.647604989"><ele>124</ele><time>2020-03-01T09:27:27Z</time></trkpt>
<trkpt lat="42.558254041" lon="12.647585962"><ele>124</ele><time>2020-03-01T09:27:28Z</time></trkpt>
<trkpt lat="42.558225039" lon="12.647568025"><ele>124</ele><time>2020-03-01T09:27:29Z</time></trkpt>
<trkpt lat="42.558196038" lon="12.647553021"><ele>124</ele><time>2020-03-01T09:27:30Z</time></trkpt>
<trkpt lat="42.558166031" lon="12.647543969"><ele>124</ele><time>2020-03-01T09:27:31Z</time></trkpt>
<trkpt lat="42.558136024" lon="12.647541035"><ele>124</ele><time>2020-03-01T09:27:32Z</time></trkpt>
<trkpt lat="42.558106016" lon="12.647543969"><ele>124</ele><time>2020-03-01T09:27:33Z</time></trkpt>
<trkpt lat="42.558075003" lon="12.647552015"><ele>124</ele><time>2020-03-01T09:27:34Z</time></trkpt>
<trkpt lat="42.557981964" lon="12.647575988"><ele>124</ele><time>2020-03-01T09:27:37Z</time></trkpt>
<trkpt lat="42.557951035" lon="12.647574982"><ele>123</ele><time>2020-03-01T09:27:38Z</time></trkpt>
<trkpt lat="42.557921028" lon="12.647566013"><ele>123</ele><time>2020-03-01T09:27:39Z</time></trkpt>
<trkpt lat="42.557892026" lon="12.647548998"><ele>123</ele><time>2020-03-01T09:27:40Z</time></trkpt>
<trkpt lat="42.557863025" lon="12.647526031"><ele>123</ele><time>2020-03-01T09:27:41Z</time></trkpt>
<trkpt lat="42.557836035" lon="12.647499042"><ele>123</ele><time>2020-03-01T09:27:42Z</time></trkpt>
<trkpt lat="42.557810973" lon="12.647469034"><ele>123</ele><time>2020-03-01T09:27:43Z</time></trkpt>
<trkpt lat="42.557787001" lon="12.647438021"><ele>123</ele><time>2020-03-01T09:27:44Z</time></trkpt>
<trkpt lat="42.557765041" lon="12.647407008"><ele>123</ele><time>2020-03-01T09:27:45Z</time></trkpt>
<trkpt lat="42.557744002" lon="12.647375995"><ele>123</ele><time>2020-03-01T09:27:46Z</time></trkpt>
<trkpt lat="42.557724975" lon="12.647343976"><ele>123</ele><time>2020-03-01T09:27:47Z</time></trkpt>
<trkpt lat="42.557706032" lon="12.647311036"><ele>123</ele><time>2020-03-01T09:27:48Z</time></trkpt>
<trkpt lat="42.557688011" lon="12.647277005"><ele>123</ele><time>2020-03-01T09:27:49Z</time></trkpt>
<trkpt lat="42.55766999" lon="12.647240041"><ele>123</ele><time>2020-03-01T09:27:50Z</time></trkpt>
<trkpt lat="42.557650963" lon="12.647199975"><ele>123</ele><time>2020-03-01T09:27:51Z</time></trkpt>
<trkpt lat="42.55763202" lon="12.647160999"><ele>123</ele><time>2020-03-01T09:27:52Z</time></trkpt>
<trkpt lat="42.557611987" lon="12.647124035"><ele>123</ele><time>2020-03-01T09:27:53Z</time></trkpt>
<trkpt lat="42.557591032" lon="12.647094028"><ele>123</ele><time>2020-03-01T09:27:54Z</time></trkpt>
<trkpt lat="42.557569994" lon="12.647071984"><ele>123</ele><time>2020-03-01T09:27:55Z</time></trkpt>
<trkpt lat="42.557547027" lon="12.647062009"><ele>123</ele><time>2020-03-01T09:27:56Z</time></trkpt>
<trkpt lat="42.557522971" lon="12.647065027"><ele>123</ele><time>2020-03-01T09:27:57Z</time></trkpt>
<trkpt lat="42.557473015" lon="12.647106014"><ele>122</ele><time>2020-03-01T09:27:59Z</time></trkpt>
<trkpt lat="42.557448037" lon="12.647137027"><ele>122</ele><time>2020-03-01T09:28:00Z</time></trkpt>
<trkpt lat="42.557423981" lon="12.64717198"><ele>122</ele><time>2020-03-01T09:28:01Z</time></trkpt>
<trkpt lat="42.557400009" lon="12.647207016"><ele>122</ele><time>2020-03-01T09:28:02Z</time></trkpt>
<trkpt lat="42.557376958" lon="12.647240963"><ele>122</ele><time>2020-03-01T09:28:03Z</time></trkpt>
<trkpt lat="42.557354998" lon="12.647273988"><ele>122</ele><time>2020-03-01T09:28:04Z</time></trkpt>
<trkpt lat="42.557333959" lon="12.647305001"><ele>122</ele><time>2020-03-01T09:28:05Z</time></trkpt>
<trkpt lat="42.55731401" lon="12.647334002"><ele>121</ele><time>2020-03-01T09:28:06Z</time></trkpt>
<trkpt lat="42.557293978" lon="12.647361998"><ele>121</ele><time>2020-03-01T09:28:07Z</time></trkpt>
<trkpt lat="42.557275034" lon="12.647389993"><ele>121</ele><time>2020-03-01T09:28:08Z</time></trkpt>
<trkpt lat="42.557256008" lon="12.647415977"><ele>121</ele><time>2020-03-01T09:28:09Z</time></trkpt>
<trkpt lat="42.557237986" lon="12.647441961"><ele>121</ele><time>2020-03-01T09:28:10Z</time></trkpt>
<trkpt lat="42.55721896" lon="12.647468029"><ele>121</ele><time>2020-03-01T09:28:11Z</time></trkpt>
<trkpt lat="42.557200016" lon="12.647494012"><ele>121</ele><time>2020-03-01T09:28:12Z</time></trkpt>
<trkpt lat="42.55718099" lon="12.647518991"><ele>121</ele><time>2020-03-01T09:28:13Z</time></trkpt>
<trkpt lat="42.557161041" lon="12.64754598"><ele>121</ele><time>2020-03-01T09:28:14Z</time></trkpt>
<trkpt lat="42.557141008" lon="12.647571964"><ele>121</ele><time>2020-03-01T09:28:15Z</time></trkpt>
<trkpt lat="42.557122987" lon="12.64759996"><ele>121</ele><time>2020-03-01T09:28:16Z</time></trkpt>
<trkpt lat="42.557107983" lon="12.647628039"><ele>121</ele><time>2020-03-01T09:28:17Z</time></trkpt>
<trkpt lat="42.557098009" lon="12.647657963"><ele>121</ele><time>2020-03-01T09:28:18Z</time></trkpt>
<trkpt lat="42.557093985" lon="12.647688976"><ele>121</ele><time>2020-03-01T09:28:19Z</time></trkpt>
<trkpt lat="42.557095997" lon="12.647722"><ele>121</ele><time>2020-03-01T09:28:20Z</time></trkpt>
<trkpt lat="42.557104966" lon="12.647756031"><ele>121</ele><time>2020-03-01T09:28:21Z</time></trkpt>
<trkpt lat="42.557118041" lon="12.647790983"><ele>121</ele><time>2020-03-01T09:28:22Z</time></trkpt>
<trkpt lat="42.557134973" lon="12.647825014"><ele>121</ele><time>2020-03-01T09:28:23Z</time></trkpt>
<trkpt lat="42.557154" lon="12.647858961"><ele>121</ele><time>2020-03-01T09:28:24Z</time></trkpt>
<trkpt lat="42.557173027" lon="12.647890979"><ele>121</ele><time>2020-03-01T09:28:25Z</time></trkpt>
<trkpt lat="42.557190964" lon="12.647920987"><ele>121</ele><time>2020-03-01T09:28:26Z</time></trkpt>
<trkpt lat="42.557205968" lon="12.647946971"><ele>121</ele><time>2020-03-01T09:28:27Z</time></trkpt>
<trkpt lat="42.55721896" lon="12.647967003"><ele>121</ele><time>2020-03-01T09:28:28Z</time></trkpt>
<trkpt lat="42.557231029" lon="12.647974966"><ele>121</ele><time>2020-03-01T09:28:29Z</time></trkpt>
<trkpt lat="42.557243016" lon="12.647971027"><ele>121</ele><time>2020-03-01T09:28:30Z</time></trkpt>
<trkpt lat="42.557248967" lon="12.647956023"><ele>121</ele><time>2020-03-01T09:28:31Z</time></trkpt>
<trkpt lat="42.557245027" lon="12.647934984"><ele>121</ele><time>2020-03-01T09:28:32Z</time></trkpt>
<trkpt lat="42.557226" lon="12.647910006"><ele>121</ele><time>2020-03-01T09:28:33Z</time></trkpt>
<trkpt lat="42.557196999" lon="12.647884022"><ele>121</ele><time>2020-03-01T09:28:34Z</time></trkpt>
<trkpt lat="42.557166992" lon="12.647859966"><ele>121</ele><time>2020-03-01T09:28:35Z</time></trkpt>
<trkpt lat="42.557102032" lon="12.647801964"><ele>121</ele><time>2020-03-01T09:28:38Z</time></trkpt>
<trkpt lat="42.557088034" lon="12.647781009"><ele>121</ele><time>2020-03-01T09:28:39Z</time></trkpt>
<trkpt lat="42.557074036" lon="12.647758964"><ele>121</ele><time>2020-03-01T09:28:40Z</time></trkpt>
<trkpt lat="42.557060961" lon="12.64773801"><ele>121</ele><time>2020-03-01T09:28:41Z</time></trkpt>
<trkpt lat="42.557046041" lon="12.647718983"><ele>120</ele><time>2020-03-01T09:28:42Z</time></trkpt>
<trkpt lat="42.557030031" lon="12.647704985"><ele>120</ele><time>2020-03-01T09:28:43Z</time></trkpt>
<trkpt lat="42.557009999" lon="12.647698028"><ele>120</ele><time>2020-03-01T09:28:44Z</time></trkpt>
<trkpt lat="42.556986026" lon="12.647698028"><ele>120</ele><time>2020-03-01T09:28:45Z</time></trkpt>
<trkpt lat="42.556959037" lon="12.647703979"><ele>120</ele><time>2020-03-01T09:28:46Z</time></trkpt>
<trkpt lat="42.556931041" lon="12.647714037"><ele>120</ele><time>2020-03-01T09:28:47Z</time></trkpt>
<trkpt lat="42.556902962" lon="12.647726024"><ele>120</ele><time>2020-03-01T09:28:48Z</time></trkpt>
<trkpt lat="42.556876978" lon="12.64773801"><ele>120</ele><time>2020-03-01T09:28:49Z</time></trkpt>
<trkpt lat="42.556854011" lon="12.647747984"><ele>120</ele><time>2020-03-01T09:28:50Z</time></trkpt>
<trkpt lat="42.556800032" lon="12.647776986"><ele>120</ele><time>2020-03-01T09:28:53Z</time></trkpt>
<trkpt lat="42.556784023" lon="12.647791989"><ele>120</ele><time>2020-03-01T09:28:54Z</time></trkpt>
<trkpt lat="42.556767007" lon="12.64781001"><ele>120</ele><time>2020-03-01T09:28:55Z</time></trkpt>
<trkpt lat="42.556748986" lon="12.647833982"><ele>120</ele><time>2020-03-01T09:28:56Z</time></trkpt>
<trkpt lat="42.556692995" lon="12.647928027"><ele>120</ele><time>2020-03-01T09:28:59Z</time></trkpt>
<trkpt lat="42.556673968" lon="12.64796298"><ele>120</ele><time>2020-03-01T09:29:00Z</time></trkpt>
<trkpt lat="42.556657037" lon="12.647998016"><ele>120</ele><time>2020-03-01T09:29:01Z</time></trkpt>
<trkpt lat="42.556641027" lon="12.648031963"><ele>120</ele><time>2020-03-01T09:29:02Z</time></trkpt>
<trkpt lat="42.556626024" lon="12.648063982"><ele>121</ele><time>2020-03-01T09:29:03Z</time></trkpt>
<trkpt lat="42.55661102" lon="12.648094995"><ele>121</ele><time>2020-03-01T09:29:04Z</time></trkpt>
<trkpt lat="42.556594005" lon="12.648126008"><ele>121</ele><time>2020-03-01T09:29:05Z</time></trkpt>
<trkpt lat="42.556574978" lon="12.648157021"><ele>121</ele><time>2020-03-01T09:29:06Z</time></trkpt>
<trkpt lat="42.556553017" lon="12.648187028"><ele>121</ele><time>2020-03-01T09:29:07Z</time></trkpt>
<trkpt lat="42.556526028" lon="12.648217035"><ele>122</ele><time>2020-03-01T09:29:08Z</time></trkpt>
<trkpt lat="42.556497026" lon="12.648247965"><ele>122</ele><time>2020-03-01T09:29:09Z</time></trkpt>
<trkpt lat="42.556466013" lon="12.648278978"><ele>122</ele><time>2020-03-01T09:29:10Z</time></trkpt>
<trkpt lat="42.556435" lon="12.648310997"><ele>122</ele><time>2020-03-01T09:29:11Z</time></trkpt>
<trkpt lat="42.556403987" lon="12.648344021"><ele>123</ele><time>2020-03-01T09:29:12Z</time></trkpt>
<trkpt lat="42.556374986" lon="12.648376962"><ele>123</ele><time>2020-03-01T09:29:13Z</time></trkpt>
<trkpt lat="42.556349002" lon="12.648411999"><ele>123</ele><time>2020-03-01T09:29:14Z</time></trkpt>
<trkpt lat="42.55632503" lon="12.648447035"><ele>123</ele><time>2020-03-01T09:29:15Z</time></trkpt>
<trkpt lat="42.556303991" lon="12.648482993"><ele>123</ele><time>2020-03-01T09:29:16Z</time></trkpt>
<trkpt lat="42.556246994" lon="12.648583995"><ele>124</ele><time>2020-03-01T09:29:19Z</time></trkpt>
<trkpt lat="42.556227967" lon="12.648615008"><ele>124</ele><time>2020-03-01T09:29:20Z</time></trkpt>
<trkpt lat="42.556209024" lon="12.648643004"><ele>124</ele><time>2020-03-01T09:29:21Z</time></trkpt>
<trkpt lat="42.55614398" lon="12.648706036"><ele>125</ele><time>2020-03-01T09:29:24Z</time></trkpt>
<trkpt lat="42.556117997" lon="12.648719028"><ele>125</ele><time>2020-03-01T09:29:25Z</time></trkpt>
<trkpt lat="42.556088995" lon="12.648725985"><ele>125</ele><time>2020-03-01T09:29:26Z</time></trkpt>
<trkpt lat="42.556056976" lon="12.648729002"><ele>125</ele><time>2020-03-01T09:29:27Z</time></trkpt>
<trkpt lat="42.556025041" lon="12.648729002"><ele>125</ele><time>2020-03-01T09:29:28Z</time></trkpt>
<trkpt lat="42.555926973" lon="12.648711987"><ele>126</ele><time>2020-03-01T09:29:31Z</time></trkpt>
<trkpt lat="42.555897972" lon="12.648704024"><ele>126</ele><time>2020-03-01T09:29:32Z</time></trkpt>
<trkpt lat="42.555869976" lon="12.648694972"><ele>126</ele><time>2020-03-01T09:29:33Z</time></trkpt>
<trkpt lat="42.555841981" lon="12.648686003"><ele>126</ele><time>2020-03-01T09:29:34Z</time></trkpt>
<trkpt lat="42.555814991" lon="12.648676028"><ele>127</ele><time>2020-03-01T09:29:35Z</time></trkpt>
<trkpt lat="42.555785989" lon="12.648666976"><ele>127</ele><time>2020-03-01T09:29:36Z</time></trkpt>
<trkpt lat="42.555755982" lon="12.648658007"><ele>127</ele><time>2020-03-01T09:29:37Z</time></trkpt>
<trkpt lat="42.555723963" lon="12.648649039"><ele>127</ele><time>2020-03-01T09:29:38Z</time></trkpt>
<trkpt lat="42.555691022" lon="12.648639986"><ele>127</ele><time>2020-03-01T09:29:39Z</time></trkpt>
<trkpt lat="42.555655986" lon="12.648632023"><ele>127</ele><time>2020-03-01T09:29:40Z</time></trkpt>
<trkpt lat="42.555622039" lon="12.648622971"><ele>127</ele><time>2020-03-01T09:29:41Z</time></trkpt>
<trkpt lat="42.555589015" lon="12.648614002"><ele>127</ele><time>2020-03-01T09:29:42Z</time></trkpt>
<trkpt lat="42.555556996" lon="12.648604028"><ele>127</ele><time>2020-03-01T09:29:43Z</time></trkpt>
<trkpt lat="42.555527994" lon="12.64859397"><ele>127</ele><time>2020-03-01T09:29:44Z</time></trkpt>
<trkpt lat="42.555501005" lon="12.648582989"><ele>127</ele><time>2020-03-01T09:29:45Z</time></trkpt>
<trkpt lat="42.555475021" lon="12.648571003"><ele>127</ele><time>2020-03-01T09:29:46Z</time></trkpt>
<trkpt lat="42.555450965" lon="12.648558011"><ele>127</ele><time>2020-03-01T09:29:47Z</time></trkpt>
<trkpt lat="42.555426992" lon="12.648544014"><ele>127</ele><time>2020-03-01T09:29:48Z</time></trkpt>
<trkpt lat="42.555402014" lon="12.64852901"><ele>127</ele><time>2020-03-01T09:29:49Z</time></trkpt>
<trkpt lat="42.555377036" lon="12.648511995"><ele>127</ele><time>2020-03-01T09:29:50Z</time></trkpt>
<trkpt lat="42.555351974" lon="12.648494979"><ele>128</ele><time>2020-03-01T09:29:51Z</time></trkpt>
<trkpt lat="42.555325991" lon="12.648476958"><ele>128</ele><time>2020-03-01T09:29:52Z</time></trkpt>
<trkpt lat="42.555300007" lon="12.648458015"><ele>128</ele><time>2020-03-01T09:29:53Z</time></trkpt>
<trkpt lat="42.555220965" lon="12.648402024"><ele>128</ele><time>2020-03-01T09:29:56Z</time></trkpt>
<trkpt lat="42.555194981" lon="12.648384003"><ele>128</ele><time>2020-03-01T09:29:57Z</time></trkpt>
<trkpt lat="42.555168997" lon="12.648365982"><ele>128</ele><time>2020-03-01T09:29:58Z</time></trkpt>
<trkpt lat="42.555089034" lon="12.648312002"><ele>128</ele><time>2020-03-01T09:30:01Z</time></trkpt>
<trkpt lat="42.555061039" lon="12.648294987"><ele>128</ele><time>2020-03-01T09:30:02Z</time></trkpt>
<trkpt lat="42.555033965" lon="12.648276966"><ele>128</ele><time>2020-03-01T09:30:03Z</time></trkpt>
<trkpt lat="42.555005969" lon="12.648259029"><ele>128</ele><time>2020-03-01T09:30:04Z</time></trkpt>
<trkpt lat="42.554977974" lon="12.648241008"><ele>128</ele><time>2020-03-01T09:30:05Z</time></trkpt>
<trkpt lat="42.554949978" lon="12.648222987"><ele>128</ele><time>2020-03-01T09:30:06Z</time></trkpt>
<trkpt lat="42.554921983" lon="12.648204966"><ele>128</ele><time>2020-03-01T09:30:07Z</time></trkpt>
<trkpt lat="42.554893987" lon="12.648187028"><ele>128</ele><time>2020-03-01T09:30:08Z</time></trkpt>
<trkpt lat="42.554865992" lon="12.648169007"><ele>128</ele><time>2020-03-01T09:30:09Z</time></trkpt>
<trkpt lat="42.554837996" lon="12.648151992"><ele>128</ele><time>2020-03-01T09:30:10Z</time></trkpt>
<trkpt lat="42.554811006" lon="12.648133971"><ele>128</ele><time>2020-03-01T09:30:11Z</time></trkpt>
<trkpt lat="42.554783011" lon="12.648117039"><ele>128</ele><time>2020-03-01T09:30:12Z</time></trkpt>
<trkpt lat="42.554756021" lon="12.648100024"><ele>128</ele><time>2020-03-01T09:30:13Z</time></trkpt>
<trkpt lat="42.554728026" lon="12.648083009"><ele>128</ele><time>2020-03-01T09:30:14Z</time></trkpt>
<trkpt lat="42.554701036" lon="12.648066999"><ele>128</ele><time>2020-03-01T09:30:15Z</time></trkpt>
<trkpt lat="42.554674968" lon="12.648049984"><ele>128</ele><time>2020-03-01T09:30:16Z</time></trkpt>
<trkpt lat="42.554647978" lon="12.648033975"><ele>128</ele><time>2020-03-01T09:30:17Z</time></trkpt>
<trkpt lat="42.554620989" lon="12.648017965"><ele>128</ele><time>2020-03-01T09:30:18Z</time></trkpt>
<trkpt lat="42.554593999" lon="12.648002962"><ele>128</ele><time>2020-03-01T09:30:19Z</time></trkpt>
<trkpt lat="42.554567009" lon="12.647988042"><ele>128</ele><time>2020-03-01T09:30:20Z</time></trkpt>
<trkpt lat="42.554540019" lon="12.647973038"><ele>128</ele><time>2020-03-01T09:30:21Z</time></trkpt>
<trkpt lat="42.554512024" lon="12.647958035"><ele>128</ele><time>2020-03-01T09:30:22Z</time></trkpt>
<trkpt lat="42.554484028" lon="12.647944037"><ele>128</ele><time>2020-03-01T09:30:23Z</time></trkpt>
<trkpt lat="42.554455027" lon="12.647930039"><ele>128</ele><time>2020-03-01T09:30:24Z</time></trkpt>
<trkpt lat="42.554426026" lon="12.647916963"><ele>128</ele><time>2020-03-01T09:30:25Z</time></trkpt>
<trkpt lat="42.554396018" lon="12.647903971"><ele>128</ele><time>2020-03-01T09:30:26Z</time></trkpt>
<trkpt lat="42.554366011" lon="12.647890979"><ele>128</ele><time>2020-03-01T09:30:27Z</time></trkpt>
<trkpt lat="42.554334998" lon="12.647878993"><ele>128</ele><time>2020-03-01T09:30:28Z</time></trkpt>
<trkpt lat="42.554303985" lon="12.647867007"><ele>128</ele><time>2020-03-01T09:30:29Z</time></trkpt>
<trkpt lat="42.554272972" lon="12.647855021"><ele>128</ele><time>2020-03-01T09:30:30Z</time></trkpt>
<trkpt lat="42.554241959" lon="12.647843035"><ele>128</ele><time>2020-03-01T09:30:31Z</time></trkpt>
<trkpt lat="42.55421103" lon="12.647831971"><ele>128</ele><time>2020-03-01T09:30:32Z</time></trkpt>
<trkpt lat="42.554180017" lon="12.647819985"><ele>128</ele><time>2020-03-01T09:30:33Z</time></trkpt>
<trkpt lat="42.554147998" lon="12.647809004"><ele>128</ele><time>2020-03-01T09:30:34Z</time></trkpt>
<trkpt lat="42.554116985" lon="12.647798024"><ele>128</ele><time>2020-03-01T09:30:35Z</time></trkpt>
<trkpt lat="42.554085972" lon="12.64778696"><ele>128</ele><time>2020-03-01T09:30:36Z</time></trkpt>
<trkpt lat="42.554055965" lon="12.64777598"><ele>128</ele><time>2020-03-01T09:30:37Z</time></trkpt>
<trkpt lat="42.554025035" lon="12.647766005"><ele>128</ele><time>2020-03-01T09:30:38Z</time></trkpt>
<trkpt lat="42.553995028" lon="12.647755025"><ele>128</ele><time>2020-03-01T09:30:39Z</time></trkpt>
<trkpt lat="42.553965021" lon="12.647743961"><ele>129</ele><time>2020-03-01T09:30:40Z</time></trkpt>
<trkpt lat="42.553935014" lon="12.647733986"><ele>129</ele><time>2020-03-01T09:30:41Z</time></trkpt>
<trkpt lat="42.553905006" lon="12.647724012"><ele>129</ele><time>2020-03-01T09:30:42Z</time></trkpt>
<trkpt lat="42.553876005" lon="12.647713032"><ele>129</ele><time>2020-03-01T09:30:43Z</time></trkpt>
<trkpt lat="42.553845998" lon="12.647702973"><ele>129</ele><time>2020-03-01T09:30:44Z</time></trkpt>
<trkpt lat="42.553816997" lon="12.647691993"><ele>129</ele><time>2020-03-01T09:30:45Z</time></trkpt>
<trkpt lat="42.553786989" lon="12.647682019"><ele>129</ele><time>2020-03-01T09:30:46Z</time></trkpt>
<trkpt lat="42.553757988" lon="12.64767196"><ele>129</ele><time>2020-03-01T09:30:47Z</time></trkpt>
<trkpt lat="42.553728987" lon="12.647661986"><ele>129</ele><time>2020-03-01T09:30:48Z</time></trkpt>
<trkpt lat="42.553699985" lon="12.647652011"><ele>129</ele><time>2020-03-01T09:30:49Z</time></trkpt>
<trkpt lat="42.553670984" lon="12.647642037"><ele>129</ele><time>2020-03-01T09:30:50Z</time></trkpt>
<trkpt lat="42.553641982" lon="12.647632984"><ele>129</ele><time>2020-03-01T09:30:51Z</time></trkpt>
<trkpt lat="42.553612981" lon="12.647624016"><ele>129</ele><time>2020-03-01T09:30:52Z</time></trkpt>
<trkpt lat="42.553584985" lon="12.647615969"><ele>129</ele><time>2020-03-01T09:30:53Z</time></trkpt>
<trkpt lat="42.553557996" lon="12.647608006"><ele>130</ele><time>2020-03-01T09:30:54Z</time></trkpt>
<trkpt lat="42.553531006" lon="12.647601971"><ele>130</ele><time>2020-03-01T09:30:55Z</time></trkpt>
<trkpt lat="42.553505022" lon="12.647598032"><ele>130</ele><time>2020-03-01T09:30:56Z</time></trkpt>
<trkpt lat="42.55347996" lon="12.647597026"><ele>130</ele><time>2020-03-01T09:30:57Z</time></trkpt>
<trkpt lat="42.553456994" lon="12.647599038"><ele>130</ele><time>2020-03-01T09:30:58Z</time></trkpt>
<trkpt lat="42.553434027" lon="12.647604989"><ele>130</ele><time>2020-03-01T09:30:59Z</time></trkpt>
<trkpt lat="42.553411983" lon="12.647615969"><ele>130</ele><time>2020-03-01T09:31:00Z</time></trkpt>
<trkpt lat="42.553392034" lon="12.647632984"><ele>130</ele><time>2020-03-01T09:31:01Z</time></trkpt>
<trkpt lat="42.553372001" lon="12.647655029"><ele>130</ele><time>2020-03-01T09:31:02Z</time></trkpt>
<trkpt lat="42.55335398" lon="12.647681013"><ele>130</ele><time>2020-03-01T09:31:03Z</time></trkpt>
<trkpt lat="42.553335037" lon="12.647708002"><ele>130</ele><time>2020-03-01T09:31:04Z</time></trkpt>
<trkpt lat="42.553296983" lon="12.647766005"><ele>130</ele><time>2020-03-01T09:31:06Z</time></trkpt>
<trkpt lat="42.553276028" lon="12.647794001"><ele>130</ele><time>2020-03-01T09:31:07Z</time></trkpt>
<trkpt lat="42.55325499" lon="12.647820991"><ele>130</ele><time>2020-03-01T09:31:08Z</time></trkpt>
<trkpt lat="42.553234035" lon="12.647844963"><ele>130</ele><time>2020-03-01T09:31:09Z</time></trkpt>
<trkpt lat="42.553211991" lon="12.647868013"><ele>130</ele><time>2020-03-01T09:31:10Z</time></trkpt>
<trkpt lat="42.55319003" lon="12.647888968"><ele>130</ele><time>2020-03-01T09:31:11Z</time></trkpt>
<trkpt lat="42.553167986" lon="12.647907995"><ele>130</ele><time>2020-03-01T09:31:12Z</time></trkpt>
<trkpt lat="42.553147031" lon="12.647922998"><ele>131</ele><time>2020-03-01T09:31:13Z</time></trkpt>
<trkpt lat="42.553124987" lon="12.647938002"><ele>131</ele><time>2020-03-01T09:31:14Z</time></trkpt>
<trkpt lat="42.553104032" lon="12.647950994"><ele>131</ele><time>2020-03-01T09:31:15Z</time></trkpt>
<trkpt lat="42.553082993" lon="12.647964992"><ele>131</ele><time>2020-03-01T09:31:16Z</time></trkpt>
<trkpt lat="42.553061033" lon="12.647979995"><ele>131</ele><time>2020-03-01T09:31:17Z</time></trkpt>
<trkpt lat="42.553039994" lon="12.64799701"><ele>131</ele><time>2020-03-01T09:31:18Z</time></trkpt>
<trkpt lat="42.553019039" lon="12.648017965"><ele>131</ele><time>2020-03-01T09:31:19Z</time></trkpt>
<trkpt lat="42.552998001" lon="12.64804001"><ele>131</ele><time>2020-03-01T09:31:20Z</time></trkpt>
<trkpt lat="42.552931029" lon="12.64811201"><ele>131</ele><time>2020-03-01T09:31:23Z</time></trkpt>
<trkpt lat="42.552907979" lon="12.648133971"><ele>131</ele><time>2020-03-01T09:31:24Z</time></trkpt>
<trkpt lat="42.552884007" lon="12.648154004"><ele>131</ele><time>2020-03-01T09:31:25Z</time></trkpt>
<trkpt lat="42.55286104" lon="12.648175964"><ele>132</ele><time>2020-03-01T09:31:26Z</time></trkpt>
<trkpt lat="42.552842014" lon="12.64820396"><ele>132</ele><time>2020-03-01T09:31:27Z</time></trkpt>
<trkpt lat="42.552826004" lon="12.648238996"><ele>132</ele><time>2020-03-01T09:31:28Z</time></trkpt>
<trkpt lat="42.552815024" lon="12.648278978"><ele>132</ele><time>2020-03-01T09:31:29Z</time></trkpt>
<trkpt lat="42.552805971" lon="12.648319965"><ele>132</ele><time>2020-03-01T09:31:30Z</time></trkpt>
<trkpt lat="42.552799014" lon="12.648358019"><ele>132</ele><time>2020-03-01T09:31:31Z</time></trkpt>
<trkpt lat="42.552793985" lon="12.648394983"><ele>132</ele><time>2020-03-01T09:31:32Z</time></trkpt>
<trkpt lat="42.552788034" lon="12.648428008"><ele>133</ele><time>2020-03-01T09:31:33Z</time></trkpt>
<trkpt lat="42.552779987" lon="12.648460027"><ele>133</ele><time>2020-03-01T09:31:34Z</time></trkpt>
<trkpt lat="42.552770013" lon="12.648490034"><ele>133</ele><time>2020-03-01T09:31:35Z</time></trkpt>
<trkpt lat="42.552756015" lon="12.64851803"><ele>133</ele><time>2020-03-01T09:31:36Z</time></trkpt>
<trkpt lat="42.552736988" lon="12.648545019"><ele>134</ele><time>2020-03-01T09:31:37Z</time></trkpt>
<trkpt lat="42.552714022" lon="12.648571003"><ele>134</ele><time>2020-03-01T09:31:38Z</time></trkpt>
<trkpt lat="42.552688038" lon="12.648596987"><ele>134</ele><time>2020-03-01T09:31:39Z</time></trkpt>
<trkpt lat="42.552659959" lon="12.648621965"><ele>134</ele><time>2020-03-01T09:31:40Z</time></trkpt>
<trkpt lat="42.552573038" lon="12.648695977"><ele>135</ele><time>2020-03-01T09:31:43Z</time></trkpt>
<trkpt lat="42.552545965" lon="12.648720033"><ele>136</ele><time>2020-03-01T09:31:44Z</time></trkpt>
<trkpt lat="42.552518975" lon="12.648743"><ele>136</ele><time>2020-03-01T09:31:45Z</time></trkpt>
<trkpt lat="42.552491985" lon="12.648764038"><ele>136</ele><time>2020-03-01T09:31:46Z</time></trkpt>
<trkpt lat="42.552466001" lon="12.648781976"><ele>137</ele><time>2020-03-01T09:31:47Z</time></trkpt>
<trkpt lat="42.552439012" lon="12.648796979"><ele>137</ele><time>2020-03-01T09:31:48Z</time></trkpt>
<trkpt lat="42.552412022" lon="12.648808965"><ele>137</ele><time>2020-03-01T09:31:49Z</time></trkpt>
<trkpt lat="42.552386038" lon="12.648818018"><ele>138</ele><time>2020-03-01T09:31:50Z</time></trkpt>
<trkpt lat="42.552360976" lon="12.648824975"><ele>138</ele><time>2020-03-01T09:31:51Z</time></trkpt>
<trkpt lat="42.55233801" lon="12.648834027"><ele>138</ele><time>2020-03-01T09:31:52Z</time></trkpt>
<trkpt lat="42.552317977" lon="12.648844002"><ele>139</ele><time>2020-03-01T09:31:53Z</time></trkpt>
<trkpt lat="42.552302973" lon="12.648858"><ele>139</ele><time>2020-03-01T09:31:54Z</time></trkpt>
<trkpt lat="42.552291993" lon="12.648876021"><ele>139</ele><time>2020-03-01T09:31:55Z</time></trkpt>
<trkpt lat="42.552285036" lon="12.648898987"><ele>139</ele><time>2020-03-01T09:31:56Z</time></trkpt>
<trkpt lat="42.552282019" lon="12.648923965"><ele>140</ele><time>2020-03-01T09:31:57Z</time></trkpt>
<trkpt lat="42.552282019" lon="12.648951961"><ele>140</ele><time>2020-03-01T09:31:58Z</time></trkpt>
<trkpt lat="42.552285036" lon="12.648980962"><ele>140</ele><time>2020-03-01T09:31:59Z</time></trkpt>
<trkpt lat="42.552288976" lon="12.649009963"><ele>140</ele><time>2020-03-01T09:32:00Z</time></trkpt>
<trkpt lat="42.552295011" lon="12.649038965"><ele>140</ele><time>2020-03-01T09:32:01Z</time></trkpt>
<trkpt lat="42.55230004" lon="12.64906696"><ele>140</ele><time>2020-03-01T09:32:02Z</time></trkpt>
<trkpt lat="42.552303979" lon="12.649117"><ele>141</ele><time>2020-03-01T09:32:04Z</time></trkpt>
<trkpt lat="42.55230004" lon="12.649137033"><ele>141</ele><time>2020-03-01T09:32:05Z</time></trkpt>
<trkpt lat="42.552290987" lon="12.649150025"><ele>141</ele><time>2020-03-01T09:32:06Z</time></trkpt>
<trkpt lat="42.552277995" lon="12.649156982"><ele>141</ele><time>2020-03-01T09:32:07Z</time></trkpt>
<trkpt lat="42.552266009" lon="12.64915497"><ele>141</ele><time>2020-03-01T09:32:08Z</time></trkpt>
<trkpt lat="42.552247988" lon="12.649098979"><ele>141</ele><time>2020-03-01T09:32:11Z</time></trkpt>
<trkpt lat="42.552252011" lon="12.649067966"><ele>141</ele><time>2020-03-01T09:32:12Z</time></trkpt>
<trkpt lat="42.552257963" lon="12.64903402"><ele>141</ele><time>2020-03-01T09:32:13Z</time></trkpt>
<trkpt lat="42.552262992" lon="12.648999989"><ele>140</ele><time>2020-03-01T09:32:14Z</time></trkpt>
<trkpt lat="42.552266009" lon="12.648965959"><ele>140</ele><time>2020-03-01T09:32:15Z</time></trkpt>
<trkpt lat="42.552263997" lon="12.648937041"><ele>140</ele><time>2020-03-01T09:32:16Z</time></trkpt>
<trkpt lat="42.552256035" lon="12.648913991"><ele>140</ele><time>2020-03-01T09:32:17Z</time></trkpt>
<trkpt lat="42.552241031" lon="12.648900999"><ele>140</ele><time>2020-03-01T09:32:18Z</time></trkpt>
<trkpt lat="42.552224016" lon="12.648894964"><ele>140</ele><time>2020-03-01T09:32:19Z</time></trkpt>
<trkpt lat="42.552207001" lon="12.648894042"><ele>140</ele><time>2020-03-01T09:32:20Z</time></trkpt>
<trkpt lat="42.552193003" lon="12.648896975"><ele>140</ele><time>2020-03-01T09:32:21Z</time></trkpt>
<trkpt lat="42.552182022" lon="12.64890301"><ele>140</ele><time>2020-03-01T09:32:22Z</time></trkpt>
<trkpt lat="42.552173976" lon="12.648913991"><ele>141</ele><time>2020-03-01T09:32:23Z</time></trkpt>
<trkpt lat="42.552166013" lon="12.648931006"><ele>141</ele><time>2020-03-01T09:32:24Z</time></trkpt>
<trkpt lat="42.552159978" lon="12.648951961"><ele>141</ele><time>2020-03-01T09:32:25Z</time></trkpt>
<trkpt lat="42.552152015" lon="12.648977023"><ele>141</ele><time>2020-03-01T09:32:26Z</time></trkpt>
<trkpt lat="42.552143969" lon="12.649006024"><ele>141</ele><time>2020-03-01T09:32:27Z</time></trkpt>
<trkpt lat="42.552133994" lon="12.649036031"><ele>142</ele><time>2020-03-01T09:32:28Z</time></trkpt>
<trkpt lat="42.552121002" lon="12.649067966"><ele>142</ele><time>2020-03-01T09:32:29Z</time></trkpt>
<trkpt lat="42.552085966" lon="12.649135021"><ele>143</ele><time>2020-03-01T09:32:31Z</time></trkpt>
<trkpt lat="42.552066017" lon="12.649167962"><ele>143</ele><time>2020-03-01T09:32:32Z</time></trkpt>
<trkpt lat="42.552043973" lon="12.649201993"><ele>143</ele><time>2020-03-01T09:32:33Z</time></trkpt>
<trkpt lat="42.552022012" lon="12.649235018"><ele>143</ele><time>2020-03-01T09:32:34Z</time></trkpt>
<trkpt lat="42.551998962" lon="12.649268964"><ele>144</ele><time>2020-03-01T09:32:35Z</time></trkpt>
<trkpt lat="42.551978007" lon="12.649300983"><ele>144</ele><time>2020-03-01T09:32:36Z</time></trkpt>
<trkpt lat="42.551957974" lon="12.649334008"><ele>144</ele><time>2020-03-01T09:32:37Z</time></trkpt>
<trkpt lat="42.551938025" lon="12.649365021"><ele>144</ele><time>2020-03-01T09:32:38Z</time></trkpt>
<trkpt lat="42.551920004" lon="12.649396034"><ele>144</ele><time>2020-03-01T09:32:39Z</time></trkpt>
<trkpt lat="42.551901983" lon="12.649426963"><ele>144</ele><time>2020-03-01T09:32:40Z</time></trkpt>
<trkpt lat="42.551885974" lon="12.649457976"><ele>144</ele><time>2020-03-01T09:32:41Z</time></trkpt>
<trkpt lat="42.551855966" lon="12.649516985"><ele>144</ele><time>2020-03-01T09:32:43Z</time></trkpt>
<trkpt lat="42.551841969" lon="12.649545986"><ele>144</ele><time>2020-03-01T09:32:44Z</time></trkpt>
<trkpt lat="42.551828977" lon="12.649574988"><ele>144</ele><time>2020-03-01T09:32:45Z</time></trkpt>
<trkpt lat="42.551816991" lon="12.649603989"><ele>144</ele><time>2020-03-01T09:32:46Z</time></trkpt>
<trkpt lat="42.55180601" lon="12.649631985"><ele>145</ele><time>2020-03-01T09:32:47Z</time></trkpt>
<trkpt lat="42.551796036" lon="12.64965998"><ele>145</ele><time>2020-03-01T09:32:48Z</time></trkpt>
<trkpt lat="42.551786983" lon="12.649687976"><ele>145</ele><time>2020-03-01T09:32:49Z</time></trkpt>
<trkpt lat="42.551779021" lon="12.649714965"><ele>145</ele><time>2020-03-01T09:32:50Z</time></trkpt>
<trkpt lat="42.55177198" lon="12.649742039"><ele>145</ele><time>2020-03-01T09:32:51Z</time></trkpt>
<trkpt lat="42.55175597" lon="12.649819991"><ele>145</ele><time>2020-03-01T09:32:54Z</time></trkpt>
<trkpt lat="42.55174499" lon="12.649894003"><ele>144</ele><time>2020-03-01T09:32:57Z</time></trkpt>
<trkpt lat="42.551739961" lon="12.649915963"><ele>144</ele><time>2020-03-01T09:32:58Z</time></trkpt>
<trkpt lat="42.55173401" lon="12.649938008"><ele>144</ele><time>2020-03-01T09:32:59Z</time></trkpt>
<trkpt lat="42.551725963" lon="12.649958041"><ele>145</ele><time>2020-03-01T09:33:00Z</time></trkpt>
<trkpt lat="42.551715989" lon="12.649976984"><ele>145</ele><time>2020-03-01T09:33:01Z</time></trkpt>
<trkpt lat="42.551704003" lon="12.649996011"><ele>145</ele><time>2020-03-01T09:33:02Z</time></trkpt>
<trkpt lat="42.551691011" lon="12.650014032"><ele>145</ele><time>2020-03-01T09:33:03Z</time></trkpt>
<trkpt lat="42.551675001" lon="12.650032975"><ele>145</ele><time>2020-03-01T09:33:04Z</time></trkpt>
<trkpt lat="42.55165698" lon="12.650052002"><ele>145</ele><time>2020-03-01T09:33:05Z</time></trkpt>
<trkpt lat="42.551637031" lon="12.650072034"><ele>145</ele><time>2020-03-01T09:33:06Z</time></trkpt>
<trkpt lat="42.551614987" lon="12.650092989"><ele>145</ele><time>2020-03-01T09:33:07Z</time></trkpt>
<trkpt lat="42.55159202" lon="12.650114028"><ele>145</ele><time>2020-03-01T09:33:08Z</time></trkpt>
<trkpt lat="42.55156897" lon="12.650135988"><ele>145</ele><time>2020-03-01T09:33:09Z</time></trkpt>
<trkpt lat="42.551546004" lon="12.650158033"><ele>145</ele><time>2020-03-01T09:33:10Z</time></trkpt>
<trkpt lat="42.551480038" lon="12.650222993"><ele>145</ele><time>2020-03-01T09:33:13Z</time></trkpt>
<trkpt lat="42.551459" lon="12.650245037"><ele>145</ele><time>2020-03-01T09:33:14Z</time></trkpt>
<trkpt lat="42.551438967" lon="12.650265992"><ele>145</ele><time>2020-03-01T09:33:15Z</time></trkpt>
<trkpt lat="42.551418012" lon="12.650288036"><ele>145</ele><time>2020-03-01T09:33:16Z</time></trkpt>
<trkpt lat="42.551395968" lon="12.650308991"><ele>145</ele><time>2020-03-01T09:33:17Z</time></trkpt>
<trkpt lat="42.551374007" lon="12.650331035"><ele>145</ele><time>2020-03-01T09:33:18Z</time></trkpt>
<trkpt lat="42.551351041" lon="12.650352996"><ele>145</ele><time>2020-03-01T09:33:19Z</time></trkpt>
<trkpt lat="42.551326985" lon="12.65037504"><ele>145</ele><time>2020-03-01T09:33:20Z</time></trkpt>
<trkpt lat="42.551303012" lon="12.650397001"><ele>145</ele><time>2020-03-01T09:33:21Z</time></trkpt>
<trkpt lat="42.551278034" lon="12.650419967"><ele>145</ele><time>2020-03-01T09:33:22Z</time></trkpt>
<trkpt lat="42.551252972" lon="12.650443017"><ele>145</ele><time>2020-03-01T09:33:23Z</time></trkpt>
<trkpt lat="42.551227994" lon="12.650465984"><ele>145</ele><time>2020-03-01T09:33:24Z</time></trkpt>
<trkpt lat="42.55120201" lon="12.65049004"><ele>145</ele><time>2020-03-01T09:33:25Z</time></trkpt>
<trkpt lat="42.551177032" lon="12.650513006"><ele>145</ele><time>2020-03-01T09:33:26Z</time></trkpt>
<trkpt lat="42.55115197" lon="12.650536979"><ele>145</ele><time>2020-03-01T09:33:27Z</time></trkpt>
<trkpt lat="42.551126992" lon="12.650561035"><ele>146</ele><time>2020-03-01T09:33:28Z</time></trkpt>
<trkpt lat="42.551102014" lon="12.650584001"><ele>146</ele><time>2020-03-01T09:33:29Z</time></trkpt>
<trkpt lat="42.551077036" lon="12.650606968"><ele>146</ele><time>2020-03-01T09:33:30Z</time></trkpt>
<trkpt lat="42.55105298" lon="12.650629012"><ele>146</ele><time>2020-03-01T09:33:31Z</time></trkpt>
<trkpt lat="42.551029008" lon="12.650650973"><ele>146</ele><time>2020-03-01T09:33:32Z</time></trkpt>
<trkpt lat="42.551006041" lon="12.650672011"><ele>146</ele><time>2020-03-01T09:33:33Z</time></trkpt>
<trkpt lat="42.550982991" lon="12.65069196"><ele>146</ele><time>2020-03-01T09:33:34Z</time></trkpt>
<trkpt lat="42.550961031" lon="12.650710987"><ele>146</ele><time>2020-03-01T09:33:35Z</time></trkpt>
<trkpt lat="42.550939992" lon="12.650729008"><ele>146</ele><time>2020-03-01T09:33:36Z</time></trkpt>
<trkpt lat="42.550919037" lon="12.650746023"><ele>147</ele><time>2020-03-01T09:33:37Z</time></trkpt>
<trkpt lat="42.550896993" lon="12.650762033"><ele>147</ele><time>2020-03-01T09:33:38Z</time></trkpt>
<trkpt lat="42.550876038" lon="12.650777958"><ele>147</ele><time>2020-03-01T09:33:39Z</time></trkpt>
<trkpt lat="42.550853994" lon="12.650792962"><ele>147</ele><time>2020-03-01T09:33:40Z</time></trkpt>
<trkpt lat="42.550832033" lon="12.65080696"><ele>147</ele><time>2020-03-01T09:33:41Z</time></trkpt>
<trkpt lat="42.550808983" lon="12.650820035"><ele>147</ele><time>2020-03-01T09:33:42Z</time></trkpt>
<trkpt lat="42.550785011" lon="12.650833027"><ele>147</ele><time>2020-03-01T09:33:43Z</time></trkpt>
<trkpt lat="42.550760033" lon="12.650846019"><ele>148</ele><time>2020-03-01T09:33:44Z</time></trkpt>
<trkpt lat="42.550732959" lon="12.650857"><ele>148</ele><time>2020-03-01T09:33:45Z</time></trkpt>
<trkpt lat="42.550704964" lon="12.650868986"><ele>148</ele><time>2020-03-01T09:33:46Z</time></trkpt>
<trkpt lat="42.550675962" lon="12.650879966"><ele>148</ele><time>2020-03-01T09:33:47Z</time></trkpt>
<trkpt lat="42.550646039" lon="12.650890024"><ele>148</ele><time>2020-03-01T09:33:48Z</time></trkpt>
<trkpt lat="42.550618965" lon="12.650897987"><ele>149</ele><time>2020-03-01T09:33:49Z</time></trkpt>
<trkpt lat="42.550593987" lon="12.650905028"><ele>149</ele><time>2020-03-01T09:33:50Z</time></trkpt>
<trkpt lat="42.550572027" lon="12.650908967"><ele>149</ele><time>2020-03-01T09:33:51Z</time></trkpt>
<trkpt lat="42.550550988" lon="12.650912991"><ele>149</ele><time>2020-03-01T09:33:52Z</time></trkpt>
<trkpt lat="42.55048804" lon="12.650936041"><ele>150</ele><time>2020-03-01T09:33:55Z</time></trkpt>
<trkpt lat="42.550463984" lon="12.650953978"><ele>150</ele><time>2020-03-01T09:33:56Z</time></trkpt>
<trkpt lat="42.550436994" lon="12.650974011"><ele>150</ele><time>2020-03-01T09:33:57Z</time></trkpt>
<trkpt lat="42.550410004" lon="12.650991026"><ele>150</ele><time>2020-03-01T09:33:58Z</time></trkpt>
<trkpt lat="42.550355019" lon="12.651004018"><ele>151</ele><time>2020-03-01T09:34:00Z</time></trkpt>
<trkpt lat="42.550329035" lon="12.651001001"><ele>151</ele><time>2020-03-01T09:34:01Z</time></trkpt>
<trkpt lat="42.550303973" lon="12.650992032"><ele>151</ele><time>2020-03-01T09:34:02Z</time></trkpt>
<trkpt lat="42.550282013" lon="12.65097904"><ele>151</ele><time>2020-03-01T09:34:03Z</time></trkpt>
<trkpt lat="42.550260974" lon="12.650962025"><ele>151</ele><time>2020-03-01T09:34:04Z</time></trkpt>
<trkpt lat="42.550243037" lon="12.650940986"><ele>151</ele><time>2020-03-01T09:34:05Z</time></trkpt>
<trkpt lat="42.550227027" lon="12.65091802"><ele>151</ele><time>2020-03-01T09:34:06Z</time></trkpt>
<trkpt lat="42.55021303" lon="12.650893042"><ele>152</ele><time>2020-03-01T09:34:07Z</time></trkpt>
<trkpt lat="42.550199032" lon="12.650865968"><ele>152</ele><time>2020-03-01T09:34:08Z</time></trkpt>
<trkpt lat="42.550184028" lon="12.650838979"><ele>152</ele><time>2020-03-01T09:34:09Z</time></trkpt>
<trkpt lat="42.550169025" lon="12.650810983"><ele>152</ele><time>2020-03-01T09:34:10Z</time></trkpt>
<trkpt lat="42.550152009" lon="12.650782987"><ele>152</ele><time>2020-03-01T09:34:11Z</time></trkpt>
<trkpt lat="42.550133988" lon="12.650754992"><ele>152</ele><time>2020-03-01T09:34:12Z</time></trkpt>
<trkpt lat="42.550115967" lon="12.650725991"><ele>152</ele><time>2020-03-01T09:34:13Z</time></trkpt>
<trkpt lat="42.550097024" lon="12.650696989"><ele>152</ele><time>2020-03-01T09:34:14Z</time></trkpt>
<trkpt lat="42.550079003" lon="12.650666982"><ele>153</ele><time>2020-03-01T09:34:15Z</time></trkpt>
<trkpt lat="42.550060982" lon="12.650636975"><ele>153</ele><time>2020-03-01T09:34:16Z</time></trkpt>
<trkpt lat="42.550045978" lon="12.65060504"><ele>153</ele><time>2020-03-01T09:34:17Z</time></trkpt>
<trkpt lat="42.55003198" lon="12.650571009"><ele>153</ele><time>2020-03-01T09:34:18Z</time></trkpt>
<trkpt lat="42.550019994" lon="12.650536979"><ele>153</ele><time>2020-03-01T09:34:19Z</time></trkpt>
<trkpt lat="42.550009014" lon="12.65050102"><ele>153</ele><time>2020-03-01T09:34:20Z</time></trkpt>
<trkpt lat="42.549999962" lon="12.650462966"><ele>153</ele><time>2020-03-01T09:34:21Z</time></trkpt>
<trkpt lat="42.549993005" lon="12.650424996"><ele>153</ele><time>2020-03-01T09:34:22Z</time></trkpt>
<trkpt lat="42.549987976" lon="12.650385015"><ele>153</ele><time>2020-03-01T09:34:23Z</time></trkpt>
<trkpt lat="42.549984036" lon="12.650344027"><ele>153</ele><time>2020-03-01T09:34:24Z</time></trkpt>
<trkpt lat="42.549981019" lon="12.65030304"><ele>153</ele><time>2020-03-01T09:34:25Z</time></trkpt>
<trkpt lat="42.549979007" lon="12.650260963"><ele>153</ele><time>2020-03-01T09:34:26Z</time></trkpt>
<trkpt lat="42.549975989" lon="12.650219975"><ele>153</ele><time>2020-03-01T09:34:27Z</time></trkpt>
<trkpt lat="42.549971966" lon="12.650178988"><ele>153</ele><time>2020-03-01T09:34:28Z</time></trkpt>
<trkpt lat="42.549967021" lon="12.650139006"><ele>153</ele><time>2020-03-01T09:34:29Z</time></trkpt>
<trkpt lat="42.549960986" lon="12.650099024"><ele>153</ele><time>2020-03-01T09:34:30Z</time></trkpt>
<trkpt lat="42.549953023" lon="12.650059965"><ele>153</ele><time>2020-03-01T09:34:31Z</time></trkpt>
<trkpt lat="42.549944976" lon="12.650020989"><ele>153</ele><time>2020-03-01T09:34:32Z</time></trkpt>
<trkpt lat="42.549936008" lon="12.649982013"><ele>153</ele><time>2020-03-01T09:34:33Z</time></trkpt>
<trkpt lat="42.549926033" lon="12.649943037"><ele>153</ele><time>2020-03-01T09:34:34Z</time></trkpt>
<trkpt lat="42.549914969" lon="12.649902971"><ele>153</ele><time>2020-03-01T09:34:35Z</time></trkpt>
<trkpt lat="42.549902983" lon="12.64986299"><ele>153</ele><time>2020-03-01T09:34:36Z</time></trkpt>
<trkpt lat="42.549889991" lon="12.649823008"><ele>153</ele><time>2020-03-01T09:34:37Z</time></trkpt>
<trkpt lat="42.549874987" lon="12.649784032"><ele>153</ele><time>2020-03-01T09:34:38Z</time></trkpt>
<trkpt lat="42.549813967" lon="12.649680013"><ele>153</ele><time>2020-03-01T09:34:41Z</time></trkpt>
<trkpt lat="42.549788989" lon="12.649650006"><ele>153</ele><time>2020-03-01T09:34:42Z</time></trkpt>
<trkpt lat="42.549760994" lon="12.64962201"><ele>153</ele><time>2020-03-01T09:34:43Z</time></trkpt>
<trkpt lat="42.549732998" lon="12.64959502"><ele>153</ele><time>2020-03-01T09:34:44Z</time></trkpt>
<trkpt lat="42.549705002" lon="12.649569036"><ele>153</ele><time>2020-03-01T09:34:45Z</time></trkpt>
<trkpt lat="42.549678013" lon="12.649543975"><ele>152</ele><time>2020-03-01T09:34:46Z</time></trkpt>
<trkpt lat="42.549652029" lon="12.649518996"><ele>152</ele><time>2020-03-01T09:34:47Z</time></trkpt>
<trkpt lat="42.549626967" lon="12.649494018"><ele>152</ele><time>2020-03-01T09:34:48Z</time></trkpt>
<trkpt lat="42.549604001" lon="12.649467029"><ele>152</ele><time>2020-03-01T09:34:49Z</time></trkpt>
<trkpt lat="42.549581034" lon="12.649439033"><ele>152</ele><time>2020-03-01T09:34:50Z</time></trkpt>
<trkpt lat="42.549559996" lon="12.649410032"><ele>152</ele><time>2020-03-01T09:34:51Z</time></trkpt>
<trkpt lat="42.549539963" lon="12.649378013"><ele>152</ele><time>2020-03-01T09:34:52Z</time></trkpt>
<trkpt lat="42.549520014" lon="12.649342977"><ele>152</ele><time>2020-03-01T09:34:53Z</time></trkpt>
<trkpt lat="42.549500987" lon="12.649307018"><ele>152</ele><time>2020-03-01T09:34:54Z</time></trkpt>
<trkpt lat="42.549482966" lon="12.649270976"><ele>152</ele><time>2020-03-01T09:34:55Z</time></trkpt>
<trkpt lat="42.54946704" lon="12.649236023"><ele>152</ele><time>2020-03-01T09:34:56Z</time></trkpt>
<trkpt lat="42.549452037" lon="12.649204005"><ele>151</ele><time>2020-03-01T09:34:57Z</time></trkpt>
<trkpt lat="42.549438039" lon="12.649177015"><ele>151</ele><time>2020-03-01T09:34:58Z</time></trkpt>
<trkpt lat="42.549425969" lon="12.649155976"><ele>151</ele><time>2020-03-01T09:34:59Z</time></trkpt>
<trkpt lat="42.549413983" lon="12.649141978"><ele>151</ele><time>2020-03-01T09:35:00Z</time></trkpt>
<trkpt lat="42.549399985" lon="12.649137033"><ele>151</ele><time>2020-03-01T09:35:01Z</time></trkpt>
<trkpt lat="42.549381964" lon="12.649140973"><ele>151</ele><time>2020-03-01T09:35:02Z</time></trkpt>
<trkpt lat="42.549362015" lon="12.649152959"><ele>151</ele><time>2020-03-01T09:35:03Z</time></trkpt>
<trkpt lat="42.549323039" lon="12.649193024"><ele>151</ele><time>2020-03-01T09:35:05Z</time></trkpt>
<trkpt lat="42.549302001" lon="12.649215991"><ele>151</ele><time>2020-03-01T09:35:06Z</time></trkpt>
<trkpt lat="42.549278028" lon="12.649236023"><ele>151</ele><time>2020-03-01T09:35:07Z</time></trkpt>
<trkpt lat="42.549246009" lon="12.649250021"><ele>151</ele><time>2020-03-01T09:35:08Z</time></trkpt>
<trkpt lat="42.549210973" lon="12.649254967"><ele>151</ele><time>2020-03-01T09:35:09Z</time></trkpt>
<trkpt lat="42.549173003" lon="12.649253039"><ele>151</ele><time>2020-03-01T09:35:10Z</time></trkpt>
<trkpt lat="42.549136039" lon="12.649243986"><ele>151</ele><time>2020-03-01T09:35:11Z</time></trkpt>
<trkpt lat="42.549101003" lon="12.649230994"><ele>151</ele><time>2020-03-01T09:35:12Z</time></trkpt>
<trkpt lat="42.549066972" lon="12.649216997"><ele>151</ele><time>2020-03-01T09:35:13Z</time></trkpt>
<trkpt lat="42.549036965" lon="12.649206016"><ele>151</ele><time>2020-03-01T09:35:14Z</time></trkpt>
<trkpt lat="42.549011987" lon="12.649198975"><ele>152</ele><time>2020-03-01T09:35:15Z</time></trkpt>
<trkpt lat="42.548991032" lon="12.649198975"><ele>152</ele><time>2020-03-01T09:35:16Z</time></trkpt>
<trkpt lat="42.548961025" lon="12.649214985"><ele>152</ele><time>2020-03-01T09:35:18Z</time></trkpt>
<trkpt lat="42.548948033" lon="12.649227977"><ele>152</ele><time>2020-03-01T09:35:19Z</time></trkpt>
<trkpt lat="42.548933029" lon="12.649240969"><ele>152</ele><time>2020-03-01T09:35:20Z</time></trkpt>
<trkpt lat="42.548916014" lon="12.649252033"><ele>152</ele><time>2020-03-01T09:35:21Z</time></trkpt>
<trkpt lat="42.548894975" lon="12.649261001"><ele>152</ele><time>2020-03-01T09:35:22Z</time></trkpt>
<trkpt lat="42.548871003" lon="12.649265025"><ele>152</ele><time>2020-03-01T09:35:23Z</time></trkpt>
<trkpt lat="42.548843008" lon="12.649266031"><ele>152</ele><time>2020-03-01T09:35:24Z</time></trkpt>
<trkpt lat="42.548814006" lon="12.649262007"><ele>152</ele><time>2020-03-01T09:35:25Z</time></trkpt>
<trkpt lat="42.548785005" lon="12.649253039"><ele>152</ele><time>2020-03-01T09:35:26Z</time></trkpt>
<trkpt lat="42.548754998" lon="12.649238035"><ele>152</ele><time>2020-03-01T09:35:27Z</time></trkpt>
<trkpt lat="42.548670005" lon="12.649161005"><ele>152</ele><time>2020-03-01T09:35:30Z</time></trkpt>
<trkpt lat="42.548644021" lon="12.649127981"><ele>152</ele><time>2020-03-01T09:35:31Z</time></trkpt>
<trkpt lat="42.548619965" lon="12.649092022"><ele>152</ele><time>2020-03-01T09:35:32Z</time></trkpt>
<trkpt lat="42.548596999" lon="12.649054974"><ele>152</ele><time>2020-03-01T09:35:33Z</time></trkpt>
<trkpt lat="42.54857596" lon="12.64901801"><ele>152</ele><time>2020-03-01T09:35:34Z</time></trkpt>
<trkpt lat="42.548557017" lon="12.648980962"><ele>152</ele><time>2020-03-01T09:35:35Z</time></trkpt>
<trkpt lat="42.548538996" lon="12.648942992"><ele>152</ele><time>2020-03-01T09:35:36Z</time></trkpt>
<trkpt lat="42.548521981" lon="12.648905022"><ele>152</ele><time>2020-03-01T09:35:37Z</time></trkpt>
<trkpt lat="42.548505971" lon="12.648865962"><ele>152</ele><time>2020-03-01T09:35:38Z</time></trkpt>
<trkpt lat="42.548489962" lon="12.648826987"><ele>151</ele><time>2020-03-01T09:35:39Z</time></trkpt>
<trkpt lat="42.548474958" lon="12.648787005"><ele>151</ele><time>2020-03-01T09:35:40Z</time></trkpt>
<trkpt lat="42.548460038" lon="12.648746017"><ele>151</ele><time>2020-03-01T09:35:41Z</time></trkpt>
<trkpt lat="42.548446041" lon="12.648706036"><ele>151</ele><time>2020-03-01T09:35:42Z</time></trkpt>
<trkpt lat="42.548431959" lon="12.648666976"><ele>151</ele><time>2020-03-01T09:35:43Z</time></trkpt>
<trkpt lat="42.548419973" lon="12.648628"><ele>151</ele><time>2020-03-01T09:35:44Z</time></trkpt>
<trkpt lat="42.548407987" lon="12.648591036"><ele>151</ele><time>2020-03-01T09:35:45Z</time></trkpt>
<trkpt lat="42.548398012" lon="12.648556"><ele>151</ele><time>2020-03-01T09:35:46Z</time></trkpt>
<trkpt lat="42.548388038" lon="12.648521969"><ele>151</ele><time>2020-03-01T09:35:47Z</time></trkpt>
<trkpt lat="42.54837798" lon="12.648489028"><ele>151</ele><time>2020-03-01T09:35:48Z</time></trkpt>
<trkpt lat="42.548366999" lon="12.648457009"><ele>150</ele><time>2020-03-01T09:35:49Z</time></trkpt>
<trkpt lat="42.548354007" lon="12.64842499"><ele>150</ele><time>2020-03-01T09:35:50Z</time></trkpt>
<trkpt lat="42.54834001" lon="12.648392972"><ele>150</ele><time>2020-03-01T09:35:51Z</time></trkpt>
<trkpt lat="42.548321988" lon="12.648361037"><ele>150</ele><time>2020-03-01T09:35:52Z</time></trkpt>
<trkpt lat="42.54830204" lon="12.648327006"><ele>150</ele><time>2020-03-01T09:35:53Z</time></trkpt>
<trkpt lat="42.548279995" lon="12.648293981"><ele>150</ele><time>2020-03-01T09:35:54Z</time></trkpt>
<trkpt lat="42.548258035" lon="12.648258023"><ele>150</ele><time>2020-03-01T09:35:55Z</time></trkpt>
<trkpt lat="42.548233978" lon="12.648221981"><ele>150</ele><time>2020-03-01T09:35:56Z</time></trkpt>
<trkpt lat="42.548166001" lon="12.648105975"><ele>151</ele><time>2020-03-01T09:35:59Z</time></trkpt>
<trkpt lat="42.548146974" lon="12.648070017"><ele>151</ele><time>2020-03-01T09:36:00Z</time></trkpt>
<trkpt lat="42.548131971" lon="12.648039004"><ele>151</ele><time>2020-03-01T09:36:01Z</time></trkpt>
<trkpt lat="42.548116967" lon="12.648014026"><ele>151</ele><time>2020-03-01T09:36:02Z</time></trkpt>
<trkpt lat="42.548101963" lon="12.647993993"><ele>151</ele><time>2020-03-01T09:36:03Z</time></trkpt>
<trkpt lat="42.54808302" lon="12.647977984"><ele>151</ele><time>2020-03-01T09:36:04Z</time></trkpt>
<trkpt lat="42.54805997" lon="12.647961974"><ele>151</ele><time>2020-03-01T09:36:05Z</time></trkpt>
<trkpt lat="42.548033986" lon="12.647942025"><ele>151</ele><time>2020-03-01T09:36:06Z</time></trkpt>
<trkpt lat="42.548005991" lon="12.64791403"><ele>151</ele><time>2020-03-01T09:36:07Z</time></trkpt>
<trkpt lat="42.547976989" lon="12.647879999"><ele>151</ele><time>2020-03-01T09:36:08Z</time></trkpt>
<trkpt lat="42.547951005" lon="12.647844963"><ele>151</ele><time>2020-03-01T09:36:09Z</time></trkpt>
<trkpt lat="42.547905995" lon="12.647744967"><ele>151</ele><time>2020-03-01T09:36:12Z</time></trkpt>
<trkpt lat="42.547899038" lon="12.647712026"><ele>151</ele><time>2020-03-01T09:36:13Z</time></trkpt>
<trkpt lat="42.547894008" lon="12.647677995"><ele>151</ele><time>2020-03-01T09:36:14Z</time></trkpt>
<trkpt lat="42.547891997" lon="12.647642959"><ele>151</ele><time>2020-03-01T09:36:15Z</time></trkpt>
<trkpt lat="42.547889985" lon="12.647604989"><ele>151</ele><time>2020-03-01T09:36:16Z</time></trkpt>
<trkpt lat="42.547888979" lon="12.647566013"><ele>151</ele><time>2020-03-01T09:36:17Z</time></trkpt>
<trkpt lat="42.547885962" lon="12.647526031"><ele>151</ele><time>2020-03-01T09:36:18Z</time></trkpt>
<trkpt lat="42.547881017" lon="12.647487978"><ele>151</ele><time>2020-03-01T09:36:19Z</time></trkpt>
<trkpt lat="42.54787297" lon="12.647452019"><ele>151</ele><time>2020-03-01T09:36:20Z</time></trkpt>
<trkpt lat="42.547859978" lon="12.647418994"><ele>151</ele><time>2020-03-01T09:36:21Z</time></trkpt>
<trkpt lat="42.547842041" lon="12.647389993"><ele>151</ele><time>2020-03-01T09:36:22Z</time></trkpt>
<trkpt lat="42.54781899" lon="12.647365015"><ele>151</ele><time>2020-03-01T09:36:23Z</time></trkpt>
<trkpt lat="42.547793007" lon="12.647342971"><ele>151</ele><time>2020-03-01T09:36:24Z</time></trkpt>
<trkpt lat="42.547764005" lon="12.647324027"><ele>151</ele><time>2020-03-01T09:36:25Z</time></trkpt>
<trkpt lat="42.547731986" lon="12.647306006"><ele>151</ele><time>2020-03-01T09:36:26Z</time></trkpt>
<trkpt lat="42.547698962" lon="12.647289997"><ele>151</ele><time>2020-03-01T09:36:27Z</time></trkpt>
<trkpt lat="42.547665015" lon="12.647274993"><ele>151</ele><time>2020-03-01T09:36:28Z</time></trkpt>
<trkpt lat="42.547564013" lon="12.647225037"><ele>151</ele><time>2020-03-01T09:36:31Z</time></trkpt>
<trkpt lat="42.547533" lon="12.647203999"><ele>151</ele><time>2020-03-01T09:36:32Z</time></trkpt>
<trkpt lat="42.547503999" lon="12.647179021"><ele>151</ele><time>2020-03-01T09:36:33Z</time></trkpt>
<trkpt lat="42.547477009" lon="12.647150019"><ele>150</ele><time>2020-03-01T09:36:34Z</time></trkpt>
<trkpt lat="42.547453037" lon="12.647116994"><ele>150</ele><time>2020-03-01T09:36:35Z</time></trkpt>
<trkpt lat="42.547429986" lon="12.647081958"><ele>150</ele><time>2020-03-01T09:36:36Z</time></trkpt>
<trkpt lat="42.547409032" lon="12.647042982"><ele>150</ele><time>2020-03-01T09:36:37Z</time></trkpt>
<trkpt lat="42.547390005" lon="12.647003001"><ele>150</ele><time>2020-03-01T09:36:38Z</time></trkpt>
<trkpt lat="42.547370978" lon="12.646962013"><ele>150</ele><time>2020-03-01T09:36:39Z</time></trkpt>
<trkpt lat="42.547353962" lon="12.64692002"><ele>150</ele><time>2020-03-01T09:36:40Z</time></trkpt>
<trkpt lat="42.547337031" lon="12.646878026"><ele>150</ele><time>2020-03-01T09:36:41Z</time></trkpt>
<trkpt lat="42.547322027" lon="12.646835027"><ele>150</ele><time>2020-03-01T09:36:42Z</time></trkpt>
<trkpt lat="42.54730803" lon="12.646792028"><ele>150</ele><time>2020-03-01T09:36:43Z</time></trkpt>
<trkpt lat="42.54729596" lon="12.646748023"><ele>150</ele><time>2020-03-01T09:36:44Z</time></trkpt>
<trkpt lat="42.547284979" lon="12.646704018"><ele>150</ele><time>2020-03-01T09:36:45Z</time></trkpt>
<trkpt lat="42.547277017" lon="12.646659007"><ele>150</ele><time>2020-03-01T09:36:46Z</time></trkpt>
<trkpt lat="42.547269976" lon="12.646613996"><ele>149</ele><time>2020-03-01T09:36:47Z</time></trkpt>
<trkpt lat="42.547264025" lon="12.646568986"><ele>149</ele><time>2020-03-01T09:36:48Z</time></trkpt>
<trkpt lat="42.547260001" lon="12.646523975"><ele>149</ele><time>2020-03-01T09:36:49Z</time></trkpt>
<trkpt lat="42.547256984" lon="12.646477958"><ele>149</ele><time>2020-03-01T09:36:50Z</time></trkpt>
<trkpt lat="42.547254972" lon="12.646432025"><ele>149</ele><time>2020-03-01T09:36:51Z</time></trkpt>
<trkpt lat="42.547254972" lon="12.646386009"><ele>149</ele><time>2020-03-01T09:36:52Z</time></trkpt>
<trkpt lat="42.547254972" lon="12.646338986"><ele>148</ele><time>2020-03-01T09:36:53Z</time></trkpt>
<trkpt lat="42.547256984" lon="12.646291964"><ele>148</ele><time>2020-03-01T09:36:54Z</time></trkpt>
<trkpt lat="42.547258995" lon="12.646245025"><ele>148</ele><time>2020-03-01T09:36:55Z</time></trkpt>
<trkpt lat="42.547262013" lon="12.646198003"><ele>148</ele><time>2020-03-01T09:36:56Z</time></trkpt>
<trkpt lat="42.54726503" lon="12.64615098"><ele>148</ele><time>2020-03-01T09:36:57Z</time></trkpt>
<trkpt lat="42.54726897" lon="12.646104041"><ele>147</ele><time>2020-03-01T09:36:58Z</time></trkpt>
<trkpt lat="42.547272993" lon="12.646057019"><ele>147</ele><time>2020-03-01T09:36:59Z</time></trkpt>
<trkpt lat="42.547279028" lon="12.646009997"><ele>147</ele><time>2020-03-01T09:37:00Z</time></trkpt>
<trkpt lat="42.547284979" lon="12.645964986"><ele>147</ele><time>2020-03-01T09:37:01Z</time></trkpt>
<trkpt lat="42.547291014" lon="12.645919975"><ele>146</ele><time>2020-03-01T09:37:02Z</time></trkpt>
<trkpt lat="42.547298977" lon="12.64587597"><ele>146</ele><time>2020-03-01T09:37:03Z</time></trkpt>
<trkpt lat="42.547307024" lon="12.645832971"><ele>146</ele><time>2020-03-01T09:37:04Z</time></trkpt>
<trkpt lat="42.547314987" lon="12.645789972"><ele>146</ele><time>2020-03-01T09:37:05Z</time></trkpt>
<trkpt lat="42.547322027" lon="12.645747978"><ele>146</ele><time>2020-03-01T09:37:06Z</time></trkpt>
<trkpt lat="42.547326973" lon="12.645705985"><ele>146</ele><time>2020-03-01T09:37:07Z</time></trkpt>
<trkpt lat="42.547330996" lon="12.645663992"><ele>146</ele><time>2020-03-01T09:37:08Z</time></trkpt>
<trkpt lat="42.547333008" lon="12.645621998"><ele>146</ele><time>2020-03-01T09:37:09Z</time></trkpt>
<trkpt lat="42.547326973" lon="12.645495012"><ele>145</ele><time>2020-03-01T09:37:12Z</time></trkpt>
<trkpt lat="42.547321022" lon="12.645452013"><ele>146</ele><time>2020-03-01T09:37:13Z</time></trkpt>
<trkpt lat="42.547314987" lon="12.645409014"><ele>146</ele><time>2020-03-01T09:37:14Z</time></trkpt>
<trkpt lat="42.547309035" lon="12.645366015"><ele>146</ele><time>2020-03-01T09:37:15Z</time></trkpt>
<trkpt lat="42.547300989" lon="12.64532201"><ele>146</ele><time>2020-03-01T09:37:16Z</time></trkpt>
<trkpt lat="42.547294032" lon="12.645279011"><ele>146</ele><time>2020-03-01T09:37:17Z</time></trkpt>
<trkpt lat="42.547285985" lon="12.645235006"><ele>146</ele><time>2020-03-01T09:37:18Z</time></trkpt>
<trkpt lat="42.547279028" lon="12.645191001"><ele>146</ele><time>2020-03-01T09:37:19Z</time></trkpt>
<trkpt lat="42.547271987" lon="12.64514599"><ele>146</ele><time>2020-03-01T09:37:20Z</time></trkpt>
<trkpt lat="42.547266036" lon="12.645101985"><ele>146</ele><time>2020-03-01T09:37:21Z</time></trkpt>
<trkpt lat="42.547260001" lon="12.645056974"><ele>146</ele><time>2020-03-01T09:37:22Z</time></trkpt>
<trkpt lat="42.547254972" lon="12.645012969"><ele>146</ele><time>2020-03-01T09:37:23Z</time></trkpt>
<trkpt lat="42.547250027" lon="12.644968964"><ele>146</ele><time>2020-03-01T09:37:24Z</time></trkpt>
<trkpt lat="42.547246004" lon="12.644924959"><ele>146</ele><time>2020-03-01T09:37:25Z</time></trkpt>
<trkpt lat="42.547240974" lon="12.644881038"><ele>146</ele><time>2020-03-01T09:37:26Z</time></trkpt>
<trkpt lat="42.547236029" lon="12.644838039"><ele>146</ele><time>2020-03-01T09:37:27Z</time></trkpt>
<trkpt lat="42.547231" lon="12.64479504"><ele>147</ele><time>2020-03-01T09:37:28Z</time></trkpt>
<trkpt lat="42.547225971" lon="12.644753968"><ele>147</ele><time>2020-03-01T09:37:29Z</time></trkpt>
<trkpt lat="42.547219014" lon="12.644712981"><ele>147</ele><time>2020-03-01T09:37:30Z</time></trkpt>
<trkpt lat="42.547211973" lon="12.644672999"><ele>147</ele><time>2020-03-01T09:37:31Z</time></trkpt>
<trkpt lat="42.54720401" lon="12.644634023"><ele>147</ele><time>2020-03-01T09:37:32Z</time></trkpt>
<trkpt lat="42.547195042" lon="12.644596975"><ele>147</ele><time>2020-03-01T09:37:33Z</time></trkpt>
<trkpt lat="42.547183977" lon="12.644561017"><ele>147</ele><time>2020-03-01T09:37:34Z</time></trkpt>
<trkpt lat="42.547172997" lon="12.644526986"><ele>148</ele><time>2020-03-01T09:37:35Z</time></trkpt>
<trkpt lat="42.547160005" lon="12.644493962"><ele>148</ele><time>2020-03-01T09:37:36Z</time></trkpt>
<trkpt lat="42.547145002" lon="12.644464038"><ele>148</ele><time>2020-03-01T09:37:37Z</time></trkpt>
<trkpt lat="42.547129998" lon="12.644435959"><ele>148</ele><time>2020-03-01T09:37:38Z</time></trkpt>
<trkpt lat="42.547112983" lon="12.644409975"><ele>148</ele><time>2020-03-01T09:37:39Z</time></trkpt>
<trkpt lat="42.54709404" lon="12.644384997"><ele>148</ele><time>2020-03-01T09:37:40Z</time></trkpt>
<trkpt lat="42.547076019" lon="12.644362031"><ele>148</ele><time>2020-03-01T09:37:41Z</time></trkpt>
<trkpt lat="42.547056992" lon="12.644337974"><ele>149</ele><time>2020-03-01T09:37:42Z</time></trkpt>
<trkpt lat="42.547038971" lon="12.644314002"><ele>149</ele><time>2020-03-01T09:37:43Z</time></trkpt>
<trkpt lat="42.547022039" lon="12.644288018"><ele>149</ele><time>2020-03-01T09:37:44Z</time></trkpt>
<trkpt lat="42.547007035" lon="12.644260023"><ele>149</ele><time>2020-03-01T09:37:45Z</time></trkpt>
<trkpt lat="42.546993038" lon="12.64422901"><ele>149</ele><time>2020-03-01T09:37:46Z</time></trkpt>
<trkpt lat="42.546979962" lon="12.644195985"><ele>149</ele><time>2020-03-01T09:37:47Z</time></trkpt>
<trkpt lat="42.546968982" lon="12.64416296"><ele>149</ele><time>2020-03-01T09:37:48Z</time></trkpt>
<trkpt lat="42.546959007" lon="12.644128008"><ele>149</ele><time>2020-03-01T09:37:49Z</time></trkpt>
<trkpt lat="42.546950039" lon="12.644091966"><ele>149</ele><time>2020-03-01T09:37:50Z</time></trkpt>
<trkpt lat="42.546941992" lon="12.644056007"><ele>150</ele><time>2020-03-01T09:37:51Z</time></trkpt>
<trkpt lat="42.546934029" lon="12.644019965"><ele>150</ele><time>2020-03-01T09:37:52Z</time></trkpt>
<trkpt lat="42.546925982" lon="12.643986018"><ele>150</ele><time>2020-03-01T09:37:53Z</time></trkpt>
<trkpt lat="42.546917014" lon="12.643952994"><ele>150</ele><time>2020-03-01T09:37:54Z</time></trkpt>
<trkpt lat="42.546906034" lon="12.643922986"><ele>150</ele><time>2020-03-01T09:37:55Z</time></trkpt>
<trkpt lat="42.546893042" lon="12.643895997"><ele>150</ele><time>2020-03-01T09:37:56Z</time></trkpt>
<trkpt lat="42.546878038" lon="12.64387303"><ele>150</ele><time>2020-03-01T09:37:57Z</time></trkpt>
<trkpt lat="42.546859011" lon="12.643855009"><ele>150</ele><time>2020-03-01T09:37:58Z</time></trkpt>
<trkpt lat="42.546838978" lon="12.643840006"><ele>150</ele><time>2020-03-01T09:37:59Z</time></trkpt>
<trkpt lat="42.546817018" lon="12.643831037"><ele>151</ele><time>2020-03-01T09:38:00Z</time></trkpt>
<trkpt lat="42.546793967" lon="12.643827014"><ele>151</ele><time>2020-03-01T09:38:01Z</time></trkpt>
<trkpt lat="42.546769995" lon="12.643828019"><ele>151</ele><time>2020-03-01T09:38:02Z</time></trkpt>
<trkpt lat="42.546747029" lon="12.643833971"><ele>151</ele><time>2020-03-01T09:38:03Z</time></trkpt>
<trkpt lat="42.546722973" lon="12.643845035"><ele>151</ele><time>2020-03-01T09:38:04Z</time></trkpt>
<trkpt lat="42.546699001" lon="12.64386096"><ele>151</ele><time>2020-03-01T09:38:05Z</time></trkpt>
<trkpt lat="42.546676034" lon="12.643879987"><ele>151</ele><time>2020-03-01T09:38:06Z</time></trkpt>
<trkpt lat="42.546652984" lon="12.643901026"><ele>151</ele><time>2020-03-01T09:38:07Z</time></trkpt>
<trkpt lat="42.546631023" lon="12.643923992"><ele>152</ele><time>2020-03-01T09:38:08Z</time></trkpt>
<trkpt lat="42.546608979" lon="12.64394897"><ele>152</ele><time>2020-03-01T09:38:09Z</time></trkpt>
<trkpt lat="42.546588024" lon="12.643974032"><ele>152</ele><time>2020-03-01T09:38:10Z</time></trkpt>
<trkpt lat="42.54656598" lon="12.644000016"><ele>152</ele><time>2020-03-01T09:38:11Z</time></trkpt>
<trkpt lat="42.546545025" lon="12.644027006"><ele>152</ele><time>2020-03-01T09:38:12Z</time></trkpt>
<trkpt lat="42.546523986" lon="12.644053996"><ele>152</ele><time>2020-03-01T09:38:13Z</time></trkpt>
<trkpt lat="42.546502026" lon="12.644080985"><ele>152</ele><time>2020-03-01T09:38:14Z</time></trkpt>
<trkpt lat="42.546479981" lon="12.644107975"><ele>152</ele><time>2020-03-01T09:38:15Z</time></trkpt>
<trkpt lat="42.546457015" lon="12.644135971"><ele>152</ele><time>2020-03-01T09:38:16Z</time></trkpt>
<trkpt lat="42.546432959" lon="12.64416296"><ele>152</ele><time>2020-03-01T09:38:17Z</time></trkpt>
<trkpt lat="42.546408987" lon="12.644190034"><ele>153</ele><time>2020-03-01T09:38:18Z</time></trkpt>
<trkpt lat="42.546384009" lon="12.644218029"><ele>153</ele><time>2020-03-01T09:38:19Z</time></trkpt>
<trkpt lat="42.546359031" lon="12.644246025"><ele>153</ele><time>2020-03-01T09:38:20Z</time></trkpt>
<trkpt lat="42.546332963" lon="12.644274021"><ele>153</ele><time>2020-03-01T09:38:21Z</time></trkpt>
<trkpt lat="42.546306979" lon="12.644302016"><ele>153</ele><time>2020-03-01T09:38:22Z</time></trkpt>
<trkpt lat="42.546280995" lon="12.644330012"><ele>154</ele><time>2020-03-01T09:38:23Z</time></trkpt>
<trkpt lat="42.546255011" lon="12.644357001"><ele>154</ele><time>2020-03-01T09:38:24Z</time></trkpt>
<trkpt lat="42.546231039" lon="12.644382985"><ele>154</ele><time>2020-03-01T09:38:25Z</time></trkpt>
<trkpt lat="42.546207989" lon="12.644407963"><ele>154</ele><time>2020-03-01T09:38:26Z</time></trkpt>
<trkpt lat="42.546186028" lon="12.644432019"><ele>154</ele><time>2020-03-01T09:38:27Z</time></trkpt>
<trkpt lat="42.546165995" lon="12.644454986"><ele>155</ele><time>2020-03-01T09:38:28Z</time></trkpt>
<trkpt lat="42.546146968" lon="12.64447703"><ele>155</ele><time>2020-03-01T09:38:29Z</time></trkpt>
<trkpt lat="42.546129031" lon="12.644497985"><ele>155</ele><time>2020-03-01T09:38:30Z</time></trkpt>
<trkpt lat="42.54607304" lon="12.64456504"><ele>155</ele><time>2020-03-01T09:38:33Z</time></trkpt>
<trkpt lat="42.546053007" lon="12.644588007"><ele>155</ele><time>2020-03-01T09:38:34Z</time></trkpt>
<trkpt lat="42.546032974" lon="12.644611979"><ele>156</ele><time>2020-03-01T09:38:35Z</time></trkpt>
<trkpt lat="42.54601202" lon="12.644637041"><ele>156</ele><time>2020-03-01T09:38:36Z</time></trkpt>
<trkpt lat="42.545991987" lon="12.644662019"><ele>156</ele><time>2020-03-01T09:38:37Z</time></trkpt>
<trkpt lat="42.545970026" lon="12.644686997"><ele>156</ele><time>2020-03-01T09:38:38Z</time></trkpt>
<trkpt lat="42.545948988" lon="12.644711975"><ele>156</ele><time>2020-03-01T09:38:39Z</time></trkpt>
<trkpt lat="42.545927027" lon="12.644737037"><ele>156</ele><time>2020-03-01T09:38:40Z</time></trkpt>
<trkpt lat="42.545904983" lon="12.644762015"><ele>156</ele><time>2020-03-01T09:38:41Z</time></trkpt>
<trkpt lat="42.545883022" lon="12.644786993"><ele>157</ele><time>2020-03-01T09:38:42Z</time></trkpt>
<trkpt lat="42.545860978" lon="12.644810965"><ele>157</ele><time>2020-03-01T09:38:43Z</time></trkpt>
<trkpt lat="42.545838011" lon="12.644836027"><ele>157</ele><time>2020-03-01T09:38:44Z</time></trkpt>
<trkpt lat="42.545815967" lon="12.644858994"><ele>157</ele><time>2020-03-01T09:38:45Z</time></trkpt>
<trkpt lat="42.545794006" lon="12.644882966"><ele>157</ele><time>2020-03-01T09:38:46Z</time></trkpt>
<trkpt lat="42.545771962" lon="12.644906016"><ele>157</ele><time>2020-03-01T09:38:47Z</time></trkpt>
<trkpt lat="42.545750001" lon="12.644928982"><ele>157</ele><time>2020-03-01T09:38:48Z</time></trkpt>
<trkpt lat="42.545728963" lon="12.644952033"><ele>157</ele><time>2020-03-01T09:38:49Z</time></trkpt>
<trkpt lat="42.545707002" lon="12.644974999"><ele>157</ele><time>2020-03-01T09:38:50Z</time></trkpt>
<trkpt lat="42.54568697" lon="12.644997966"><ele>157</ele><time>2020-03-01T09:38:51Z</time></trkpt>
<trkpt lat="42.545666015" lon="12.645022022"><ele>157</ele><time>2020-03-01T09:38:52Z</time></trkpt>
<trkpt lat="42.545646988" lon="12.645044988"><ele>157</ele><time>2020-03-01T09:38:53Z</time></trkpt>
<trkpt lat="42.545627961" lon="12.645069966"><ele>157</ele><time>2020-03-01T09:38:54Z</time></trkpt>
<trkpt lat="42.545609018" lon="12.645095028"><ele>157</ele><time>2020-03-01T09:38:55Z</time></trkpt>
<trkpt lat="42.545592003" lon="12.645120006"><ele>157</ele><time>2020-03-01T09:38:56Z</time></trkpt>
<trkpt lat="42.545574987" lon="12.64514599"><ele>157</ele><time>2020-03-01T09:38:57Z</time></trkpt>
<trkpt lat="42.545556966" lon="12.645171974"><ele>158</ele><time>2020-03-01T09:38:58Z</time></trkpt>
<trkpt lat="42.545539029" lon="12.645197036"><ele>158</ele><time>2020-03-01T09:38:59Z</time></trkpt>
<trkpt lat="42.54551799" lon="12.645221008"><ele>158</ele><time>2020-03-01T09:39:00Z</time></trkpt>
<trkpt lat="42.545495024" lon="12.645242969"><ele>158</ele><time>2020-03-01T09:39:01Z</time></trkpt>
<trkpt lat="42.545470968" lon="12.645265013"><ele>158</ele><time>2020-03-01T09:39:02Z</time></trkpt>
<trkpt lat="42.54544599" lon="12.645285968"><ele>158</ele><time>2020-03-01T09:39:03Z</time></trkpt>
<trkpt lat="42.545420006" lon="12.645308012"><ele>158</ele><time>2020-03-01T09:39:04Z</time></trkpt>
<trkpt lat="42.545394022" lon="12.645329973"><ele>158</ele><time>2020-03-01T09:39:05Z</time></trkpt>
<trkpt lat="42.545366026" lon="12.645354029"><ele>158</ele><time>2020-03-01T09:39:06Z</time></trkpt>
<trkpt lat="42.545337025" lon="12.645378001"><ele>158</ele><time>2020-03-01T09:39:07Z</time></trkpt>
<trkpt lat="42.545308024" lon="12.645403985"><ele>158</ele><time>2020-03-01T09:39:08Z</time></trkpt>
<trkpt lat="42.545220014" lon="12.64548596"><ele>159</ele><time>2020-03-01T09:39:11Z</time></trkpt>
<trkpt lat="42.545197969" lon="12.645508004"><ele>159</ele><time>2020-03-01T09:39:12Z</time></trkpt>
<trkpt lat="42.545180032" lon="12.645526025"><ele>159</ele><time>2020-03-01T09:39:13Z</time></trkpt>
<trkpt lat="42.545166034" lon="12.645541029"><ele>159</ele><time>2020-03-01T09:39:14Z</time></trkpt>
<trkpt lat="42.545153964" lon="12.645552009"><ele>159</ele><time>2020-03-01T09:39:15Z</time></trkpt>
<trkpt lat="42.545144996" lon="12.64556299"><ele>159</ele><time>2020-03-01T09:39:16Z</time></trkpt>
<trkpt lat="42.545136027" lon="12.64557397"><ele>159</ele><time>2020-03-01T09:39:17Z</time></trkpt>
<trkpt lat="42.54512798" lon="12.645586962"><ele>159</ele><time>2020-03-01T09:39:18Z</time></trkpt>
<trkpt lat="42.545119012" lon="12.645601965"><ele>159</ele><time>2020-03-01T09:39:19Z</time></trkpt>
<trkpt lat="42.545108031" lon="12.645618981"><ele>159</ele><time>2020-03-01T09:39:20Z</time></trkpt>
<trkpt lat="42.545092022" lon="12.645637002"><ele>159</ele><time>2020-03-01T09:39:21Z</time></trkpt>
<trkpt lat="42.545071989" lon="12.645655023"><ele>159</ele><time>2020-03-01T09:39:22Z</time></trkpt>
<trkpt lat="42.545048017" lon="12.645673966"><ele>160</ele><time>2020-03-01T09:39:23Z</time></trkpt>
<trkpt lat="42.545021027" lon="12.645692993"><ele>160</ele><time>2020-03-01T09:39:24Z</time></trkpt>
<trkpt lat="42.544992026" lon="12.64571202"><ele>160</ele><time>2020-03-01T09:39:25Z</time></trkpt>
<trkpt lat="42.544960007" lon="12.645730963"><ele>160</ele><time>2020-03-01T09:39:26Z</time></trkpt>
<trkpt lat="42.544925977" lon="12.64574999"><ele>160</ele><time>2020-03-01T09:39:27Z</time></trkpt>
<trkpt lat="42.544890018" lon="12.645768011"><ele>160</ele><time>2020-03-01T09:39:28Z</time></trkpt>
<trkpt lat="42.544778036" lon="12.645815033"><ele>161</ele><time>2020-03-01T09:39:31Z</time></trkpt>
<trkpt lat="42.544739982" lon="12.645828025"><ele>161</ele><time>2020-03-01T09:39:32Z</time></trkpt>
<trkpt lat="42.544702012" lon="12.645839006"><ele>161</ele><time>2020-03-01T09:39:33Z</time></trkpt>
<trkpt lat="42.54466597" lon="12.64584898"><ele>161</ele><time>2020-03-01T09:39:34Z</time></trkpt>
<trkpt lat="42.544630012" lon="12.645859038"><ele>161</ele><time>2020-03-01T09:39:35Z</time></trkpt>
<trkpt lat="42.544594975" lon="12.645868007"><ele>161</ele><time>2020-03-01T09:39:36Z</time></trkpt>
<trkpt lat="42.544562034" lon="12.645878987"><ele>161</ele><time>2020-03-01T09:39:37Z</time></trkpt>
<trkpt lat="42.544531021" lon="12.645890974"><ele>161</ele><time>2020-03-01T09:39:38Z</time></trkpt>
<trkpt lat="42.544501014" lon="12.645903965"><ele>161</ele><time>2020-03-01T09:39:39Z</time></trkpt>
<trkpt lat="42.544474024" lon="12.645918969"><ele>162</ele><time>2020-03-01T09:39:40Z</time></trkpt>
<trkpt lat="42.544447035" lon="12.645934979"><ele>162</ele><time>2020-03-01T09:39:41Z</time></trkpt>
<trkpt lat="42.544420967" lon="12.645950988"><ele>162</ele><time>2020-03-01T09:39:42Z</time></trkpt>
<trkpt lat="42.544394983" lon="12.645965992"><ele>162</ele><time>2020-03-01T09:39:43Z</time></trkpt>
<trkpt lat="42.544367993" lon="12.645979989"><ele>162</ele><time>2020-03-01T09:39:44Z</time></trkpt>
<trkpt lat="42.544341004" lon="12.645991975"><ele>162</ele><time>2020-03-01T09:39:45Z</time></trkpt>
<trkpt lat="42.544313008" lon="12.64600304"><ele>162</ele><time>2020-03-01T09:39:46Z</time></trkpt>
<trkpt lat="42.544284007" lon="12.646012008"><ele>162</ele><time>2020-03-01T09:39:47Z</time></trkpt>
<trkpt lat="42.544256011" lon="12.646019971"><ele>162</ele><time>2020-03-01T09:39:48Z</time></trkpt>
<trkpt lat="42.544229021" lon="12.646026006"><ele>162</ele><time>2020-03-01T09:39:49Z</time></trkpt>
<trkpt lat="42.544203037" lon="12.646031035"><ele>162</ele><time>2020-03-01T09:39:50Z</time></trkpt>
<trkpt lat="42.544178981" lon="12.646033969"><ele>163</ele><time>2020-03-01T09:39:51Z</time></trkpt>
<trkpt lat="42.544156015" lon="12.646036986"><ele>163</ele><time>2020-03-01T09:39:52Z</time></trkpt>
<trkpt lat="42.544132965" lon="12.646038998"><ele>163</ele><time>2020-03-01T09:39:53Z</time></trkpt>
<trkpt lat="42.544111004" lon="12.646042015"><ele>163</ele><time>2020-03-01T09:39:54Z</time></trkpt>
<trkpt lat="42.544087032" lon="12.646044027"><ele>163</ele><time>2020-03-01T09:39:55Z</time></trkpt>
<trkpt lat="42.544060964" lon="12.646046961"><ele>163</ele><time>2020-03-01T09:39:56Z</time></trkpt>
<trkpt lat="42.544033974" lon="12.646049978"><ele>163</ele><time>2020-03-01T09:39:57Z</time></trkpt>
<trkpt lat="42.544005979" lon="12.646050984"><ele>163</ele><time>2020-03-01T09:39:58Z</time></trkpt>
<trkpt lat="42.543976977" lon="12.646049978"><ele>163</ele><time>2020-03-01T09:39:59Z</time></trkpt>
<trkpt lat="42.543947976" lon="12.646046039"><ele>163</ele><time>2020-03-01T09:40:00Z</time></trkpt>
<trkpt lat="42.543918975" lon="12.646037992"><ele>163</ele><time>2020-03-01T09:40:01Z</time></trkpt>
<trkpt lat="42.543889973" lon="12.646026006"><ele>163</ele><time>2020-03-01T09:40:02Z</time></trkpt>
<trkpt lat="42.543861978" lon="12.646007985"><ele>163</ele><time>2020-03-01T09:40:03Z</time></trkpt>
<trkpt lat="42.543834988" lon="12.645986024"><ele>163</ele><time>2020-03-01T09:40:04Z</time></trkpt>
<trkpt lat="42.54381001" lon="12.64596004"><ele>163</ele><time>2020-03-01T09:40:05Z</time></trkpt>
<trkpt lat="42.54378696" lon="12.645930033"><ele>163</ele><time>2020-03-01T09:40:06Z</time></trkpt>
<trkpt lat="42.543767011" lon="12.645896003"><ele>163</ele><time>2020-03-01T09:40:07Z</time></trkpt>
<trkpt lat="42.54374899" lon="12.64585996"><ele>163</ele><time>2020-03-01T09:40:08Z</time></trkpt>
<trkpt lat="42.543734992" lon="12.645819979"><ele>163</ele><time>2020-03-01T09:40:09Z</time></trkpt>
<trkpt lat="42.543723006" lon="12.645778991"><ele>163</ele><time>2020-03-01T09:40:10Z</time></trkpt>
<trkpt lat="42.543713031" lon="12.645735992"><ele>163</ele><time>2020-03-01T09:40:11Z</time></trkpt>
<trkpt lat="42.543703979" lon="12.645692993"><ele>163</ele><time>2020-03-01T09:40:12Z</time></trkpt>
<trkpt lat="42.543697022" lon="12.645649994"><ele>163</ele><time>2020-03-01T09:40:13Z</time></trkpt>
<trkpt lat="42.543690987" lon="12.645608"><ele>163</ele><time>2020-03-01T09:40:14Z</time></trkpt>
<trkpt lat="42.543685036" lon="12.645567013"><ele>163</ele><time>2020-03-01T09:40:15Z</time></trkpt>
<trkpt lat="42.543680007" lon="12.645526025"><ele>163</ele><time>2020-03-01T09:40:16Z</time></trkpt>
<trkpt lat="42.543673972" lon="12.64548596"><ele>163</ele><time>2020-03-01T09:40:17Z</time></trkpt>
<trkpt lat="42.543669026" lon="12.645444972"><ele>163</ele><time>2020-03-01T09:40:18Z</time></trkpt>
<trkpt lat="42.543662991" lon="12.645403985"><ele>163</ele><time>2020-03-01T09:40:19Z</time></trkpt>
<trkpt lat="42.54365704" lon="12.645361992"><ele>163</ele><time>2020-03-01T09:40:20Z</time></trkpt>
<trkpt lat="42.543651005" lon="12.645319998"><ele>163</ele><time>2020-03-01T09:40:21Z</time></trkpt>
<trkpt lat="42.543642959" lon="12.645278005"><ele>163</ele><time>2020-03-01T09:40:22Z</time></trkpt>
<trkpt lat="42.543636002" lon="12.645236012"><ele>163</ele><time>2020-03-01T09:40:23Z</time></trkpt>
<trkpt lat="42.543628039" lon="12.645195024"><ele>163</ele><time>2020-03-01T09:40:24Z</time></trkpt>
<trkpt lat="42.543618986" lon="12.645154037"><ele>163</ele><time>2020-03-01T09:40:25Z</time></trkpt>
<trkpt lat="42.543610018" lon="12.645112965"><ele>163</ele><time>2020-03-01T09:40:26Z</time></trkpt>
<trkpt lat="42.543600965" lon="12.645072984"><ele>163</ele><time>2020-03-01T09:40:27Z</time></trkpt>
<trkpt lat="42.543593002" lon="12.645031996"><ele>163</ele><time>2020-03-01T09:40:28Z</time></trkpt>
<trkpt lat="42.54358504" lon="12.644990003"><ele>163</ele><time>2020-03-01T09:40:29Z</time></trkpt>
<trkpt lat="42.543577999" lon="12.644948009"><ele>163</ele><time>2020-03-01T09:40:30Z</time></trkpt>
<trkpt lat="42.543571042" lon="12.644904004"><ele>163</ele><time>2020-03-01T09:40:31Z</time></trkpt>
<trkpt lat="42.543565007" lon="12.644859999"><ele>163</ele><time>2020-03-01T09:40:32Z</time></trkpt>
<trkpt lat="42.543561989" lon="12.644726979"><ele>162</ele><time>2020-03-01T09:40:35Z</time></trkpt>
<trkpt lat="42.543570036" lon="12.644684985"><ele>162</ele><time>2020-03-01T09:40:36Z</time></trkpt>
<trkpt lat="42.543583028" lon="12.644645004"><ele>162</ele><time>2020-03-01T09:40:37Z</time></trkpt>
<trkpt lat="42.543602977" lon="12.644608039"><ele>162</ele><time>2020-03-01T09:40:38Z</time></trkpt>
<trkpt lat="42.543628039" lon="12.644575015"><ele>161</ele><time>2020-03-01T09:40:39Z</time></trkpt>
<trkpt lat="42.543657962" lon="12.644545007"><ele>161</ele><time>2020-03-01T09:40:40Z</time></trkpt>
<trkpt lat="42.543688975" lon="12.644520029"><ele>161</ele><time>2020-03-01T09:40:41Z</time></trkpt>
<trkpt lat="42.543720994" lon="12.644498991"><ele>161</ele><time>2020-03-01T09:40:42Z</time></trkpt>
<trkpt lat="42.543751001" lon="12.644482981"><ele>161</ele><time>2020-03-01T09:40:43Z</time></trkpt>
<trkpt lat="42.543778997" lon="12.644472001"><ele>161</ele><time>2020-03-01T09:40:44Z</time></trkpt>
<trkpt lat="42.543806992" lon="12.644463032"><ele>161</ele><time>2020-03-01T09:40:45Z</time></trkpt>
<trkpt lat="42.543834988" lon="12.644455992"><ele>161</ele><time>2020-03-01T09:40:46Z</time></trkpt>
<trkpt lat="42.543867007" lon="12.644447023"><ele>161</ele><time>2020-03-01T09:40:47Z</time></trkpt>
<trkpt lat="42.543900032" lon="12.644436965"><ele>161</ele><time>2020-03-01T09:40:48Z</time></trkpt>
<trkpt lat="42.543932972" lon="12.644425984"><ele>161</ele><time>2020-03-01T09:40:49Z</time></trkpt>
<trkpt lat="42.543967003" lon="12.644415004"><ele>161</ele><time>2020-03-01T09:40:50Z</time></trkpt>
<trkpt lat="42.543999022" lon="12.644404024"><ele>161</ele><time>2020-03-01T09:40:51Z</time></trkpt>
<trkpt lat="42.544031963" lon="12.64439296"><ele>160</ele><time>2020-03-01T09:40:52Z</time></trkpt>
<trkpt lat="42.544063982" lon="12.644381979"><ele>160</ele><time>2020-03-01T09:40:53Z</time></trkpt>
<trkpt lat="42.544096" lon="12.644370999"><ele>160</ele><time>2020-03-01T09:40:54Z</time></trkpt>
<trkpt lat="42.544129025" lon="12.644359013"><ele>160</ele><time>2020-03-01T09:40:55Z</time></trkpt>
<trkpt lat="42.544162972" lon="12.644348033"><ele>160</ele><time>2020-03-01T09:40:56Z</time></trkpt>
<trkpt lat="42.544197002" lon="12.644335963"><ele>160</ele><time>2020-03-01T09:40:57Z</time></trkpt>
<trkpt lat="42.544232039" lon="12.644323977"><ele>160</ele><time>2020-03-01T09:40:58Z</time></trkpt>
<trkpt lat="42.544266991" lon="12.644312996"><ele>160</ele><time>2020-03-01T09:40:59Z</time></trkpt>
<trkpt lat="42.544302028" lon="12.64430101"><ele>160</ele><time>2020-03-01T09:41:00Z</time></trkpt>
<trkpt lat="42.54433698" lon="12.644289024"><ele>160</ele><time>2020-03-01T09:41:01Z</time></trkpt>
<trkpt lat="42.544372017" lon="12.644277038"><ele>160</ele><time>2020-03-01T09:41:02Z</time></trkpt>
<trkpt lat="42.544442005" lon="12.644253988"><ele>159</ele><time>2020-03-01T09:41:04Z</time></trkpt>
<trkpt lat="42.544476036" lon="12.644242002"><ele>159</ele><time>2020-03-01T09:41:05Z</time></trkpt>
<trkpt lat="42.544509983" lon="12.644230016"><ele>159</ele><time>2020-03-01T09:41:06Z</time></trkpt>
<trkpt lat="42.544543007" lon="12.644218029"><ele>159</ele><time>2020-03-01T09:41:07Z</time></trkpt>
<trkpt lat="42.544637974" lon="12.644183999"><ele>159</ele><time>2020-03-01T09:41:10Z</time></trkpt>
<trkpt lat="42.544667982" lon="12.644172013"><ele>159</ele><time>2020-03-01T09:41:11Z</time></trkpt>
<trkpt lat="42.544698995" lon="12.644161033"><ele>159</ele><time>2020-03-01T09:41:12Z</time></trkpt>
<trkpt lat="42.544729002" lon="12.644148963"><ele>159</ele><time>2020-03-01T09:41:13Z</time></trkpt>
<trkpt lat="42.544759009" lon="12.644137982"><ele>158</ele><time>2020-03-01T09:41:14Z</time></trkpt>
<trkpt lat="42.544789016" lon="12.644127002"><ele>158</ele><time>2020-03-01T09:41:15Z</time></trkpt>
<trkpt lat="42.544820029" lon="12.644115016"><ele>158</ele><time>2020-03-01T09:41:16Z</time></trkpt>
<trkpt lat="42.544850959" lon="12.644104036"><ele>158</ele><time>2020-03-01T09:41:17Z</time></trkpt>
<trkpt lat="42.544881972" lon="12.644091966"><ele>158</ele><time>2020-03-01T09:41:18Z</time></trkpt>
<trkpt lat="42.54491399" lon="12.64407998"><ele>158</ele><time>2020-03-01T09:41:19Z</time></trkpt>
<trkpt lat="42.544947015" lon="12.644068999"><ele>158</ele><time>2020-03-01T09:41:20Z</time></trkpt>
<trkpt lat="42.54498004" lon="12.644057013"><ele>158</ele><time>2020-03-01T09:41:21Z</time></trkpt>
<trkpt lat="42.545013987" lon="12.644045027"><ele>157</ele><time>2020-03-01T09:41:22Z</time></trkpt>
<trkpt lat="42.545048017" lon="12.644033041"><ele>157</ele><time>2020-03-01T09:41:23Z</time></trkpt>
<trkpt lat="42.54508297" lon="12.644021977"><ele>157</ele><time>2020-03-01T09:41:24Z</time></trkpt>
<trkpt lat="42.545117" lon="12.644009991"><ele>157</ele><time>2020-03-01T09:41:25Z</time></trkpt>
<trkpt lat="42.545151031" lon="12.643998004"><ele>157</ele><time>2020-03-01T09:41:26Z</time></trkpt>
<trkpt lat="42.545184977" lon="12.643986018"><ele>157</ele><time>2020-03-01T09:41:27Z</time></trkpt>
<trkpt lat="42.545218002" lon="12.643975038"><ele>157</ele><time>2020-03-01T09:41:28Z</time></trkpt>
<trkpt lat="42.545251027" lon="12.643962968"><ele>157</ele><time>2020-03-01T09:41:29Z</time></trkpt>
<trkpt lat="42.545282962" lon="12.643951988"><ele>157</ele><time>2020-03-01T09:41:30Z</time></trkpt>
<trkpt lat="42.545313975" lon="12.643941008"><ele>156</ele><time>2020-03-01T09:41:31Z</time></trkpt>
<trkpt lat="42.545343982" lon="12.643930027"><ele>156</ele><time>2020-03-01T09:41:32Z</time></trkpt>
<trkpt lat="42.545372983" lon="12.643918963"><ele>156</ele><time>2020-03-01T09:41:33Z</time></trkpt>
<trkpt lat="42.545401985" lon="12.643907983"><ele>156</ele><time>2020-03-01T09:41:34Z</time></trkpt>
<trkpt lat="42.545430986" lon="12.643897003"><ele>156</ele><time>2020-03-01T09:41:35Z</time></trkpt>
<trkpt lat="42.545457976" lon="12.643887028"><ele>156</ele><time>2020-03-01T09:41:36Z</time></trkpt>
<trkpt lat="42.545485971" lon="12.64387697"><ele>156</ele><time>2020-03-01T09:41:37Z</time></trkpt>
<trkpt lat="42.545512961" lon="12.643866995"><ele>156</ele><time>2020-03-01T09:41:38Z</time></trkpt>
<trkpt lat="42.545541041" lon="12.643857021"><ele>156</ele><time>2020-03-01T09:41:39Z</time></trkpt>
<trkpt lat="42.54556803" lon="12.643846963"><ele>156</ele><time>2020-03-01T09:41:40Z</time></trkpt>
<trkpt lat="42.545596026" lon="12.643836988"><ele>156</ele><time>2020-03-01T09:41:41Z</time></trkpt>
<trkpt lat="42.545624021" lon="12.643827014"><ele>156</ele><time>2020-03-01T09:41:42Z</time></trkpt>
<trkpt lat="42.545713959" lon="12.643800024"><ele>155</ele><time>2020-03-01T09:41:45Z</time></trkpt>
<trkpt lat="42.545750001" lon="12.643790971"><ele>155</ele><time>2020-03-01T09:41:46Z</time></trkpt>
<trkpt lat="42.545786966" lon="12.643780997"><ele>155</ele><time>2020-03-01T09:41:47Z</time></trkpt>
<trkpt lat="42.545825019" lon="12.643766999"><ele>155</ele><time>2020-03-01T09:41:48Z</time></trkpt>
<trkpt lat="42.545861984" lon="12.643745961"><ele>155</ele><time>2020-03-01T09:41:49Z</time></trkpt>
<trkpt lat="42.545949994" lon="12.643660968"><ele>154</ele><time>2020-03-01T09:41:52Z</time></trkpt>
<trkpt lat="42.545968015" lon="12.643626016"><ele>154</ele><time>2020-03-01T09:41:53Z</time></trkpt>
<trkpt lat="42.545983018" lon="12.643587962"><ele>154</ele><time>2020-03-01T09:41:54Z</time></trkpt>
<trkpt lat="42.54599601" lon="12.643544963"><ele>154</ele><time>2020-03-01T09:41:55Z</time></trkpt>
<trkpt lat="42.546006991" lon="12.64349903"><ele>154</ele><time>2020-03-01T09:41:56Z</time></trkpt>
<trkpt lat="42.546017971" lon="12.643449996"><ele>154</ele><time>2020-03-01T09:41:57Z</time></trkpt>
<trkpt lat="42.546028029" lon="12.64340004"><ele>154</ele><time>2020-03-01T09:41:58Z</time></trkpt>
<trkpt lat="42.546036998" lon="12.643348994"><ele>154</ele><time>2020-03-01T09:41:59Z</time></trkpt>
<trkpt lat="42.546046972" lon="12.643299038"><ele>153</ele><time>2020-03-01T09:42:00Z</time></trkpt>
<trkpt lat="42.546056025" lon="12.643248998"><ele>153</ele><time>2020-03-01T09:42:01Z</time></trkpt>
<trkpt lat="42.546064993" lon="12.643199963"><ele>153</ele><time>2020-03-01T09:42:02Z</time></trkpt>
<trkpt lat="42.546073962" lon="12.643152019"><ele>152</ele><time>2020-03-01T09:42:03Z</time></trkpt>
<trkpt lat="42.546081003" lon="12.643103991"><ele>152</ele><time>2020-03-01T09:42:04Z</time></trkpt>
<trkpt lat="42.54608796" lon="12.64305504"><ele>152</ele><time>2020-03-01T09:42:05Z</time></trkpt>
<trkpt lat="42.546093995" lon="12.643006006"><ele>152</ele><time>2020-03-01T09:42:06Z</time></trkpt>
<trkpt lat="42.546098018" lon="12.64295496"><ele>151</ele><time>2020-03-01T09:42:07Z</time></trkpt>
<trkpt lat="42.54610003" lon="12.642905004"><ele>151</ele><time>2020-03-01T09:42:08Z</time></trkpt>
<trkpt lat="42.54610003" lon="12.642853959"><ele>151</ele><time>2020-03-01T09:42:09Z</time></trkpt>
<trkpt lat="42.546096006" lon="12.642805008"><ele>150</ele><time>2020-03-01T09:42:10Z</time></trkpt>
<trkpt lat="42.546088966" lon="12.642757986"><ele>150</ele><time>2020-03-01T09:42:11Z</time></trkpt>
<trkpt lat="42.546076979" lon="12.642712975"><ele>150</ele><time>2020-03-01T09:42:12Z</time></trkpt>
<trkpt lat="42.54606097" lon="12.642670982"><ele>150</ele><time>2020-03-01T09:42:13Z</time></trkpt>
<trkpt lat="42.546040015" lon="12.642633012"><ele>149</ele><time>2020-03-01T09:42:14Z</time></trkpt>
<trkpt lat="42.546015959" lon="12.642596969"><ele>149</ele><time>2020-03-01T09:42:15Z</time></trkpt>
<trkpt lat="42.54598897" lon="12.642564029"><ele>149</ele><time>2020-03-01T09:42:16Z</time></trkpt>
<trkpt lat="42.545959968" lon="12.642533015"><ele>149</ele><time>2020-03-01T09:42:17Z</time></trkpt>
<trkpt lat="42.545929039" lon="12.642503008"><ele>148</ele><time>2020-03-01T09:42:18Z</time></trkpt>
<trkpt lat="42.545898026" lon="12.642476019"><ele>148</ele><time>2020-03-01T09:42:19Z</time></trkpt>
<trkpt lat="42.545867013" lon="12.642449029"><ele>148</ele><time>2020-03-01T09:42:20Z</time></trkpt>
<trkpt lat="42.545837006" lon="12.642421033"><ele>148</ele><time>2020-03-01T09:42:21Z</time></trkpt>
<trkpt lat="42.545808004" lon="12.642392032"><ele>148</ele><time>2020-03-01T09:42:22Z</time></trkpt>
<trkpt lat="42.545779003" lon="12.642361019"><ele>147</ele><time>2020-03-01T09:42:23Z</time></trkpt>
<trkpt lat="42.545751007" lon="12.642327994"><ele>147</ele><time>2020-03-01T09:42:24Z</time></trkpt>
<trkpt lat="42.545722006" lon="12.642293964"><ele>147</ele><time>2020-03-01T09:42:25Z</time></trkpt>
<trkpt lat="42.545696022" lon="12.642258005"><ele>147</ele><time>2020-03-01T09:42:26Z</time></trkpt>
<trkpt lat="42.545674983" lon="12.642220035"><ele>147</ele><time>2020-03-01T09:42:27Z</time></trkpt>
<trkpt lat="42.545658974" lon="12.642178964"><ele>147</ele><time>2020-03-01T09:42:28Z</time></trkpt>
<trkpt lat="42.545652017" lon="12.642138982"><ele>146</ele><time>2020-03-01T09:42:29Z</time></trkpt>
<trkpt lat="42.545655034" lon="12.642100006"><ele>146</ele><time>2020-03-01T09:42:30Z</time></trkpt>
<trkpt lat="42.545669032" lon="12.642063964"><ele>146</ele><time>2020-03-01T09:42:31Z</time></trkpt>
<trkpt lat="42.545691999" lon="12.642031023"><ele>146</ele><time>2020-03-01T09:42:32Z</time></trkpt>
<trkpt lat="42.545721" lon="12.642002022"><ele>146</ele><time>2020-03-01T09:42:33Z</time></trkpt>
<trkpt lat="42.545829965" lon="12.641932033"><ele>145</ele><time>2020-03-01T09:42:36Z</time></trkpt>
<trkpt lat="42.545866007" lon="12.641914012"><ele>145</ele><time>2020-03-01T09:42:37Z</time></trkpt>
<trkpt lat="42.54590096" lon="12.641896997"><ele>145</ele><time>2020-03-01T09:42:38Z</time></trkpt>
<trkpt lat="42.545933984" lon="12.641881993"><ele>145</ele><time>2020-03-01T09:42:39Z</time></trkpt>
<trkpt lat="42.545966003" lon="12.641866989"><ele>145</ele><time>2020-03-01T09:42:40Z</time></trkpt>
<trkpt lat="42.545998022" lon="12.641852992"><ele>145</ele><time>2020-03-01T09:42:41Z</time></trkpt>
<trkpt lat="42.546030041" lon="12.641837988"><ele>145</ele><time>2020-03-01T09:42:42Z</time></trkpt>
<trkpt lat="42.54606097" lon="12.641821979"><ele>145</ele><time>2020-03-01T09:42:43Z</time></trkpt>
<trkpt lat="42.546091983" lon="12.641805969"><ele>145</ele><time>2020-03-01T09:42:44Z</time></trkpt>
<trkpt lat="42.54612199" lon="12.64178996"><ele>144</ele><time>2020-03-01T09:42:45Z</time></trkpt>
<trkpt lat="42.546150992" lon="12.64177504"><ele>144</ele><time>2020-03-01T09:42:46Z</time></trkpt>
<trkpt lat="42.546178987" lon="12.641761964"><ele>144</ele><time>2020-03-01T09:42:47Z</time></trkpt>
<trkpt lat="42.546205977" lon="12.641750984"><ele>144</ele><time>2020-03-01T09:42:48Z</time></trkpt>
<trkpt lat="42.546231039" lon="12.641742015"><ele>144</ele><time>2020-03-01T09:42:49Z</time></trkpt>
<trkpt lat="42.546254005" lon="12.64173598"><ele>144</ele><time>2020-03-01T09:42:50Z</time></trkpt>
<trkpt lat="42.546277978" lon="12.641731035"><ele>144</ele><time>2020-03-01T09:42:51Z</time></trkpt>
<trkpt lat="42.546303039" lon="12.641727012"><ele>144</ele><time>2020-03-01T09:42:52Z</time></trkpt>
<trkpt lat="42.546330029" lon="12.641722988"><ele>144</ele><time>2020-03-01T09:42:53Z</time></trkpt>
<trkpt lat="42.546360036" lon="12.641717959"><ele>144</ele><time>2020-03-01T09:42:54Z</time></trkpt>
<trkpt lat="42.546393983" lon="12.641712008"><ele>144</ele><time>2020-03-01T09:42:55Z</time></trkpt>
<trkpt lat="42.546430025" lon="12.641703961"><ele>144</ele><time>2020-03-01T09:42:56Z</time></trkpt>
<trkpt lat="42.546469001" lon="12.641694993"><ele>144</ele><time>2020-03-01T09:42:57Z</time></trkpt>
<trkpt lat="42.546507977" lon="12.641685018"><ele>143</ele><time>2020-03-01T09:42:58Z</time></trkpt>
<trkpt lat="42.546547959" lon="12.641674038"><ele>143</ele><time>2020-03-01T09:42:59Z</time></trkpt>
<trkpt lat="42.546586012" lon="12.641661968"><ele>143</ele><time>2020-03-01T09:43:00Z</time></trkpt>
<trkpt lat="42.546623982" lon="12.641648976"><ele>143</ele><time>2020-03-01T09:43:01Z</time></trkpt>
<trkpt lat="42.546660025" lon="12.641634978"><ele>143</ele><time>2020-03-01T09:43:02Z</time></trkpt>
<trkpt lat="42.546695983" lon="12.641621986"><ele>143</ele><time>2020-03-01T09:43:03Z</time></trkpt>
<trkpt lat="42.546734037" lon="12.64161"><ele>143</ele><time>2020-03-01T09:43:04Z</time></trkpt>
<trkpt lat="42.546771001" lon="12.641598014"><ele>142</ele><time>2020-03-01T09:43:05Z</time></trkpt>
<trkpt lat="42.546881977" lon="12.641556021"><ele>142</ele><time>2020-03-01T09:43:08Z</time></trkpt>
<trkpt lat="42.546921959" lon="12.641543029"><ele>142</ele><time>2020-03-01T09:43:09Z</time></trkpt>
<trkpt lat="42.546962025" lon="12.641530037"><ele>142</ele><time>2020-03-01T09:43:10Z</time></trkpt>
<trkpt lat="42.547002006" lon="12.641518973"><ele>141</ele><time>2020-03-01T09:43:11Z</time></trkpt>
<trkpt lat="42.547038971" lon="12.641508998"><ele>141</ele><time>2020-03-01T09:43:12Z</time></trkpt>
<trkpt lat="42.547074007" lon="12.64150003"><ele>141</ele><time>2020-03-01T09:43:13Z</time></trkpt>
<trkpt lat="42.547108037" lon="12.641491983"><ele>141</ele><time>2020-03-01T09:43:14Z</time></trkpt>
<trkpt lat="42.547139972" lon="12.641485026"><ele>141</ele><time>2020-03-01T09:43:15Z</time></trkpt>
<trkpt lat="42.547171991" lon="12.641477985"><ele>141</ele><time>2020-03-01T09:43:16Z</time></trkpt>
<trkpt lat="42.54720401" lon="12.641471028"><ele>141</ele><time>2020-03-01T09:43:17Z</time></trkpt>
<trkpt lat="42.547237035" lon="12.641464993"><ele>140</ele><time>2020-03-01T09:43:18Z</time></trkpt>
<trkpt lat="42.547270982" lon="12.641458036"><ele>140</ele><time>2020-03-01T09:43:19Z</time></trkpt>
<trkpt lat="42.547305012" lon="12.641450996"><ele>140</ele><time>2020-03-01T09:43:20Z</time></trkpt>
<trkpt lat="42.547339965" lon="12.641444039"><ele>140</ele><time>2020-03-01T09:43:21Z</time></trkpt>
<trkpt lat="42.547376007" lon="12.641438004"><ele>140</ele><time>2020-03-01T09:43:22Z</time></trkpt>
<trkpt lat="42.547411965" lon="12.641432974"><ele>140</ele><time>2020-03-01T09:43:23Z</time></trkpt>
<trkpt lat="42.547448007" lon="12.641427023"><ele>140</ele><time>2020-03-01T09:43:24Z</time></trkpt>
<trkpt lat="42.547483966" lon="12.641423"><ele>140</ele><time>2020-03-01T09:43:25Z</time></trkpt>
<trkpt lat="42.547520008" lon="12.641418977"><ele>139</ele><time>2020-03-01T09:43:26Z</time></trkpt>
<trkpt lat="42.547555966" lon="12.641416965"><ele>139</ele><time>2020-03-01T09:43:27Z</time></trkpt>
<trkpt lat="42.547592008" lon="12.641415037"><ele>139</ele><time>2020-03-01T09:43:28Z</time></trkpt>
<trkpt lat="42.547626961" lon="12.641415037"><ele>139</ele><time>2020-03-01T09:43:29Z</time></trkpt>
<trkpt lat="42.547661997" lon="12.641415959"><ele>139</ele><time>2020-03-01T09:43:30Z</time></trkpt>
<trkpt lat="42.547696028" lon="12.641418977"><ele>139</ele><time>2020-03-01T09:43:31Z</time></trkpt>
<trkpt lat="42.54773098" lon="12.641421994"><ele>139</ele><time>2020-03-01T09:43:32Z</time></trkpt>
<trkpt lat="42.547764005" lon="12.641426018"><ele>138</ele><time>2020-03-01T09:43:33Z</time></trkpt>
<trkpt lat="42.547798036" lon="12.641430041"><ele>138</ele><time>2020-03-01T09:43:34Z</time></trkpt>
<trkpt lat="42.547830977" lon="12.641434986"><ele>138</ele><time>2020-03-01T09:43:35Z</time></trkpt>
<trkpt lat="42.547865007" lon="12.641439009"><ele>138</ele><time>2020-03-01T09:43:36Z</time></trkpt>
<trkpt lat="42.547898032" lon="12.641444039"><ele>138</ele><time>2020-03-01T09:43:37Z</time></trkpt>
<trkpt lat="42.547931978" lon="12.641447978"><ele>138</ele><time>2020-03-01T09:43:38Z</time></trkpt>
<trkpt lat="42.547965003" lon="12.641453007"><ele>138</ele><time>2020-03-01T09:43:39Z</time></trkpt>
<trkpt lat="42.547999034" lon="12.641456025"><ele>138</ele><time>2020-03-01T09:43:40Z</time></trkpt>
<trkpt lat="42.548031975" lon="12.641459964"><ele>137</ele><time>2020-03-01T09:43:41Z</time></trkpt>
<trkpt lat="42.548066005" lon="12.641462982"><ele>137</ele><time>2020-03-01T09:43:42Z</time></trkpt>
<trkpt lat="42.548100036" lon="12.641465999"><ele>137</ele><time>2020-03-01T09:43:43Z</time></trkpt>
<trkpt lat="42.548133982" lon="12.641469017"><ele>137</ele><time>2020-03-01T09:43:44Z</time></trkpt>
<trkpt lat="42.548168013" lon="12.64147304"><ele>137</ele><time>2020-03-01T09:43:45Z</time></trkpt>
<trkpt lat="42.548201038" lon="12.641477985"><ele>137</ele><time>2020-03-01T09:43:46Z</time></trkpt>
<trkpt lat="42.548232973" lon="12.64148402"><ele>137</ele><time>2020-03-01T09:43:47Z</time></trkpt>
<trkpt lat="42.548264991" lon="12.641491983"><ele>137</ele><time>2020-03-01T09:43:48Z</time></trkpt>
<trkpt lat="42.548296005" lon="12.641501036"><ele>136</ele><time>2020-03-01T09:43:49Z</time></trkpt>
<trkpt lat="42.548327018" lon="12.64151101"><ele>136</ele><time>2020-03-01T09:43:50Z</time></trkpt>
<trkpt lat="42.548356019" lon="12.641520984"><ele>136</ele><time>2020-03-01T09:43:51Z</time></trkpt>
<trkpt lat="42.54838502" lon="12.641530037"><ele>136</ele><time>2020-03-01T09:43:52Z</time></trkpt>
<trkpt lat="42.548413016" lon="12.641539006"><ele>136</ele><time>2020-03-01T09:43:53Z</time></trkpt>
<trkpt lat="42.548440006" lon="12.641545963"><ele>136</ele><time>2020-03-01T09:43:54Z</time></trkpt>
<trkpt lat="42.548466995" lon="12.641551998"><ele>136</ele><time>2020-03-01T09:43:55Z</time></trkpt>
<trkpt lat="42.548492979" lon="12.641557027"><ele>136</ele><time>2020-03-01T09:43:56Z</time></trkpt>
<trkpt lat="42.548518041" lon="12.641560966"><ele>136</ele><time>2020-03-01T09:43:57Z</time></trkpt>
<trkpt lat="42.548544025" lon="12.641562978"><ele>136</ele><time>2020-03-01T09:43:58Z</time></trkpt>
<trkpt lat="42.548567997" lon="12.641565995"><ele>136</ele><time>2020-03-01T09:43:59Z</time></trkpt>
<trkpt lat="42.548592975" lon="12.641567001"><ele>136</ele><time>2020-03-01T09:44:00Z</time></trkpt>
<trkpt lat="42.548618037" lon="12.641568007"><ele>136</ele><time>2020-03-01T09:44:01Z</time></trkpt>
<trkpt lat="42.548644021" lon="12.641569013"><ele>136</ele><time>2020-03-01T09:44:02Z</time></trkpt>
<trkpt lat="42.548668999" lon="12.641570019"><ele>136</ele><time>2020-03-01T09:44:03Z</time></trkpt>
<trkpt lat="42.548694983" lon="12.641570019"><ele>136</ele><time>2020-03-01T09:44:04Z</time></trkpt>
<trkpt lat="42.548720967" lon="12.641571024"><ele>136</ele><time>2020-03-01T09:44:05Z</time></trkpt>
<trkpt lat="42.548748963" lon="12.64157203"><ele>136</ele><time>2020-03-01T09:44:06Z</time></trkpt>
<trkpt lat="42.548776036" lon="12.64157203"><ele>136</ele><time>2020-03-01T09:44:07Z</time></trkpt>
<trkpt lat="42.548805038" lon="12.64157203"><ele>136</ele><time>2020-03-01T09:44:08Z</time></trkpt>
<trkpt lat="42.548834039" lon="12.641569013"><ele>136</ele><time>2020-03-01T09:44:09Z</time></trkpt>
<trkpt lat="42.54886304" lon="12.641564989"><ele>136</ele><time>2020-03-01T09:44:10Z</time></trkpt>
<trkpt lat="42.548892964" lon="12.641557027"><ele>136</ele><time>2020-03-01T09:44:11Z</time></trkpt>
<trkpt lat="42.548921965" lon="12.641545963"><ele>135</ele><time>2020-03-01T09:44:12Z</time></trkpt>
<trkpt lat="42.548949039" lon="12.641528025"><ele>135</ele><time>2020-03-01T09:44:13Z</time></trkpt>
<trkpt lat="42.548968988" lon="12.641502963"><ele>135</ele><time>2020-03-01T09:44:14Z</time></trkpt>
<trkpt lat="42.548980974" lon="12.641468011"><ele>136</ele><time>2020-03-01T09:44:15Z</time></trkpt>
<trkpt lat="42.548984997" lon="12.641425012"><ele>136</ele><time>2020-03-01T09:44:16Z</time></trkpt>
<trkpt lat="42.548986003" lon="12.641380001"><ele>136</ele><time>2020-03-01T09:44:17Z</time></trkpt>
<trkpt lat="42.548983991" lon="12.641333984"><ele>136</ele><time>2020-03-01T09:44:18Z</time></trkpt>
<trkpt lat="42.548980974" lon="12.641287968"><ele>136</ele><time>2020-03-01T09:44:19Z</time></trkpt>
<trkpt lat="42.548976028" lon="12.641242035"><ele>136</ele><time>2020-03-01T09:44:20Z</time></trkpt>
<trkpt lat="42.548969993" lon="12.641197024"><ele>136</ele><time>2020-03-01T09:44:21Z</time></trkpt>
<trkpt lat="42.548963958" lon="12.641151007"><ele>136</ele><time>2020-03-01T09:44:22Z</time></trkpt>
<trkpt lat="42.548958007" lon="12.641105996"><ele>136</ele><time>2020-03-01T09:44:23Z</time></trkpt>
<trkpt lat="42.548950966" lon="12.64105998"><ele>136</ele><time>2020-03-01T09:44:24Z</time></trkpt>
<trkpt lat="42.548944009" lon="12.641014969"><ele>136</ele><time>2020-03-01T09:44:25Z</time></trkpt>
<trkpt lat="42.548937974" lon="12.640969958"><ele>136</ele><time>2020-03-01T09:44:26Z</time></trkpt>
<trkpt lat="42.548931018" lon="12.640926037"><ele>136</ele><time>2020-03-01T09:44:27Z</time></trkpt>
<trkpt lat="42.548924983" lon="12.640883038"><ele>136</ele><time>2020-03-01T09:44:28Z</time></trkpt>
<trkpt lat="42.548919031" lon="12.640840961"><ele>136</ele><time>2020-03-01T09:44:29Z</time></trkpt>
<trkpt lat="42.548911991" lon="12.640799973"><ele>136</ele><time>2020-03-01T09:44:30Z</time></trkpt>
<trkpt lat="42.548906039" lon="12.640760997"><ele>137</ele><time>2020-03-01T09:44:31Z</time></trkpt>
<trkpt lat="42.548896987" lon="12.640725039"><ele>137</ele><time>2020-03-01T09:44:32Z</time></trkpt>
<trkpt lat="42.548887013" lon="12.640692014"><ele>137</ele><time>2020-03-01T09:44:33Z</time></trkpt>
<trkpt lat="42.548873015" lon="12.640664019"><ele>137</ele><time>2020-03-01T09:44:34Z</time></trkpt>
<trkpt lat="42.548854994" lon="12.640639963"><ele>137</ele><time>2020-03-01T09:44:35Z</time></trkpt>
<trkpt lat="42.548833033" lon="12.640622025"><ele>137</ele><time>2020-03-01T09:44:36Z</time></trkpt>
<trkpt lat="42.54880596" lon="12.640609033"><ele>137</ele><time>2020-03-01T09:44:37Z</time></trkpt>
<trkpt lat="42.548776958" lon="12.640599981"><ele>137</ele><time>2020-03-01T09:44:38Z</time></trkpt>
<trkpt lat="42.548745023" lon="12.64059403"><ele>137</ele><time>2020-03-01T09:44:39Z</time></trkpt>
<trkpt lat="42.548647039" lon="12.640589001"><ele>137</ele><time>2020-03-01T09:44:42Z</time></trkpt>
<trkpt lat="42.548616026" lon="12.640587995"><ele>137</ele><time>2020-03-01T09:44:43Z</time></trkpt>
<trkpt lat="42.54858803" lon="12.640584977"><ele>137</ele><time>2020-03-01T09:44:44Z</time></trkpt>
<trkpt lat="42.548529021" lon="12.640551031"><ele>137</ele><time>2020-03-01T09:44:47Z</time></trkpt>
<trkpt lat="42.548519969" lon="12.640528986"><ele>137</ele><time>2020-03-01T09:44:48Z</time></trkpt>
<trkpt lat="42.548515024" lon="12.640500991"><ele>137</ele><time>2020-03-01T09:44:49Z</time></trkpt>
<trkpt lat="42.548516029" lon="12.640468972"><ele>137</ele><time>2020-03-01T09:44:50Z</time></trkpt>
<trkpt lat="42.548520975" lon="12.640433013"><ele>137</ele><time>2020-03-01T09:44:51Z</time></trkpt>
<trkpt lat="42.548531033" lon="12.640394038"><ele>137</ele><time>2020-03-01T09:44:52Z</time></trkpt>
<trkpt lat="42.548544025" lon="12.640351038"><ele>137</ele><time>2020-03-01T09:44:53Z</time></trkpt>
<trkpt lat="42.548560034" lon="12.640306028"><ele>137</ele><time>2020-03-01T09:44:54Z</time></trkpt>
<trkpt lat="42.548577972" lon="12.640260011"><ele>138</ele><time>2020-03-01T09:44:55Z</time></trkpt>
<trkpt lat="42.548594987" lon="12.640213994"><ele>138</ele><time>2020-03-01T09:44:56Z</time></trkpt>
<trkpt lat="42.548612002" lon="12.640169989"><ele>138</ele><time>2020-03-01T09:44:57Z</time></trkpt>
<trkpt lat="42.548626" lon="12.640127996"><ele>138</ele><time>2020-03-01T09:44:58Z</time></trkpt>
<trkpt lat="42.54863698" lon="12.640090026"><ele>138</ele><time>2020-03-01T09:44:59Z</time></trkpt>
<trkpt lat="42.548645027" lon="12.640053984"><ele>138</ele><time>2020-03-01T09:45:00Z</time></trkpt>
<trkpt lat="42.548651984" lon="12.640019031"><ele>138</ele><time>2020-03-01T09:45:01Z</time></trkpt>
<trkpt lat="42.548658019" lon="12.639983995"><ele>138</ele><time>2020-03-01T09:45:02Z</time></trkpt>
<trkpt lat="42.548664976" lon="12.639948037"><ele>138</ele><time>2020-03-01T09:45:03Z</time></trkpt>
<trkpt lat="42.548673023" lon="12.639908977"><ele>138</ele><time>2020-03-01T09:45:04Z</time></trkpt>
<trkpt lat="42.548684003" lon="12.639865978"><ele>138</ele><time>2020-03-01T09:45:05Z</time></trkpt>
<trkpt lat="42.548695989" lon="12.639819961"><ele>138</ele><time>2020-03-01T09:45:06Z</time></trkpt>
<trkpt lat="42.548706969" lon="12.639772017"><ele>138</ele><time>2020-03-01T09:45:07Z</time></trkpt>
<trkpt lat="42.548715016" lon="12.639721977"><ele>138</ele><time>2020-03-01T09:45:08Z</time></trkpt>
<trkpt lat="42.548719039" lon="12.639671015"><ele>138</ele><time>2020-03-01T09:45:09Z</time></trkpt>
<trkpt lat="42.548717028" lon="12.639619969"><ele>138</ele><time>2020-03-01T09:45:10Z</time></trkpt>
<trkpt lat="42.548708981" lon="12.639571019"><ele>138</ele><time>2020-03-01T09:45:11Z</time></trkpt>
<trkpt lat="42.54866397" lon="12.63943498"><ele>138</ele><time>2020-03-01T09:45:14Z</time></trkpt>
<trkpt lat="42.548649972" lon="12.639394999"><ele>138</ele><time>2020-03-01T09:45:15Z</time></trkpt>
<trkpt lat="42.548634969" lon="12.639354011"><ele>138</ele><time>2020-03-01T09:45:16Z</time></trkpt>
<trkpt lat="42.548620971" lon="12.639314029"><ele>138</ele><time>2020-03-01T09:45:17Z</time></trkpt>
<trkpt lat="42.548606973" lon="12.63927497"><ele>138</ele><time>2020-03-01T09:45:18Z</time></trkpt>
<trkpt lat="42.548593981" lon="12.639241023"><ele>138</ele><time>2020-03-01T09:45:19Z</time></trkpt>
<trkpt lat="42.548583001" lon="12.63921001"><ele>138</ele><time>2020-03-01T09:45:20Z</time></trkpt>
<trkpt lat="42.548574032" lon="12.639181009"><ele>138</ele><time>2020-03-01T09:45:21Z</time></trkpt>
<trkpt lat="42.548565986" lon="12.639146978"><ele>138</ele><time>2020-03-01T09:45:22Z</time></trkpt>
<trkpt lat="42.548558023" lon="12.639103979"><ele>138</ele><time>2020-03-01T09:45:23Z</time></trkpt>
<trkpt lat="42.548549976" lon="12.639056034"><ele>138</ele><time>2020-03-01T09:45:24Z</time></trkpt>
<trkpt lat="42.548541008" lon="12.639008006"><ele>138</ele><time>2020-03-01T09:45:25Z</time></trkpt>
<trkpt lat="42.548529021" lon="12.638962995"><ele>138</ele><time>2020-03-01T09:45:26Z</time></trkpt>
<trkpt lat="42.548515024" lon="12.638921002"><ele>138</ele><time>2020-03-01T09:45:27Z</time></trkpt>
<trkpt lat="42.548462972" lon="12.638801979"><ele>138</ele><time>2020-03-01T09:45:30Z</time></trkpt>
<trkpt lat="42.548442017" lon="12.638763003"><ele>138</ele><time>2020-03-01T09:45:31Z</time></trkpt>
<trkpt lat="42.548420979" lon="12.638725033"><ele>138</ele><time>2020-03-01T09:45:32Z</time></trkpt>
<trkpt lat="42.548399018" lon="12.638686979"><ele>138</ele><time>2020-03-01T09:45:33Z</time></trkpt>
<trkpt lat="42.548375968" lon="12.638650015"><ele>137</ele><time>2020-03-01T09:45:34Z</time></trkpt>
<trkpt lat="42.548353001" lon="12.638613973"><ele>137</ele><time>2020-03-01T09:45:35Z</time></trkpt>
<trkpt lat="42.548329029" lon="12.638578014"><ele>137</ele><time>2020-03-01T09:45:36Z</time></trkpt>
<trkpt lat="42.548305979" lon="12.638542978"><ele>137</ele><time>2020-03-01T09:45:37Z</time></trkpt>
<trkpt lat="42.548283013" lon="12.638509031"><ele>137</ele><time>2020-03-01T09:45:38Z</time></trkpt>
<trkpt lat="42.548260968" lon="12.638475001"><ele>137</ele><time>2020-03-01T09:45:39Z</time></trkpt>
<trkpt lat="42.548240013" lon="12.638441976"><ele>137</ele><time>2020-03-01T09:45:40Z</time></trkpt>
<trkpt lat="42.548219981" lon="12.638410041"><ele>137</ele><time>2020-03-01T09:45:41Z</time></trkpt>
<trkpt lat="42.548201038" lon="12.638378022"><ele>137</ele><time>2020-03-01T09:45:42Z</time></trkpt>
<trkpt lat="42.548182011" lon="12.638347009"><ele>137</ele><time>2020-03-01T09:45:43Z</time></trkpt>
<trkpt lat="42.54816399" lon="12.63831499"><ele>137</ele><time>2020-03-01T09:45:44Z</time></trkpt>
<trkpt lat="42.548144963" lon="12.638283977"><ele>136</ele><time>2020-03-01T09:45:45Z</time></trkpt>
<trkpt lat="42.54812602" lon="12.638252964"><ele>136</ele><time>2020-03-01T09:45:46Z</time></trkpt>
<trkpt lat="42.548105987" lon="12.638221029"><ele>136</ele><time>2020-03-01T09:45:47Z</time></trkpt>
<trkpt lat="42.548086038" lon="12.63818901"><ele>136</ele><time>2020-03-01T09:45:48Z</time></trkpt>
<trkpt lat="42.548064999" lon="12.638156991"><ele>136</ele><time>2020-03-01T09:45:49Z</time></trkpt>
<trkpt lat="42.548043039" lon="12.638124973"><ele>136</ele><time>2020-03-01T09:45:50Z</time></trkpt>
<trkpt lat="42.548020994" lon="12.63809396"><ele>136</ele><time>2020-03-01T09:45:51Z</time></trkpt>
<trkpt lat="42.547998028" lon="12.638062024"><ele>136</ele><time>2020-03-01T09:45:52Z</time></trkpt>
<trkpt lat="42.547973972" lon="12.638031011"><ele>136</ele><time>2020-03-01T09:45:53Z</time></trkpt>
<trkpt lat="42.54795" lon="12.638001004"><ele>136</ele><time>2020-03-01T09:45:54Z</time></trkpt>
<trkpt lat="42.547925021" lon="12.637970997"><ele>136</ele><time>2020-03-01T09:45:55Z</time></trkpt>
<trkpt lat="42.547900965" lon="12.63794099"><ele>136</ele><time>2020-03-01T09:45:56Z</time></trkpt>
<trkpt lat="42.547875987" lon="12.637910983"><ele>136</ele><time>2020-03-01T09:45:57Z</time></trkpt>
<trkpt lat="42.547852015" lon="12.637880975"><ele>136</ele><time>2020-03-01T09:45:58Z</time></trkpt>
<trkpt lat="42.547827037" lon="12.637850968"><ele>136</ele><time>2020-03-01T09:45:59Z</time></trkpt>
<trkpt lat="42.547802981" lon="12.637820961"><ele>135</ele><time>2020-03-01T09:46:00Z</time></trkpt>
<trkpt lat="42.547780015" lon="12.637791038"><ele>135</ele><time>2020-03-01T09:46:01Z</time></trkpt>
<trkpt lat="42.54775797" lon="12.637760025"><ele>136</ele><time>2020-03-01T09:46:02Z</time></trkpt>
<trkpt lat="42.54773601" lon="12.637729011"><ele>136</ele><time>2020-03-01T09:46:03Z</time></trkpt>
<trkpt lat="42.547714971" lon="12.637696993"><ele>136</ele><time>2020-03-01T09:46:04Z</time></trkpt>
<trkpt lat="42.547696028" lon="12.637664974"><ele>136</ele><time>2020-03-01T09:46:05Z</time></trkpt>
<trkpt lat="42.547677001" lon="12.637632033"><ele>136</ele><time>2020-03-01T09:46:06Z</time></trkpt>
<trkpt lat="42.54765898" lon="12.637599008"><ele>136</ele><time>2020-03-01T09:46:07Z</time></trkpt>
<trkpt lat="42.547641965" lon="12.637564978"><ele>136</ele><time>2020-03-01T09:46:08Z</time></trkpt>
<trkpt lat="42.547626039" lon="12.637532037"><ele>136</ele><time>2020-03-01T09:46:09Z</time></trkpt>
<trkpt lat="42.54761003" lon="12.637498006"><ele>136</ele><time>2020-03-01T09:46:10Z</time></trkpt>
<trkpt lat="42.54759402" lon="12.637464982"><ele>136</ele><time>2020-03-01T09:46:11Z</time></trkpt>
<trkpt lat="42.547578011" lon="12.637432041"><ele>136</ele><time>2020-03-01T09:46:12Z</time></trkpt>
<trkpt lat="42.547560995" lon="12.637400022"><ele>136</ele><time>2020-03-01T09:46:13Z</time></trkpt>
<trkpt lat="42.547544986" lon="12.637368003"><ele>136</ele><time>2020-03-01T09:46:14Z</time></trkpt>
<trkpt lat="42.547527971" lon="12.63733699"><ele>136</ele><time>2020-03-01T09:46:15Z</time></trkpt>
<trkpt lat="42.547511039" lon="12.637306983"><ele>136</ele><time>2020-03-01T09:46:16Z</time></trkpt>
<trkpt lat="42.547497042" lon="12.637274964"><ele>136</ele><time>2020-03-01T09:46:17Z</time></trkpt>
<trkpt lat="42.547490001" lon="12.637239005"><ele>136</ele><time>2020-03-01T09:46:18Z</time></trkpt>
<trkpt lat="42.547494024" lon="12.637197012"><ele>136</ele><time>2020-03-01T09:46:19Z</time></trkpt>
<trkpt lat="42.547508022" lon="12.637153007"><ele>136</ele><time>2020-03-01T09:46:20Z</time></trkpt>
<trkpt lat="42.547597038" lon="12.637037002"><ele>136</ele><time>2020-03-01T09:46:23Z</time></trkpt>
<trkpt lat="42.547634002" lon="12.637005989"><ele>136</ele><time>2020-03-01T09:46:24Z</time></trkpt>
<trkpt lat="42.54766996" lon="12.636975981"><ele>135</ele><time>2020-03-01T09:46:25Z</time></trkpt>
<trkpt lat="42.547703991" lon="12.63694698"><ele>135</ele><time>2020-03-01T09:46:26Z</time></trkpt>
<trkpt lat="42.547737015" lon="12.636918984"><ele>135</ele><time>2020-03-01T09:46:27Z</time></trkpt>
<trkpt lat="42.547769034" lon="12.636889983"><ele>135</ele><time>2020-03-01T09:46:28Z</time></trkpt>
<trkpt lat="42.547799041" lon="12.636860982"><ele>135</ele><time>2020-03-01T09:46:29Z</time></trkpt>
<trkpt lat="42.547855033" lon="12.636801973"><ele>134</ele><time>2020-03-01T09:46:31Z</time></trkpt>
<trkpt lat="42.547882022" lon="12.636771966"><ele>134</ele><time>2020-03-01T09:46:32Z</time></trkpt>
<trkpt lat="42.547909012" lon="12.636741959"><ele>134</ele><time>2020-03-01T09:46:33Z</time></trkpt>
<trkpt lat="42.54793399" lon="12.636712035"><ele>134</ele><time>2020-03-01T09:46:34Z</time></trkpt>
<trkpt lat="42.547958968" lon="12.636683034"><ele>134</ele><time>2020-03-01T09:46:35Z</time></trkpt>
<trkpt lat="42.547983024" lon="12.636653027"><ele>134</ele><time>2020-03-01T09:46:36Z</time></trkpt>
<trkpt lat="42.548006997" lon="12.636624025"><ele>134</ele><time>2020-03-01T09:46:37Z</time></trkpt>
<trkpt lat="42.548029963" lon="12.63659603"><ele>134</ele><time>2020-03-01T09:46:38Z</time></trkpt>
<trkpt lat="42.548054019" lon="12.636568034"><ele>134</ele><time>2020-03-01T09:46:39Z</time></trkpt>
<trkpt lat="42.548076985" lon="12.636540039"><ele>134</ele><time>2020-03-01T09:46:40Z</time></trkpt>
<trkpt lat="42.548100036" lon="12.636512965"><ele>134</ele><time>2020-03-01T09:46:41Z</time></trkpt>
<trkpt lat="42.548124008" lon="12.636485975"><ele>134</ele><time>2020-03-01T09:46:42Z</time></trkpt>
<trkpt lat="42.548146974" lon="12.636458986"><ele>134</ele><time>2020-03-01T09:46:43Z</time></trkpt>
<trkpt lat="42.54817103" lon="12.636433002"><ele>134</ele><time>2020-03-01T09:46:44Z</time></trkpt>
<trkpt lat="42.548195003" lon="12.636406012"><ele>134</ele><time>2020-03-01T09:46:45Z</time></trkpt>
<trkpt lat="42.548219981" lon="12.636379022"><ele>134</ele><time>2020-03-01T09:46:46Z</time></trkpt>
<trkpt lat="42.54828997" lon="12.636308027"><ele>134</ele><time>2020-03-01T09:46:49Z</time></trkpt>
<trkpt lat="42.548310002" lon="12.636291012"><ele>133</ele><time>2020-03-01T09:46:50Z</time></trkpt>
<trkpt lat="42.548328023" lon="12.636279026"><ele>133</ele><time>2020-03-01T09:46:51Z</time></trkpt>
<trkpt lat="42.548344033" lon="12.636272991"><ele>133</ele><time>2020-03-01T09:46:52Z</time></trkpt>
<trkpt lat="42.548359036" lon="12.636269974"><ele>133</ele><time>2020-03-01T09:46:53Z</time></trkpt>
<trkpt lat="42.548375968" lon="12.636267962"><ele>133</ele><time>2020-03-01T09:46:54Z</time></trkpt>
<trkpt lat="42.548394995" lon="12.636264022"><ele>133</ele><time>2020-03-01T09:46:55Z</time></trkpt>
<trkpt lat="42.548417961" lon="12.636256982"><ele>133</ele><time>2020-03-01T09:46:56Z</time></trkpt>
<trkpt lat="42.548444029" lon="12.636246001"><ele>133</ele><time>2020-03-01T09:46:57Z</time></trkpt>
<trkpt lat="42.54847303" lon="12.636230998"><ele>133</ele><time>2020-03-01T09:46:58Z</time></trkpt>
<trkpt lat="42.548571015" lon="12.636166038"><ele>133</ele><time>2020-03-01T09:47:01Z</time></trkpt>
<trkpt lat="42.548604961" lon="12.63613997"><ele>133</ele><time>2020-03-01T09:47:02Z</time></trkpt>
<trkpt lat="42.548637986" lon="12.636110969"><ele>133</ele><time>2020-03-01T09:47:03Z</time></trkpt>
<trkpt lat="42.548670005" lon="12.63608004"><ele>133</ele><time>2020-03-01T09:47:04Z</time></trkpt>
<trkpt lat="42.548700012" lon="12.636049027"><ele>133</ele><time>2020-03-01T09:47:05Z</time></trkpt>
<trkpt lat="42.548729014" lon="12.636016002"><ele>133</ele><time>2020-03-01T09:47:06Z</time></trkpt>
<trkpt lat="42.548757009" lon="12.635982977"><ele>133</ele><time>2020-03-01T09:47:07Z</time></trkpt>
<trkpt lat="42.548783999" lon="12.635948025"><ele>133</ele><time>2020-03-01T09:47:08Z</time></trkpt>
<trkpt lat="42.548809983" lon="12.635912988"><ele>133</ele><time>2020-03-01T09:47:09Z</time></trkpt>
<trkpt lat="42.548834961" lon="12.635878036"><ele>133</ele><time>2020-03-01T09:47:10Z</time></trkpt>
<trkpt lat="42.548860023" lon="12.635841994"><ele>133</ele><time>2020-03-01T09:47:11Z</time></trkpt>
<trkpt lat="42.548883995" lon="12.635806035"><ele>132</ele><time>2020-03-01T09:47:12Z</time></trkpt>
<trkpt lat="42.548906961" lon="12.635769993"><ele>132</ele><time>2020-03-01T09:47:13Z</time></trkpt>
<trkpt lat="42.548930012" lon="12.635735041"><ele>132</ele><time>2020-03-01T09:47:14Z</time></trkpt>
<trkpt lat="42.548952978" lon="12.635698998"><ele>132</ele><time>2020-03-01T09:47:15Z</time></trkpt>
<trkpt lat="42.548975023" lon="12.635664968"><ele>132</ele><time>2020-03-01T09:47:16Z</time></trkpt>
<trkpt lat="42.548997989" lon="12.635630015"><ele>132</ele><time>2020-03-01T09:47:17Z</time></trkpt>
<trkpt lat="42.549064038" lon="12.635529013"><ele>133</ele><time>2020-03-01T09:47:20Z</time></trkpt>
<trkpt lat="42.549085999" lon="12.635495989"><ele>133</ele><time>2020-03-01T09:47:21Z</time></trkpt>
<trkpt lat="42.549107959" lon="12.635462964"><ele>133</ele><time>2020-03-01T09:47:22Z</time></trkpt>
<trkpt lat="42.549130004" lon="12.635430023"><ele>133</ele><time>2020-03-01T09:47:23Z</time></trkpt>
<trkpt lat="42.54915297" lon="12.635396998"><ele>133</ele><time>2020-03-01T09:47:24Z</time></trkpt>
<trkpt lat="42.549175015" lon="12.635363974"><ele>133</ele><time>2020-03-01T09:47:25Z</time></trkpt>
<trkpt lat="42.549242992" lon="12.635262972"><ele>133</ele><time>2020-03-01T09:47:28Z</time></trkpt>
<trkpt lat="42.549266964" lon="12.635228019"><ele>133</ele><time>2020-03-01T09:47:29Z</time></trkpt>
<trkpt lat="42.549290014" lon="12.635193989"><ele>132</ele><time>2020-03-01T09:47:30Z</time></trkpt>
<trkpt lat="42.549313987" lon="12.635159036"><ele>132</ele><time>2020-03-01T09:47:31Z</time></trkpt>
<trkpt lat="42.549337037" lon="12.635124"><ele>132</ele><time>2020-03-01T09:47:32Z</time></trkpt>
<trkpt lat="42.549360003" lon="12.635088041"><ele>132</ele><time>2020-03-01T09:47:33Z</time></trkpt>
<trkpt lat="42.549383976" lon="12.635051999"><ele>132</ele><time>2020-03-01T09:47:34Z</time></trkpt>
<trkpt lat="42.549407026" lon="12.635015035"><ele>132</ele><time>2020-03-01T09:47:35Z</time></trkpt>
<trkpt lat="42.549429992" lon="12.634977987"><ele>132</ele><time>2020-03-01T09:47:36Z</time></trkpt>
<trkpt lat="42.549452037" lon="12.634941023"><ele>132</ele><time>2020-03-01T09:47:37Z</time></trkpt>
<trkpt lat="42.549473997" lon="12.634902969"><ele>132</ele><time>2020-03-01T09:47:38Z</time></trkpt>
<trkpt lat="42.549496042" lon="12.634863993"><ele>131</ele><time>2020-03-01T09:47:39Z</time></trkpt>
<trkpt lat="42.549516996" lon="12.634825017"><ele>131</ele><time>2020-03-01T09:47:40Z</time></trkpt>
<trkpt lat="42.549538035" lon="12.634786041"><ele>131</ele><time>2020-03-01T09:47:41Z</time></trkpt>
<trkpt lat="42.549557984" lon="12.634745976"><ele>131</ele><time>2020-03-01T09:47:42Z</time></trkpt>
<trkpt lat="42.549614981" lon="12.634627959"><ele>131</ele><time>2020-03-01T09:47:45Z</time></trkpt>
<trkpt lat="42.549633002" lon="12.634588983"><ele>131</ele><time>2020-03-01T09:47:46Z</time></trkpt>
<trkpt lat="42.549650017" lon="12.634550007"><ele>131</ele><time>2020-03-01T09:47:47Z</time></trkpt>
<trkpt lat="42.549666027" lon="12.634512037"><ele>131</ele><time>2020-03-01T09:47:48Z</time></trkpt>
<trkpt lat="42.549682036" lon="12.634474989"><ele>131</ele><time>2020-03-01T09:47:49Z</time></trkpt>
<trkpt lat="42.549696034" lon="12.634439031"><ele>131</ele><time>2020-03-01T09:47:50Z</time></trkpt>
<trkpt lat="42.549710032" lon="12.634402988"><ele>131</ele><time>2020-03-01T09:47:51Z</time></trkpt>
<trkpt lat="42.549723024" lon="12.634368036"><ele>131</ele><time>2020-03-01T09:47:52Z</time></trkpt>
<trkpt lat="42.549734004" lon="12.634331994"><ele>131</ele><time>2020-03-01T09:47:53Z</time></trkpt>
<trkpt lat="42.549744984" lon="12.634296035"><ele>131</ele><time>2020-03-01T09:47:54Z</time></trkpt>
<trkpt lat="42.549754959" lon="12.634257982"><ele>131</ele><time>2020-03-01T09:47:55Z</time></trkpt>
<trkpt lat="42.549767029" lon="12.634219006"><ele>131</ele><time>2020-03-01T09:47:56Z</time></trkpt>
<trkpt lat="42.549779015" lon="12.634178018"><ele>131</ele><time>2020-03-01T09:47:57Z</time></trkpt>
<trkpt lat="42.549794018" lon="12.634136025"><ele>131</ele><time>2020-03-01T09:47:58Z</time></trkpt>
<trkpt lat="42.549809022" lon="12.634093026"><ele>131</ele><time>2020-03-01T09:47:59Z</time></trkpt>
<trkpt lat="42.549824025" lon="12.634050027"><ele>131</ele><time>2020-03-01T09:48:00Z</time></trkpt>
<trkpt lat="42.549838023" lon="12.634005016"><ele>131</ele><time>2020-03-01T09:48:01Z</time></trkpt>
<trkpt lat="42.549852021" lon="12.633961011"><ele>130</ele><time>2020-03-01T09:48:02Z</time></trkpt>
<trkpt lat="42.549864007" lon="12.633916"><ele>130</ele><time>2020-03-01T09:48:03Z</time></trkpt>
<trkpt lat="42.549874987" lon="12.633871995"><ele>130</ele><time>2020-03-01T09:48:04Z</time></trkpt>
<trkpt lat="42.54988404" lon="12.633826984"><ele>130</ele><time>2020-03-01T09:48:05Z</time></trkpt>
<trkpt lat="42.549893009" lon="12.633781973"><ele>130</ele><time>2020-03-01T09:48:06Z</time></trkpt>
<trkpt lat="42.549900971" lon="12.633737968"><ele>130</ele><time>2020-03-01T09:48:07Z</time></trkpt>
<trkpt lat="42.549908012" lon="12.633693041"><ele>130</ele><time>2020-03-01T09:48:08Z</time></trkpt>
<trkpt lat="42.549914969" lon="12.63364803"><ele>130</ele><time>2020-03-01T09:48:09Z</time></trkpt>
<trkpt lat="42.54992201" lon="12.633604025"><ele>130</ele><time>2020-03-01T09:48:10Z</time></trkpt>
<trkpt lat="42.549928967" lon="12.633559015"><ele>129</ele><time>2020-03-01T09:48:11Z</time></trkpt>
<trkpt lat="42.549936008" lon="12.63351501"><ele>129</ele><time>2020-03-01T09:48:12Z</time></trkpt>
<trkpt lat="42.549943971" lon="12.633471005"><ele>129</ele><time>2020-03-01T09:48:13Z</time></trkpt>
<trkpt lat="42.549953023" lon="12.633427"><ele>129</ele><time>2020-03-01T09:48:14Z</time></trkpt>
<trkpt lat="42.549961992" lon="12.633382995"><ele>129</ele><time>2020-03-01T09:48:15Z</time></trkpt>
<trkpt lat="42.549971966" lon="12.63333899"><ele>129</ele><time>2020-03-01T09:48:16Z</time></trkpt>
<trkpt lat="42.54998303" lon="12.633294985"><ele>129</ele><time>2020-03-01T09:48:17Z</time></trkpt>
<trkpt lat="42.549995016" lon="12.63325098"><ele>129</ele><time>2020-03-01T09:48:18Z</time></trkpt>
<trkpt lat="42.550008008" lon="12.633206975"><ele>129</ele><time>2020-03-01T09:48:19Z</time></trkpt>
<trkpt lat="42.550019994" lon="12.633161964"><ele>129</ele><time>2020-03-01T09:48:20Z</time></trkpt>
<trkpt lat="42.550033992" lon="12.633117037"><ele>129</ele><time>2020-03-01T09:48:21Z</time></trkpt>
<trkpt lat="42.550046984" lon="12.633072026"><ele>129</ele><time>2020-03-01T09:48:22Z</time></trkpt>
<trkpt lat="42.550061988" lon="12.633029027"><ele>128</ele><time>2020-03-01T09:48:23Z</time></trkpt>
<trkpt lat="42.550076991" lon="12.632988961"><ele>128</ele><time>2020-03-01T09:48:24Z</time></trkpt>
<trkpt lat="42.550091995" lon="12.632951997"><ele>128</ele><time>2020-03-01T09:48:25Z</time></trkpt>
<trkpt lat="42.550108004" lon="12.632919978"><ele>128</ele><time>2020-03-01T09:48:26Z</time></trkpt>
<trkpt lat="42.55012502" lon="12.632891983"><ele>128</ele><time>2020-03-01T09:48:27Z</time></trkpt>
<trkpt lat="42.550143041" lon="12.632870022"><ele>128</ele><time>2020-03-01T09:48:28Z</time></trkpt>
<trkpt lat="42.55016299" lon="12.632852001"><ele>128</ele><time>2020-03-01T09:48:29Z</time></trkpt>
<trkpt lat="42.55018604" lon="12.632838003"><ele>128</ele><time>2020-03-01T09:48:30Z</time></trkpt>
<trkpt lat="42.550212024" lon="12.632828029"><ele>128</ele><time>2020-03-01T09:48:31Z</time></trkpt>
<trkpt lat="42.550241025" lon="12.632819982"><ele>128</ele><time>2020-03-01T09:48:32Z</time></trkpt>
<trkpt lat="42.550348984" lon="12.632809002"><ele>127</ele><time>2020-03-01T09:48:35Z</time></trkpt>
<trkpt lat="42.55038796" lon="12.632809002"><ele>127</ele><time>2020-03-01T09:48:36Z</time></trkpt>
<trkpt lat="42.550428025" lon="12.632810008"><ele>127</ele><time>2020-03-01T09:48:37Z</time></trkpt>
<trkpt lat="42.550467001" lon="12.632813025"><ele>127</ele><time>2020-03-01T09:48:38Z</time></trkpt>
<trkpt lat="42.550504971" lon="12.632816965"><ele>127</ele><time>2020-03-01T09:48:39Z</time></trkpt>
<trkpt lat="42.550541013" lon="12.632821994"><ele>127</ele><time>2020-03-01T09:48:40Z</time></trkpt>
<trkpt lat="42.550575966" lon="12.632828029"><ele>127</ele><time>2020-03-01T09:48:41Z</time></trkpt>
<trkpt lat="42.550609997" lon="12.632834986"><ele>127</ele><time>2020-03-01T09:48:42Z</time></trkpt>
<trkpt lat="42.550643021" lon="12.632844038"><ele>127</ele><time>2020-03-01T09:48:43Z</time></trkpt>
<trkpt lat="42.550674034" lon="12.632854013"><ele>127</ele><time>2020-03-01T09:48:44Z</time></trkpt>
<trkpt lat="42.550705969" lon="12.632865999"><ele>126</ele><time>2020-03-01T09:48:45Z</time></trkpt>
<trkpt lat="42.550735977" lon="12.632879997"><ele>126</ele><time>2020-03-01T09:48:46Z</time></trkpt>
<trkpt lat="42.55076699" lon="12.632896006"><ele>126</ele><time>2020-03-01T09:48:47Z</time></trkpt>
<trkpt lat="42.550796997" lon="12.632913021"><ele>126</ele><time>2020-03-01T09:48:48Z</time></trkpt>
<trkpt lat="42.550827004" lon="12.63293297"><ele>126</ele><time>2020-03-01T09:48:49Z</time></trkpt>
<trkpt lat="42.550858017" lon="12.632954009"><ele>126</ele><time>2020-03-01T09:48:50Z</time></trkpt>
<trkpt lat="42.550888024" lon="12.632977981"><ele>126</ele><time>2020-03-01T09:48:51Z</time></trkpt>
<trkpt lat="42.550917026" lon="12.633004971"><ele>126</ele><time>2020-03-01T09:48:52Z</time></trkpt>
<trkpt lat="42.55094301" lon="12.633033972"><ele>126</ele><time>2020-03-01T09:48:53Z</time></trkpt>
<trkpt lat="42.550962958" lon="12.633065991"><ele>126</ele><time>2020-03-01T09:48:54Z</time></trkpt>
<trkpt lat="42.55098098" lon="12.633101027"><ele>126</ele><time>2020-03-01T09:48:55Z</time></trkpt>
<trkpt lat="42.550997995" lon="12.633136986"><ele>126</ele><time>2020-03-01T09:48:56Z</time></trkpt>
<trkpt lat="42.55101501" lon="12.63317504"><ele>126</ele><time>2020-03-01T09:48:57Z</time></trkpt>
<trkpt lat="42.551034037" lon="12.633214016"><ele>126</ele><time>2020-03-01T09:48:58Z</time></trkpt>
<trkpt lat="42.55105298" lon="12.633255003"><ele>126</ele><time>2020-03-01T09:48:59Z</time></trkpt>
<trkpt lat="42.551071001" lon="12.633294985"><ele>126</ele><time>2020-03-01T09:49:00Z</time></trkpt>
<trkpt lat="42.551088016" lon="12.633336978"><ele>126</ele><time>2020-03-01T09:49:01Z</time></trkpt>
<trkpt lat="42.55110302" lon="12.633378971"><ele>126</ele><time>2020-03-01T09:49:02Z</time></trkpt>
<trkpt lat="42.551116012" lon="12.633420965"><ele>126</ele><time>2020-03-01T09:49:03Z</time></trkpt>
<trkpt lat="42.551126992" lon="12.633463042"><ele>126</ele><time>2020-03-01T09:49:04Z</time></trkpt>
<trkpt lat="42.551135961" lon="12.633506041"><ele>126</ele><time>2020-03-01T09:49:05Z</time></trkpt>
<trkpt lat="42.551141996" lon="12.63354904"><ele>126</ele><time>2020-03-01T09:49:06Z</time></trkpt>
<trkpt lat="42.551147025" lon="12.633591034"><ele>126</ele><time>2020-03-01T09:49:07Z</time></trkpt>
<trkpt lat="42.551152976" lon="12.633720031"><ele>127</ele><time>2020-03-01T09:49:10Z</time></trkpt>
<trkpt lat="42.55115197" lon="12.63376303"><ele>127</ele><time>2020-03-01T09:49:11Z</time></trkpt>
<trkpt lat="42.551150965" lon="12.633805024"><ele>127</ele><time>2020-03-01T09:49:12Z</time></trkpt>
<trkpt lat="42.551148031" lon="12.633848023"><ele>127</ele><time>2020-03-01T09:49:13Z</time></trkpt>
<trkpt lat="42.551145013" lon="12.633890016"><ele>127</ele><time>2020-03-01T09:49:14Z</time></trkpt>
<trkpt lat="42.551141996" lon="12.633932009"><ele>128</ele><time>2020-03-01T09:49:15Z</time></trkpt>
<trkpt lat="42.551137973" lon="12.633974003"><ele>128</ele><time>2020-03-01T09:49:16Z</time></trkpt>
<trkpt lat="42.551133027" lon="12.63401499"><ele>128</ele><time>2020-03-01T09:49:17Z</time></trkpt>
<trkpt lat="42.551129004" lon="12.634055978"><ele>128</ele><time>2020-03-01T09:49:18Z</time></trkpt>
<trkpt lat="42.551124981" lon="12.634096965"><ele>128</ele><time>2020-03-01T09:49:19Z</time></trkpt>
<trkpt lat="42.551121041" lon="12.634137031"><ele>128</ele><time>2020-03-01T09:49:20Z</time></trkpt>
<trkpt lat="42.551118024" lon="12.634177012"><ele>128</ele><time>2020-03-01T09:49:21Z</time></trkpt>
<trkpt lat="42.551115006" lon="12.634215988"><ele>128</ele><time>2020-03-01T09:49:22Z</time></trkpt>
<trkpt lat="42.551112995" lon="12.634254964"><ele>128</ele><time>2020-03-01T09:49:23Z</time></trkpt>
<trkpt lat="42.551111989" lon="12.634293018"><ele>128</ele><time>2020-03-01T09:49:24Z</time></trkpt>
<trkpt lat="42.551111989" lon="12.634329982"><ele>128</ele><time>2020-03-01T09:49:25Z</time></trkpt></trkseg></trk><wpt lat="42.551111989" lon="12.634329982"><name>Finish km:10.703, Lat:42.5511, Lon:12.6343</name><sym>Finish</sym><ele>128</ele></wpt><wpt lat="42.554315971" lon="12.636819994"><name>km:1, Lat:42.5543, Lon:12.6368</name><ele>123</ele></wpt><wpt lat="42.558549" lon="12.629600996"><name>km:2, Lat:42.5585, Lon:12.6296</name><ele>115</ele></wpt><wpt lat="42.557007987" lon="12.638564017"><name>km:3, Lat:42.557, Lon:12.6386</name><ele>118</ele></wpt><wpt lat="42.561644018" lon="12.642866028"><name>km:4, Lat:42.5616, Lon:12.6429</name><ele>129</ele></wpt><wpt lat="42.560914038" lon="12.642523041"><name>km:5, Lat:42.5609, Lon:12.6425</name><ele>132</ele></wpt><wpt lat="42.559708972" lon="12.647828031"><name>km:6, Lat:42.5597, Lon:12.6478</name><ele>129</ele></wpt><wpt lat="42.552793985" lon="12.648394983"><name>km:7, Lat:42.5528, Lon:12.6484</name><ele>132</ele></wpt><wpt lat="42.547254972" lon="12.646386009"><name>km:8, Lat:42.5473, Lon:12.6464</name><ele>149</ele></wpt><wpt lat="42.545825019" lon="12.643766999"><name>km:9, Lat:42.5458, Lon:12.6438</name><ele>155</ele></wpt><wpt lat="42.547527971" lon="12.63733699"><name>km:10, Lat:42.5475, Lon:12.6373</name><ele>136</ele></wpt></gpx>
